[[{"header":{"parameterUnit":"m.s-1","parameterCategory":1,"la1":31.0,"la2":29.5877,"lo1":-88.7671,"lo2":-86.6584,"dy":0.0162,"dx":0.0185,"nx":115,"ny":88,"refTime":"2023-09-29T12:00:00:Z","depth":0,"parameterNumber":2,"parameterNumberName":"U-component_of_WINDS"},"data":[0.0,0.0,0.0,0.0,0.0,0.0,0.0,0.0,0.0,0.0,0.0,0.0,0.0,0.0,0.0,0.0,0.0,0.0,0.0,0.0,0.0,0.0,0.0,0.0,0.0,0.0,0.0,0.0,0.0,0.0,0.0,0.0,0.0,0.0,0.0,0.0,0.0,0.0,0.0,0.0,0.0,0.0,0.0,0.0,0.0,0.0,0.0,0.0,0.0,0.0,0.0,0.0,0.0,0.0,0.0,0.0,0.0,0.0,0.0,0.0,0.0,0.0,0.0,0.0,0.0,0.0,0.0,0.0,0.0,0.0,0.0,0.0,0.0,0.0,0.0,0.0,0.0,0.0,0.0,0.0,0.0,0.0,0.0,0.0,0.0,0.0,0.0,0.0,0.0,0.0,0.0,0.0,0.0,0.0,0.0,0.0,0.0,0.0,0.0,0.0,0.0,0.0,0.0,0.0,0.0,0.0,0.0,0.0,0.0,0.0,0.0,0.0,0.0,0.0,0.0,0.0,0.0,0.0,0.0,0.0,0.0,0.0,0.0,0.0,0.0,0.0,0.0,0.0,0.0,0.0,0.0,0.0,0.0,0.0,0.0,0.0,0.0,0.0,0.0,0.0,0.0,0.0,0.0,0.0,0.0,0.0,0.0,0.0,0.0,0.0,0.0,0.0,0.0,0.0,0.0,0.0,0.0,0.0,0.0,0.0,0.0,0.0,0.0,0.0,0.0,0.0,0.0,0.0,0.0,0.0,0.0,0.0,0.0,0.0,0.0,0.0,0.0,0.0,0.0,0.0,0.0,0.0,0.0,0.0,0.0,0.0,0.0,0.0,0.0,0.0,0.0,0.0,0.0,0.0,0.0,0.0,0.0,0.0,0.0,0.0,0.0,0.0,0.0,0.0,0.0,0.0,0.0,0.0,0.0,0.0,0.0,0.0,0.0,0.0,0.0,0.0,0.0,0.0,0.0,0.0,0.0,0.0,0.0,0.0,0.0,0.0,0.0,0.0,0.0,0.0,0.0,0.0,0.0,0.0,0.0,0.0,0.0,0.0,0.0,0.0,0.0,0.0,0.0,0.0,0.0,0.0,0.0,0.0,0.0,0.0,0.0,0.0,0.0,0.0,0.0,0.0,0.0,0.0,0.0,0.0,0.0,0.0,0.0,0.0,0.0,0.0,0.0,0.0,0.0,0.0,0.0,0.0,0.0,0.0,0.0,0.0,0.0,0.0,0.0,0.0,0.0,0.0,0.0,0.0,0.0,0.0,0.0,0.0,0.0,0.0,0.0,0.0,0.0,0.0,0.0,0.0,0.0,0.0,0.0,0.0,0.0,0.0,0.0,0.0,0.0,0.0,0.0,0.0,0.0,0.0,0.0,0.0,0.0,0.0,0.0,0.0,0.0,0.0,0.0,0.0,0.0,0.0,0.0,0.0,0.0,0.0,0.0,0.0,0.0,0.0,0.0,0.0,0.0,0.0,0.0,0.0,0.0,0.0,0.0,0.0,0.0,0.0,0.0,0.0,0.0,0.0,0.0,0.0,0.0,0.0,0.0,0.0,0.0,0.0,0.0,0.0,0.0,0.0,0.0,0.0,0.0,0.0,0.0,0.0,0.0,0.0,0.0,0.0,0.0,0.0,0.0,0.0,0.0,0.0,0.0,0.0,0.0,0.0,0.0,0.0,0.0,0.0,0.0,0.0,0.0,0.0,0.0,0.0,0.0,0.0,0.0,0.0,0.0,0.0,0.0,0.0,0.0,0.0,0.0,0.0,0.0,0.0,0.0,0.0,0.0,0.0,0.0,0.0,0.0,0.0,0.0,0.0,0.0,0.0,0.0,0.0,0.0,0.0,0.0,0.0,0.0,0.0,0.0,0.0,0.0,0.0,0.0,0.0,0.0,0.0,0.0,0.0,0.0,0.0,0.0,0.0,0.0,0.0,0.0,0.0,0.0,0.0,0.0,0.0,0.0,0.0,0.0,0.0,0.0,0.0,0.0,0.0,0.0,0.0,0.0,0.0,0.0,0.0,0.0,0.0,0.0,0.0,0.0,0.0,0.0,0.0,0.0,0.0,0.0,0.0,0.0,0.0,0.0,0.0,0.0,0.0,0.0,0.0,0.0,0.0,0.0,0.0,0.0,0.0,0.0,0.0,0.0,0.0,0.0,0.0,0.0,0.0,0.0,0.0,0.0,0.0,0.0,0.0,0.0,0.0,0.0,0.0,0.0,0.0,0.0,0.0,0.0,0.0,0.0,0.0,0.0,0.0,0.0,0.0,0.0,0.0,0.0,0.0,0.0,0.0,0.0,0.0,0.0,0.0,0.0,0.0,0.0,0.0,0.0,0.0,0.0,0.0,0.0,0.0,0.0,0.0,0.0,0.0,0.0,0.0,0.0,0.0,0.0,0.0,0.0,0.0,0.0,0.0,0.0,0.0,0.0,0.0,0.0,0.0,0.0,0.0,0.0,0.0,0.0,0.0,0.0,0.0,0.0,0.0,0.0,0.0,0.0,0.0,0.0,0.0,0.0,0.0,0.0,0.0,0.0,0.0,0.0,0.0,0.0,0.0,0.0,0.0,0.0,0.0,0.0,0.0,0.0,0.0,0.0,0.0,0.0,0.0,0.0,0.0,0.0,0.0,0.0,0.0,0.0,0.0,0.0,0.0,0.0,0.0,0.0,0.0,0.0,0.0,0.0,0.0,0.0,0.0,0.0,0.0,0.0,0.0,0.0,0.0,0.0,0.0,0.0,0.0,0.0,0.0,0.0,0.0,0.0,0.0,0.0,0.0,0.0,0.0,0.0,0.0,0.0,0.0,0.0,0.0,0.0,0.0,0.0,0.0,0.0,0.0,0.0,0.0,0.0,0.0,0.0,0.0,0.0,0.0,0.0,0.0,0.0,0.0,0.0,0.0,0.0,0.0,0.0,0.0,0.0,0.0,0.0,0.0,0.0,0.0,0.0,0.0,0.0,0.0,0.0,0.0,0.0,0.0,0.0,0.0,0.0,0.0,0.0,0.0,0.0,0.0,0.0,0.0,0.0,0.0,0.0,0.0,0.0,0.0,0.0,0.0,0.0,0.0,0.0,0.0,0.0,0.0,0.0,0.0,0.0,0.0,0.0,0.0,0.0,0.0,0.0,0.0,0.0,0.0,0.0,0.0,0.0,0.0,0.0,0.0,0.0,0.0,0.0,0.0,0.0,0.0,0.0,0.0,0.0,0.0,0.0,0.0,0.0,0.0,0.0,0.0,0.0,0.0,0.0,0.0,0.0,0.0,0.0,0.0,0.0,0.0,0.0,0.0,0.0,0.0,0.0,0.0,0.0,0.0,0.0,0.0,0.0,0.0,0.0,0.0,0.0,0.0,0.0,0.0,0.0,0.0,0.0,0.0,0.0,0.0,0.0,0.0,0.0,0.0,0.0,0.0,0.0,0.0,0.0,0.0,0.0,0.0,0.0,0.0,0.0,0.0,0.0,0.0,0.0,0.0,0.0,0.0,0.0,0.0,0.0,0.0,0.0,0.0,0.0,0.0,0.0,0.0,0.0,0.0,0.0,0.0,0.0,0.0,0.0,0.0,0.0,0.0,0.0,0.0,0.0,0.0,0.0,0.0,0.0,0.0,0.0,0.0,0.0,0.0,0.0,0.0,0.0,0.0,0.0,0.0,0.0,0.0,0.0,0.0,0.0,0.0,0.0,0.0,0.0,0.0,0.0,0.0,0.0,0.0,0.0,0.0,0.0,0.0,0.0,0.0,0.0,0.0,0.0,0.0,0.0,0.0,0.0,0.0,0.0,0.0,0.0,0.0,0.0,0.0,0.0,0.0,0.0,0.0,0.0,0.0,0.0,0.0,0.0,0.0,0.0,0.0,0.0,0.0,0.0,0.0,0.0,0.0,0.0,0.0,0.0,0.0,0.0,0.0,0.0,0.0,0.0,0.0,0.0,0.0,0.0,0.0,0.0,0.0,0.0,0.0,0.0,0.0,0.0,0.0,0.0,0.0,0.0,0.0,0.0,0.0,0.0,0.0,0.0,0.0,0.0,0.0,0.0,0.0,0.0,0.0,0.0,0.0,0.0,0.0,0.0,0.0,0.0,0.0,0.0,0.0,0.0,0.0,0.0,0.0,0.0,0.0,0.0,0.0,0.0,0.0,0.0,0.0,0.0,0.0,0.0,0.0,0.0,0.0,0.0,0.0,0.0,0.0,0.0,0.0,0.0,0.0,0.0,0.0,0.0,0.0,0.0,0.0,0.0,0.0,0.0,0.0,0.0,0.0,1.2305,0.0,0.0,0.0,0.0,0.0,0.0,0.0,0.0,0.0,0.0,0.0,0.0,0.0,0.0,0.0,0.0,0.0,0.0,0.0,0.0,0.0,0.0,0.0,0.0,0.0,0.0,0.0,0.0,0.0,0.0,0.0,0.0,0.0,0.0,0.0,0.0,0.0,0.0,0.0,0.0,0.0,0.0,0.0,0.0,0.0,0.0,0.0,0.0,0.0,0.0,0.0,0.0,0.0,0.0,0.0,0.0,0.0,0.0,0.0,0.0,0.0,0.0,0.0,0.0,0.0,0.0,0.0,0.0,0.0,0.0,0.0,0.0,0.0,0.0,0.0,0.0,0.0,0.0,0.0,0.0,0.0,0.0,0.0,0.0,0.0,0.0,0.0,0.0,0.0,0.0,0.0,0.0,0.0,0.0,0.0,0.0,0.0,0.0,0.0,0.0,0.0,0.0,0.0,0.0,0.0,0.0,0.0,0.0,0.0,0.0,1.278,1.2799,1.2799,1.2799,1.278,0.0,0.0,0.0,0.0,0.0,0.0,0.0,0.0,0.0,0.0,0.0,0.0,0.0,0.0,0.0,0.0,0.0,0.0,0.0,0.0,0.0,0.0,0.0,0.0,0.0,0.0,0.0,0.0,0.0,0.0,0.0,0.0,0.0,0.0,0.0,0.0,0.0,0.0,0.0,0.0,0.0,0.0,0.0,0.0,0.0,0.0,0.0,0.0,0.0,0.0,0.0,0.0,0.0,0.0,0.0,0.0,0.0,0.0,0.0,0.0,0.0,0.0,0.0,0.0,0.0,0.0,0.0,0.0,0.0,0.0,0.0,0.0,0.0,0.0,0.0,0.0,0.0,0.0,0.0,0.0,0.0,0.0,0.0,0.0,0.0,0.0,0.0,0.0,0.0,0.0,0.0,0.0,0.0,0.0,0.0,0.0,0.0,0.0,0.0,0.0,0.0,0.0,0.0,0.0,0.0,0.0,0.0,0.0,0.0,0.0,0.0,0.0,1.3213,1.3213,1.3213,0.0,0.0,0.0,0.0,0.0,0.0,0.0,0.0,0.0,0.0,0.0,0.0,0.0,0.0,0.0,0.0,0.0,0.0,0.0,0.0,0.0,0.0,0.0,0.0,0.0,0.0,0.0,0.0,0.0,0.0,0.0,0.0,0.0,0.0,0.0,0.0,0.0,0.0,0.0,0.0,0.0,0.0,0.0,0.0,0.0,0.0,0.0,0.0,0.0,0.0,0.0,0.0,0.0,0.0,0.0,0.0,0.0,0.0,0.0,0.0,0.0,0.0,0.0,0.0,0.0,0.0,0.0,0.0,0.0,0.0,0.0,0.0,0.0,0.0,0.0,0.0,0.0,0.0,0.0,0.0,0.0,0.0,0.0,0.0,0.0,0.0,0.0,0.0,0.0,0.0,0.0,0.0,0.0,0.0,0.0,0.0,0.0,0.0,0.0,0.0,0.0,0.0,0.0,0.0,0.0,0.0,0.0,0.0,0.0,0.0,1.3213,1.3213,1.3213,0.0,1.3227,0.0,0.0,0.0,0.0,0.0,0.0,0.0,0.0,0.0,0.0,0.0,0.0,0.0,0.0,0.0,0.0,0.0,0.0,0.0,0.0,0.0,0.0,0.0,0.0,0.0,0.0,0.0,0.0,0.0,0.0,0.0,0.0,0.0,0.0,0.0,0.0,0.0,0.0,0.0,0.0,0.0,0.0,0.0,0.0,0.0,0.0,0.0,0.0,0.0,0.0,0.0,0.0,0.0,0.0,0.0,0.0,0.0,0.0,0.0,0.0,0.0,0.0,0.0,0.0,0.0,0.0,0.0,0.0,0.0,0.0,0.0,0.0,0.0,0.0,0.0,0.0,0.0,0.0,0.0,0.0,0.0,0.0,0.0,0.0,0.0,0.0,0.0,0.0,0.0,0.0,0.0,0.0,0.0,0.0,0.0,0.0,0.0,0.0,0.0,0.0,0.0,0.0,0.0,0.0,0.0,0.0,0.0,0.0,0.0,0.0,1.3734,1.3734,1.3734,1.3734,0.0,0.0,0.0,0.0,0.0,0.0,0.0,0.0,0.0,0.0,0.0,0.0,0.0,0.0,0.0,0.0,0.0,0.0,0.0,0.0,0.0,0.0,0.0,0.0,0.0,0.0,0.0,0.0,0.0,0.0,0.0,0.0,0.0,0.0,0.0,0.0,0.0,0.0,0.0,0.0,0.0,0.0,0.0,0.0,0.0,0.0,0.0,0.0,0.0,0.0,0.0,0.0,0.0,0.0,0.0,0.0,0.0,0.0,0.0,0.0,0.0,0.0,0.0,0.0,0.0,0.0,0.0,0.0,0.0,0.0,0.0,0.0,0.0,0.0,0.0,0.0,0.0,0.0,0.0,0.0,0.0,0.0,0.0,0.0,0.0,0.0,0.0,0.0,0.0,0.0,0.0,0.0,0.0,0.0,0.0,0.0,0.0,0.0,0.0,0.0,0.0,0.0,0.0,0.0,0.0,0.0,0.0,0.0,0.0,0.0,1.4124,1.4103,1.4103,1.4103,1.4103,1.4103,0.0,0.0,0.0,0.0,0.0,0.0,0.0,0.0,0.0,0.0,0.0,0.0,0.0,0.0,0.0,0.0,0.0,0.0,0.0,0.0,0.0,0.0,0.0,0.0,0.0,0.0,0.0,0.0,0.0,0.0,0.0,0.0,0.0,0.0,0.0,0.0,0.0,0.0,0.0,0.0,0.0,0.0,0.0,0.0,0.0,0.0,0.0,0.0,0.0,0.0,0.0,0.0,0.0,0.0,0.0,0.0,0.0,0.0,0.0,0.0,0.0,0.0,0.0,0.0,0.0,0.0,0.0,0.0,0.0,0.0,0.0,0.0,0.0,0.0,0.0,0.0,0.0,0.0,0.0,0.0,0.0,0.0,0.0,0.0,0.0,0.0,0.0,0.0,0.0,0.0,0.0,0.0,0.0,0.0,0.0,0.0,0.0,0.0,0.0,0.0,0.0,0.0,0.0,0.0,0.0,0.0,0.0,0.0,1.4405,1.4208,1.4103,1.4103,1.4103,1.4103,0.0,0.0,0.0,0.0,0.0,0.0,0.0,0.0,0.0,0.0,0.0,0.0,0.0,0.0,0.0,0.0,0.0,0.0,0.0,0.0,0.0,0.0,0.0,0.0,0.0,0.0,0.0,0.0,0.0,0.0,0.0,0.0,0.0,0.0,0.0,0.0,0.0,0.0,0.0,0.0,0.0,0.0,0.0,0.0,0.0,0.0,0.0,0.0,0.0,0.0,0.0,0.0,0.0,0.0,0.0,0.0,0.0,0.0,0.0,0.0,0.0,0.0,0.0,0.0,0.0,0.0,0.0,0.0,0.0,0.0,0.0,0.0,0.0,0.0,0.0,0.0,0.0,0.0,0.0,0.0,0.0,0.0,0.0,0.0,0.0,0.0,0.0,0.0,0.0,0.0,0.0,0.0,0.0,0.0,0.0,0.0,0.0,0.0,0.0,0.0,0.0,0.0,0.0,0.0,0.0,0.0,0.0,0.0,0.0,1.4412,1.4208,1.4103,1.4103,1.4103,1.4103,0.0,0.0,0.0,0.0,0.0,0.0,0.0,0.0,0.0,0.0,0.0,0.0,0.0,0.0,0.0,0.0,0.0,0.0,0.0,0.0,0.0,0.0,0.0,0.0,0.0,0.0,0.0,0.0,0.0,0.0,0.0,0.0,0.0,0.0,0.0,0.0,0.0,0.0,0.0,0.0,0.0,0.0,0.0,0.0,0.0,0.0,0.0,0.0,0.0,0.0,0.0,0.0,0.0,0.0,0.0,0.0,0.0,0.0,0.0,0.0,0.0,0.0,0.0,0.0,0.0,0.0,0.0,0.0,0.0,0.0,0.0,0.0,0.0,0.0,0.0,0.0,0.0,0.0,0.0,0.0,0.0,0.0,0.0,0.0,0.0,0.0,0.0,0.0,0.0,0.0,0.0,0.0,0.0,0.0,0.0,0.0,0.0,0.0,0.0,0.0,0.0,0.0,0.0,0.0,0.0,0.0,0.0,0.0,0.0,1.4426,0.0,1.4166,1.4103,1.4103,1.4103,0.0,0.0,0.0,0.0,0.0,0.0,0.0,0.0,0.0,0.0,0.0,0.0,0.0,0.0,0.0,0.0,0.0,0.0,0.0,0.0,0.0,0.0,0.0,0.0,0.0,0.0,0.0,0.0,0.0,0.0,0.0,0.0,0.0,0.0,0.0,0.0,0.0,0.0,0.0,0.0,0.0,0.0,0.0,0.0,0.0,0.0,0.0,0.0,0.0,0.0,0.0,0.0,0.0,0.0,0.0,0.0,0.0,0.0,0.0,0.0,0.0,0.0,0.0,0.0,0.0,0.0,0.0,0.0,0.0,0.0,0.0,0.0,0.0,0.0,0.0,0.0,0.0,0.0,0.0,0.0,0.0,0.0,0.0,0.0,0.0,0.0,0.0,0.0,0.0,0.0,0.0,0.0,0.0,0.0,0.0,0.0,0.0,0.0,0.0,0.0,0.0,0.0,0.0,0.0,0.0,0.0,0.0,0.0,1.4915,1.4447,1.4419,1.4362,1.4116,1.4151,1.4116,0.0,0.0,0.0,0.0,0.0,0.0,0.0,0.0,0.0,0.0,0.0,0.0,0.0,0.0,0.0,0.0,0.0,0.0,0.0,0.0,0.0,0.0,0.0,0.0,0.0,0.0,0.0,0.0,0.0,0.0,0.0,0.0,0.0,0.0,0.0,0.0,0.0,0.0,0.0,0.0,0.0,0.0,0.0,0.0,0.0,0.0,0.0,0.0,0.0,0.0,0.0,0.0,0.0,0.0,0.0,0.0,0.0,0.0,0.0,0.0,0.0,0.0,0.0,0.0,0.0,0.0,0.0,0.0,0.0,0.0,0.0,0.0,0.0,0.0,0.0,0.0,0.0,0.0,0.0,0.0,0.0,0.0,0.0,0.0,0.0,0.0,0.0,0.0,0.0,0.0,0.0,0.0,0.0,0.0,0.0,0.0,0.0,0.0,0.0,0.0,0.0,0.0,0.0,0.0,0.0,0.0,0.0,0.0,0.0,1.5262,1.5273,1.5174,1.4933,1.4742,1.4569,0.0,0.0,0.0,0.0,0.0,0.0,0.0,0.0,0.0,0.0,0.0,0.0,0.0,0.0,0.0,0.0,0.0,0.0,0.0,0.0,0.0,0.0,0.0,0.0,0.0,0.0,0.0,0.0,0.0,0.0,0.0,0.0,0.0,0.0,0.0,0.0,0.0,0.0,0.0,0.0,0.0,0.0,0.0,0.0,0.0,0.0,0.0,0.0,0.0,0.0,0.0,0.0,0.0,0.0,0.0,0.0,0.0,0.0,0.0,0.0,0.0,0.0,0.0,0.0,0.0,0.0,0.0,0.0,0.0,0.0,0.0,0.0,0.0,0.0,0.0,0.0,0.0,0.0,0.0,0.0,0.0,0.0,0.0,0.0,0.0,0.0,0.0,0.0,0.0,0.0,0.0,0.0,0.0,0.0,0.0,0.0,0.0,0.0,0.0,0.0,0.0,0.0,0.0,0.0,0.0,0.0,0.0,0.0,0.0,1.6632,1.6324,1.606,1.5841,1.5438,1.5108,1.4845,0.0,0.0,0.0,0.0,0.0,0.0,0.0,0.0,0.0,0.0,0.0,0.0,0.0,0.0,0.0,0.0,0.0,0.0,0.0,0.0,0.0,0.0,0.0,0.0,0.0,0.0,0.0,0.0,0.0,0.0,0.0,0.0,0.0,0.0,0.0,0.0,0.0,0.0,0.0,0.0,0.0,0.0,0.0,0.0,0.0,0.0,0.0,0.0,0.0,0.0,0.0,0.0,0.0,0.0,0.0,0.0,0.0,0.0,0.0,0.0,0.0,0.0,0.0,0.0,0.0,0.0,0.0,0.0,0.0,0.0,0.0,0.0,0.0,0.0,0.0,0.0,0.0,0.0,0.0,0.0,0.0,0.0,0.0,0.0,0.0,0.0,0.0,0.0,0.0,0.0,0.0,0.0,0.0,0.0,0.0,0.0,0.0,0.0,0.0,0.0,0.0,0.0,0.0,0.0,0.0,0.0,0.0,0.0,1.835,1.7592,1.7075,1.6781,1.6211,1.5755,0.0,0.0,0.0,0.0,0.0,0.0,0.0,0.0,0.0,0.0,0.0,0.0,0.0,0.0,0.0,0.0,0.0,0.0,0.0,0.0,0.0,0.0,0.0,0.0,0.0,0.0,0.0,0.0,0.0,0.0,0.0,0.0,0.0,0.0,0.0,0.0,0.0,0.0,0.0,0.0,0.0,0.0,0.0,0.0,0.0,0.0,0.0,0.0,0.0,0.0,0.0,0.0,0.0,0.0,0.0,0.0,0.0,0.0,0.0,0.0,0.0,0.0,0.0,0.0,0.0,0.0,0.0,0.0,0.0,0.0,0.0,0.0,0.0,0.0,0.0,0.0,0.0,0.0,0.0,0.0,0.0,0.0,0.0,0.0,0.0,0.0,0.0,0.0,0.0,0.0,0.0,0.0,0.0,0.0,0.0,0.0,0.0,0.0,0.0,0.0,0.0,0.0,0.0,0.0,0.0,0.0,0.0,0.0,0.0,1.9023,1.9252,1.8907,1.7964,1.719,1.654,0.0,0.0,0.0,0.0,0.0,0.0,0.0,0.0,0.0,0.0,0.0,0.0,0.0,0.0,0.0,0.0,0.0,0.0,0.0,0.0,0.0,0.0,0.0,0.0,0.0,0.0,0.0,0.0,0.0,0.0,0.0,0.0,0.0,0.0,0.0,0.0,0.0,0.0,0.0,0.0,0.0,0.0,0.0,0.0,0.0,0.0,0.0,0.0,0.0,0.0,0.0,0.0,0.0,0.0,0.0,0.0,0.0,0.0,0.0,0.0,0.0,0.0,0.0,0.0,0.0,0.0,0.0,0.0,0.0,0.0,0.0,0.0,0.0,0.0,0.0,0.0,0.0,0.0,0.0,0.0,0.0,0.0,0.0,0.0,0.0,0.0,0.0,0.0,0.0,0.0,0.0,0.0,0.0,0.0,0.0,0.0,0.0,0.0,0.0,0.0,0.0,0.0,0.0,0.0,0.0,0.0,0.0,0.0,1.9444,1.9872,2.0356,2.0201,1.9384,1.8388,1.7552,0.0,0.0,0.0,0.0,0.0,0.0,0.0,0.0,0.0,0.0,0.0,0.0,0.0,0.0,0.0,0.0,0.0,0.0,0.0,0.0,0.0,0.0,0.0,0.0,0.0,0.0,0.0,0.0,0.0,0.0,0.0,0.0,0.0,0.0,0.0,0.0,0.0,0.0,0.0,0.0,0.0,0.0,0.0,0.0,0.0,0.0,0.0,0.0,0.0,0.0,0.0,0.0,0.0,0.0,0.0,0.0,0.0,0.0,0.0,0.0,0.0,0.0,0.0,0.0,0.0,0.0,0.0,0.0,0.0,0.0,0.0,0.0,0.0,0.0,0.0,0.0,0.0,0.0,0.0,0.0,0.0,0.0,0.0,0.0,0.0,0.0,0.0,0.0,0.0,0.0,0.0,0.0,0.0,0.0,0.0,0.0,0.0,0.0,0.0,0.0,0.0,0.0,0.0,0.0,0.0,0.0,0.0,0.0,2.0133,2.0678,2.1086,2.1115,2.078,1.963,1.8588,0.0,0.0,0.0,0.0,0.0,0.0,0.0,0.0,0.0,0.0,0.0,0.0,0.0,0.0,0.0,0.0,0.0,0.0,0.0,0.0,0.0,0.0,0.0,0.0,0.0,0.0,0.0,0.0,0.0,0.0,0.0,0.0,0.0,0.0,0.0,0.0,0.0,0.0,0.0,0.0,0.0,0.0,0.0,0.0,0.0,0.0,0.0,0.0,0.0,0.0,0.0,0.0,0.0,0.0,0.0,0.0,0.0,0.0,0.0,0.0,0.0,0.0,0.0,0.0,0.0,0.0,0.0,0.0,0.0,0.0,0.0,0.0,0.0,0.0,0.0,0.0,0.0,0.0,0.0,0.0,0.0,0.0,0.0,0.0,0.0,0.0,0.0,0.0,0.0,0.0,0.0,0.0,0.0,0.0,0.0,0.0,0.0,0.0,0.0,0.0,0.0,0.0,0.0,0.0,0.0,0.0,0.0,0.0,2.0298,2.0692,2.1291,2.1554,2.1481,2.0323,1.9117,0.0,0.0,0.0,0.0,0.0,0.0,0.0,0.0,0.0,0.0,0.0,0.0,0.0,0.0,0.0,0.0,0.0,0.0,0.0,0.0,0.0,0.0,0.0,0.0,0.0,0.0,0.0,0.0,0.0,0.0,0.0,0.0,0.0,0.0,0.0,0.0,0.0,0.0,0.0,0.0,0.0,0.0,0.0,0.0,0.0,0.0,0.0,0.0,1.7638,0.0,0.0,0.0,0.0,0.0,0.0,0.0,0.0,0.0,0.0,0.0,0.0,0.0,0.0,0.0,0.0,0.0,0.0,0.0,0.0,0.0,0.0,0.0,0.0,0.0,0.0,0.0,0.0,0.0,0.0,0.0,0.0,0.0,0.0,0.0,0.0,0.0,0.0,0.0,0.0,0.0,0.0,0.0,0.0,0.0,0.0,0.0,0.0,0.0,0.0,0.0,0.0,0.0,0.0,0.0,0.0,0.0,0.0,0.0,2.0824,2.1174,2.1672,2.192,2.1906,2.1336,2.0311,0.0,0.0,0.0,0.0,0.0,0.0,0.0,0.0,0.0,0.0,0.0,0.0,0.0,0.0,0.0,0.0,0.0,0.0,0.0,0.0,0.0,0.0,0.0,0.0,0.0,0.0,0.0,0.0,0.0,0.0,0.0,0.0,0.0,0.0,0.0,0.0,0.0,0.0,0.0,0.0,0.0,0.0,0.0,0.0,0.0,0.0,0.0,0.0,0.0,0.0,0.0,0.0,0.0,0.0,0.0,0.0,0.0,0.0,0.0,0.0,0.0,0.0,0.0,0.0,0.0,0.0,0.0,0.0,0.0,0.0,0.0,0.0,0.0,0.0,0.0,0.0,0.0,0.0,0.0,0.0,0.0,0.0,0.0,0.0,0.0,0.0,0.0,0.0,0.0,0.0,0.0,0.0,0.0,0.0,0.0,0.0,0.0,0.0,0.0,0.0,0.0,0.0,0.0,0.0,0.0,0.0,0.0,2.0794,2.1452,2.1774,2.2081,2.2242,2.2257,2.2184,2.1482,2.0137,0.0,0.0,0.0,0.0,0.0,0.0,0.0,0.0,0.0,0.0,0.0,0.0,0.0,0.0,0.0,0.0,0.0,0.0,0.0,0.0,0.0,0.0,0.0,0.0,0.0,0.0,0.0,0.0,0.0,0.0,0.0,0.0,0.0,0.0,0.0,0.0,0.0,0.0,1.6989,1.7472,0.0,0.0,0.0,0.0,0.0,0.0,0.0,0.0,1.8408,0.0,0.0,0.0,0.0,0.0,0.0,0.0,0.0,0.0,0.0,0.0,0.0,0.0,0.0,0.0,0.0,0.0,0.0,0.0,0.0,0.0,0.0,0.0,0.0,0.0,0.0,0.0,0.0,0.0,0.0,0.0,0.0,0.0,0.0,0.0,0.0,0.0,0.0,0.0,0.0,0.0,0.0,0.0,0.0,0.0,0.0,0.0,0.0,0.0,0.0,0.0,0.0,0.0,0.0,0.0,0.0,2.0122,2.1115,2.1774,2.2096,2.2389,2.255,2.2504,2.2052,2.1525,2.0957,0.0,0.0,0.0,0.0,0.0,0.0,0.0,0.0,0.0,0.0,0.0,0.0,0.0,0.0,0.0,0.0,0.0,0.0,0.0,0.0,0.0,0.0,0.0,0.0,0.0,0.0,0.0,0.0,0.0,0.0,0.0,0.0,0.0,0.0,0.0,0.0,0.0,0.0,0.0,1.763,1.8057,0.0,0.0,0.0,0.0,0.0,0.0,0.0,0.0,1.8814,0.0,0.0,0.0,0.0,0.0,0.0,0.0,0.0,0.0,0.0,0.0,0.0,0.0,0.0,0.0,0.0,0.0,0.0,0.0,0.0,0.0,0.0,0.0,0.0,0.0,0.0,0.0,0.0,0.0,0.0,0.0,0.0,0.0,0.0,0.0,0.0,0.0,0.0,0.0,0.0,0.0,0.0,0.0,0.0,0.0,0.0,0.0,0.0,0.0,0.0,0.0,0.0,0.0,0.0,0.0,2.0488,2.1569,2.2257,2.2418,2.268,2.2871,2.2841,2.2388,2.1876,0.0,0.0,0.0,0.0,0.0,0.0,0.0,0.0,0.0,0.0,0.0,0.0,0.0,0.0,0.0,0.0,0.0,0.0,0.0,0.0,0.0,0.0,0.0,0.0,0.0,0.0,0.0,0.0,0.0,0.0,0.0,0.0,0.0,0.0,0.0,0.0,0.0,0.0,0.0,0.0,1.8548,1.9008,1.9477,0.0,0.0,0.0,0.0,0.0,0.0,1.9626,1.9477,0.0,0.0,0.0,0.0,0.0,0.0,0.0,0.0,0.0,0.0,0.0,0.0,0.0,0.0,0.0,0.0,0.0,0.0,0.0,0.0,0.0,0.0,0.0,0.0,0.0,0.0,0.0,0.0,0.0,0.0,0.0,0.0,0.0,0.0,0.0,0.0,0.0,0.0,0.0,0.0,0.0,0.0,0.0,0.0,0.0,0.0,0.0,0.0,0.0,0.0,0.0,0.0,0.0,0.0,0.0,2.1028,2.2081,2.2694,2.2884,2.3106,2.3208,2.3193,2.2855,2.2212,0.0,0.0,0.0,0.0,0.0,0.0,0.0,0.0,0.0,0.0,0.0,0.0,0.0,0.0,0.0,0.0,0.0,0.0,0.0,0.0,0.0,0.0,0.0,0.0,0.0,0.0,0.0,0.0,0.0,0.0,0.0,0.0,0.0,0.0,0.0,0.0,0.0,0.0,0.0,0.0,0.0,1.9928,2.0254,2.059,0.0,0.0,0.0,0.0,2.0502,2.0502,0.0,0.0,0.0,0.0,0.0,0.0,0.0,0.0,0.0,0.0,0.0,0.0,0.0,0.0,0.0,0.0,0.0,0.0,0.0,0.0,0.0,0.0,0.0,0.0,0.0,0.0,0.0,0.0,0.0,0.0,0.0,0.0,0.0,0.0,0.0,0.0,0.0,0.0,0.0,0.0,0.0,0.0,0.0,0.0,0.0,0.0,0.0,0.0,0.0,0.0,0.0,0.0,0.0,0.0,0.0,0.0,2.1979,2.2418,2.3032,2.3852,2.3662,2.3545,2.353,2.3223,2.2476,0.0,0.0,0.0,0.0,0.0,0.0,0.0,0.0,0.0,0.0,0.0,0.0,0.0,0.0,0.0,0.0,0.0,0.0,0.0,0.0,0.0,0.0,0.0,0.0,0.0,0.0,0.0,0.0,0.0,0.0,0.0,0.0,0.0,0.0,0.0,0.0,0.0,0.0,0.0,0.0,0.0,2.0016,2.0561,2.0912,2.1042,0.0,0.0,2.1525,2.1525,2.1525,0.0,0.0,0.0,0.0,0.0,0.0,0.0,0.0,0.0,0.0,0.0,0.0,0.0,0.0,0.0,0.0,0.0,0.0,0.0,0.0,0.0,0.0,0.0,0.0,0.0,0.0,0.0,0.0,0.0,0.0,0.0,0.0,0.0,0.0,0.0,0.0,0.0,0.0,0.0,0.0,0.0,0.0,0.0,0.0,0.0,0.0,0.0,0.0,0.0,0.0,0.0,0.0,0.0,0.0,0.0,2.1247,2.2154,2.2652,2.3012,2.3261,2.3287,2.3215,2.3041,2.2897,2.2467,0.0,0.0,0.0,0.0,0.0,0.0,0.0,0.0,0.0,0.0,0.0,0.0,0.0,0.0,0.0,0.0,0.0,0.0,0.0,0.0,0.0,0.0,0.0,0.0,0.0,0.0,0.0,0.0,0.0,0.0,0.0,0.0,0.0,0.0,0.0,0.0,0.0,0.0,0.0,0.0,0.0,0.0,2.0969,2.1584,0.0,0.0,0.0,2.2169,2.1993,0.0,0.0,0.0,0.0,0.0,0.0,0.0,0.0,0.0,0.0,0.0,0.0,0.0,0.0,0.0,0.0,0.0,0.0,0.0,0.0,0.0,0.0,0.0,0.0,0.0,0.0,0.0,0.0,0.0,0.0,0.0,0.0,0.0,0.0,0.0,0.0,0.0,0.0,0.0,0.0,0.0,0.0,0.0,0.0,0.0,0.0,0.0,0.0,0.0,0.0,0.0,0.0,0.0,0.0,0.0,0.0,0.0,2.2166,2.2704,2.288,2.2754,2.295,2.3028,2.2863,2.2921,0.0,0.0,0.0,0.0,0.0,0.0,0.0,0.0,0.0,0.0,0.0,0.0,0.0,0.0,0.0,0.0,0.0,0.0,0.0,0.0,0.0,0.0,0.0,0.0,0.0,0.0,0.0,1.7349,0.0,0.0,0.0,0.0,0.0,0.0,0.0,0.0,0.0,0.0,0.0,0.0,0.0,0.0,2.1452,2.1452,2.2257,2.2754,0.0,0.0,2.2784,2.2564,2.271,2.2564,0.0,0.0,0.0,0.0,0.0,0.0,0.0,0.0,0.0,0.0,0.0,0.0,0.0,0.0,0.0,0.0,0.0,0.0,0.0,0.0,0.0,0.0,0.0,0.0,0.0,0.0,0.0,0.0,0.0,0.0,0.0,0.0,0.0,0.0,0.0,0.0,0.0,0.0,0.0,0.0,0.0,0.0,0.0,0.0,0.0,0.0,0.0,0.0,0.0,0.0,0.0,0.0,0.0,0.0,0.0,2.2106,2.2465,2.2765,2.3042,2.3019,2.3182,2.3508,2.3765,2.335,0.0,0.0,0.0,0.0,0.0,0.0,0.0,0.0,0.0,0.0,0.0,0.0,0.0,0.0,0.0,0.0,0.0,0.0,0.0,0.0,0.0,0.0,0.0,0.0,0.0,0.0,0.0,0.0,0.0,0.0,0.0,0.0,0.0,0.0,0.0,0.0,0.0,0.0,0.0,0.0,0.0,2.2155,2.2125,2.293,2.3413,0.0,0.0,2.3515,2.3501,2.3515,2.331,2.2607,0.0,0.0,0.0,0.0,0.0,0.0,0.0,0.0,0.0,0.0,0.0,0.0,0.0,0.0,0.0,0.0,0.0,0.0,0.0,0.0,0.0,0.0,0.0,0.0,0.0,0.0,0.0,0.0,0.0,0.0,0.0,0.0,0.0,0.0,0.0,0.0,0.0,0.0,0.0,0.0,0.0,0.0,0.0,0.0,0.0,0.0,0.0,0.0,0.0,0.0,0.0,0.0,0.0,2.1801,2.2374,2.2734,2.2865,2.2752,2.2847,2.3026,2.3238,2.3337,2.3385,0.0,0.0,0.0,0.0,0.0,0.0,0.0,0.0,0.0,0.0,0.0,0.0,0.0,0.0,0.0,0.0,0.0,0.0,0.0,0.0,0.0,0.0,0.0,0.0,0.0,0.0,0.0,0.0,1.9757,2.0106,2.0428,0.0,0.0,0.0,0.0,0.0,0.0,0.0,0.0,0.0,0.0,2.2593,2.2988,2.3369,0.0,0.0,2.3515,2.3603,2.3603,2.3764,2.3749,2.3296,2.3018,0.0,0.0,0.0,0.0,0.0,0.0,0.0,0.0,0.0,0.0,0.0,0.0,0.0,0.0,0.0,0.0,0.0,0.0,0.0,0.0,0.0,0.0,0.0,0.0,0.0,0.0,0.0,0.0,0.0,0.0,0.0,0.0,0.0,0.0,0.0,0.0,0.0,0.0,0.0,0.0,0.0,0.0,0.0,0.0,0.0,0.0,0.0,0.0,0.0,0.0,0.0,0.0,2.1956,2.2449,2.2989,2.3045,2.27,2.2937,2.3145,2.3314,2.3417,2.3619,0.0,0.0,0.0,0.0,0.0,0.0,0.0,0.0,0.0,0.0,0.0,0.0,0.0,0.0,0.0,0.0,0.0,0.0,0.0,0.0,0.0,0.0,0.0,0.0,0.0,0.0,0.0,0.0,2.059,2.0869,2.0915,0.0,0.0,0.0,0.0,0.0,0.0,0.0,0.0,0.0,0.0,2.3223,2.3676,2.3726,2.372,2.372,2.372,2.372,2.372,2.4006,2.4115,2.3825,0.0,0.0,0.0,0.0,0.0,0.0,0.0,0.0,0.0,0.0,0.0,0.0,0.0,0.0,0.0,0.0,0.0,0.0,0.0,0.0,0.0,0.0,0.0,0.0,0.0,0.0,0.0,0.0,0.0,0.0,0.0,0.0,0.0,0.0,0.0,0.0,0.0,0.0,0.0,0.0,0.0,0.0,0.0,0.0,0.0,0.0,0.0,0.0,0.0,0.0,0.0,0.0,0.0,2.1868,2.2118,2.3121,2.3434,2.3089,2.335,2.3671,2.4037,2.4324,2.4147,2.3532,0.0,0.0,0.0,0.0,0.0,0.0,0.0,0.0,0.0,0.0,0.0,0.0,0.0,0.0,0.0,0.0,0.0,0.0,0.0,0.0,0.0,0.0,0.0,0.0,0.0,0.0,2.0256,2.0795,2.0987,0.0,0.0,0.0,0.0,0.0,0.0,0.0,0.0,0.0,0.0,2.322,2.4057,2.4086,2.4039,2.398,2.398,2.3994,2.3994,2.3994,2.4322,2.4485,0.0,0.0,0.0,0.0,0.0,0.0,0.0,0.0,0.0,0.0,0.0,0.0,0.0,0.0,0.0,0.0,0.0,0.0,0.0,0.0,0.0,0.0,0.0,0.0,0.0,0.0,0.0,2.0442,2.1072,0.0,0.0,0.0,0.0,0.0,0.0,0.0,0.0,0.0,0.0,0.0,2.2318,2.2203,0.0,0.0,0.0,0.0,0.0,0.0,0.0,0.0,0.0,0.0,0.0,0.0,2.2662,2.272,2.3454,2.3814,2.3711,2.379,2.3913,2.4015,2.3902,2.3714,2.35,0.0,0.0,0.0,0.0,0.0,0.0,0.0,0.0,0.0,0.0,0.0,0.0,0.0,0.0,0.0,0.0,0.0,0.0,0.0,0.0,0.0,0.0,0.0,0.0,0.0,2.1351,0.0,0.0,0.0,0.0,0.0,0.0,0.0,0.0,0.0,0.0,0.0,2.223,2.267,2.3275,2.3785,2.3985,2.3827,2.3657,0.0,0.0,0.0,0.0,0.0,0.0,0.0,0.0,0.0,0.0,0.0,0.0,0.0,0.0,2.3039,2.2578,2.2389,2.2314,2.2447,0.0,0.0,0.0,0.0,0.0,0.0,0.0,0.0,0.0,0.0,0.0,0.0,0.0,0.0,0.0,0.0,2.2572,0.0,0.0,0.0,0.0,0.0,0.0,0.0,0.0,2.2635,2.2934,2.3032,2.3038,2.2841,0.0,2.264,2.2378,0.0,0.0,0.0,0.0,0.0,0.0,0.0,0.0,2.292,2.3017,2.3657,2.4048,2.4126,2.414,2.412,2.414,2.371,2.3593,2.3861,2.408,2.389,0.0,0.0,0.0,0.0,0.0,0.0,0.0,0.0,0.0,0.0,0.0,0.0,0.0,0.0,0.0,0.0,0.0,0.0,0.0,0.0,0.0,0.0,0.0,2.2116,0.0,0.0,0.0,0.0,0.0,0.0,0.0,0.0,0.0,2.1307,2.2097,2.2845,2.3262,2.3585,2.3924,2.4232,0.0,0.0,0.0,0.0,0.0,0.0,0.0,2.4756,2.4777,2.4889,2.5009,2.5024,2.4981,2.4994,2.5273,0.0,0.0,2.4043,2.3954,2.3951,2.4101,2.4115,2.4127,2.4229,2.466,2.5126,0.0,0.0,0.0,0.0,0.0,0.0,0.0,0.0,2.3501,2.3823,0.0,2.3738,0.0,0.0,0.0,0.0,0.0,0.0,0.0,0.0,2.3777,2.4031,2.3442,2.4029,2.398,2.338,2.3459,2.3411,2.33,2.2498,0.0,0.0,0.0,0.0,0.0,0.0,2.2709,2.3071,2.3746,2.4182,2.4442,2.4421,2.4407,2.4393,2.3804,2.3803,2.4436,2.3944,2.3766,2.4076,2.3178,0.0,0.0,0.0,0.0,0.0,0.0,0.0,0.0,0.0,0.0,0.0,0.0,0.0,0.0,0.0,0.0,0.0,0.0,0.0,0.0,2.2431,0.0,0.0,0.0,0.0,0.0,0.0,0.0,0.0,0.0,0.0,2.1775,2.2489,2.3229,2.3789,0.0,0.0,0.0,0.0,2.3995,2.426,2.4328,2.4342,2.4307,2.4853,2.5202,2.4895,0.0,0.0,2.5335,2.5536,2.5718,2.5731,2.5718,2.5685,2.5554,2.5475,2.5533,2.581,2.5854,2.6049,2.6262,2.6035,2.6111,2.3925,0.0,0.0,0.0,0.0,2.2154,2.2933,2.4065,2.4698,2.4984,2.5034,2.498,0.0,0.0,0.0,0.0,0.0,0.0,2.3625,2.3442,2.421,2.4565,2.4583,2.4774,2.4774,2.4583,2.48,2.4656,2.4226,2.4209,2.387,2.3174,0.0,0.0,0.0,0.0,2.3919,2.4205,2.467,2.4966,2.505,2.5064,2.481,2.4355,2.438,2.4506,2.4719,2.4742,2.4834,2.4911,2.4102,0.0,0.0,0.0,0.0,0.0,0.0,0.0,0.0,0.0,0.0,0.0,0.0,0.0,0.0,0.0,0.0,0.0,0.0,0.0,2.3328,2.3304,2.3238,0.0,0.0,0.0,0.0,0.0,0.0,0.0,0.0,0.0,2.3174,2.3378,2.3658,0.0,0.0,2.398,2.4061,2.4111,2.4161,2.4206,0.0,0.0,0.0,2.5205,2.5404,2.531,2.5616,2.5858,2.5858,2.5927,2.6095,2.6345,2.6388,2.6406,2.6617,2.6098,2.5709,2.5773,2.6055,2.6215,2.6099,2.6496,2.6925,2.6524,2.4597,2.3714,2.3752,2.4331,2.437,2.4962,2.5927,2.6199,2.6219,2.6056,2.5946,2.5414,2.4628,2.4274,0.0,0.0,0.0,2.4459,2.4686,2.4997,2.5371,2.5758,2.5931,2.5864,2.5611,2.5805,2.5565,2.4946,2.5187,2.5026,2.4499,0.0,0.0,2.3817,2.4089,2.4309,2.4485,2.4752,2.4915,2.5025,2.4915,2.4656,2.4277,2.4354,2.4453,2.4597,2.4908,2.5102,2.5084,2.4595,2.3921,0.0,0.0,0.0,0.0,0.0,0.0,0.0,0.0,0.0,0.0,0.0,2.0069,2.0002,0.0,0.0,0.0,2.2162,2.2999,2.4034,2.3913,0.0,0.0,0.0,0.0,0.0,0.0,0.0,2.2953,2.3581,2.4088,2.4312,2.4396,2.4422,2.4302,2.4325,2.4329,2.4436,0.0,2.4583,2.4703,2.5024,2.5251,2.5251,2.5491,2.5718,2.5838,2.6059,2.6214,2.6214,2.6309,2.6454,2.6676,2.6682,2.6739,2.7001,2.6548,2.6212,2.6405,2.658,2.6616,2.6373,2.6834,2.7221,2.8573,2.7817,2.6134,2.6064,2.6939,2.6565,2.705,2.8108,2.7796,2.7485,2.7114,2.6765,2.6282,2.5711,2.5372,0.0,2.5222,2.5211,2.5543,2.6065,2.6078,2.6346,2.6854,2.7175,2.7028,2.6493,2.6539,2.6254,2.5625,2.5648,2.5686,2.5558,2.5037,2.4489,2.3991,2.4182,2.4315,2.4342,2.4356,2.4476,2.4693,2.4462,2.4302,2.4275,2.4044,2.4053,2.4312,2.4615,2.4773,2.4796,2.4817,2.4583,2.3989,0.0,0.0,0.0,0.0,0.0,0.0,0.0,0.0,0.0,0.0,0.0,0.0,0.0,0.0,0.0,2.3527,0.0,2.4342,2.4361,0.0,0.0,0.0,2.3345,2.3108,2.3589,2.3937,2.391,0.0,0.0,2.5117,0.0,2.5491,2.5262,2.5181,2.5224,2.5504,2.5331,2.5277,2.5531,2.5625,2.5651,2.5692,2.5919,2.6265,2.652,2.6507,2.656,2.66,2.6707,2.6881,2.6907,2.6867,2.6841,2.6854,2.6867,2.7041,2.7416,2.7332,2.7128,2.693,2.6948,2.7118,2.9252,2.9057,2.8631,2.7911,2.7097,2.7231,2.7404,2.7613,2.8089,2.7939,2.733,2.7542,2.7296,2.6664,2.6274,2.6079,2.6092,2.6306,2.648,2.6627,2.6894,2.7068,2.7161,2.7269,2.7242,2.7108,2.7109,2.6881,2.652,2.6519,2.6412,2.6186,2.6039,2.5678,2.5117,2.517,2.5317,2.5583,2.5583,2.561,2.5663,2.5358,2.5104,2.4877,2.4847,2.47,2.4559,2.4599,2.4636,2.4642,2.4929,2.4707,2.3912,2.3509,0.0,0.0,0.0,0.0,0.0,0.0,0.0,0.0,0.0,2.1286,2.1304,0.0,2.3025,0.0,2.3758,2.4368,2.492,2.4931,0.0,0.0,2.5021,2.4877,2.4619,2.4877,2.501,2.4834,2.5144,2.5411,2.5411,2.5852,2.6159,2.6079,2.5692,2.5518,2.5837,2.6024,2.6106,2.6199,2.6547,2.676,2.6573,2.676,2.7162,2.7684,2.7535,2.7468,2.7724,2.7589,2.7495,2.7468,2.7308,2.7175,2.7175,2.7335,2.7416,2.7378,2.7198,2.6985,2.6692,2.6828,2.7081,3.0025,2.9604,2.9604,2.8827,2.7633,2.7959,2.8166,2.829,2.8454,2.8384,2.8094,2.8112,2.7826,2.7311,2.7095,2.6974,2.6987,2.7134,2.7281,2.7415,2.7442,2.7563,2.7697,2.7697,2.763,2.7455,2.7496,2.7308,2.7041,2.7148,2.7134,2.6974,2.6974,2.6814,2.648,2.5972,2.5837,2.5984,2.5998,2.5998,2.5984,2.5583,2.5304,2.5264,2.501,2.4789,2.4576,2.4407,2.4267,2.4081,2.4267,2.4232,2.3879,2.3445,2.2814,0.0,0.0,0.0,0.0,0.0,0.0,0.0,0.0,0.0,0.0,0.0,2.3932,2.4088,2.4516,2.4924,2.5272,2.5297,2.5344,2.5504,2.5518,2.5451,2.5291,2.5531,2.5692,2.5665,2.5919,2.6146,2.6279,2.6573,2.6814,2.6814,2.6493,2.64,2.6707,2.6814,2.6827,2.6961,2.7255,2.751,2.7402,2.759,2.7857,2.8259,2.8217,2.8163,2.831,2.8217,2.8096,2.8096,2.7963,2.7856,2.7869,2.7976,2.8003,2.7779,2.7499,2.7216,2.6919,2.7094,2.7404,3.0594,2.9763,2.9749,2.9233,2.8462,2.8802,2.9011,2.9203,2.8775,2.8778,2.8961,2.8484,2.8152,2.7869,2.7829,2.7816,2.7816,2.7776,2.7951,2.8219,2.7896,2.7951,2.8245,2.8245,2.8112,2.7816,2.7856,2.7749,2.755,2.7749,2.7869,2.7869,2.7829,2.7816,2.7762,2.676,2.6238,2.6172,2.6131,2.6105,2.6105,2.5569,2.5358,2.5545,2.5077,2.4717,2.4552,2.4253,2.3874,2.3452,2.3389,2.355,2.3883,2.3038,2.258,0.0,2.1759,0.0,0.0,0.0,0.0,0.0,0.0,0.0,0.0,2.4242,2.4853,2.5155,2.5464,2.5651,2.5585,2.5665,2.5718,2.5692,2.5718,2.5745,2.5758,2.6011,2.6265,2.648,2.672,2.6987,2.7188,2.7336,2.7362,2.7349,2.7362,2.7496,2.7762,2.7589,2.7523,2.7762,2.7816,2.7949,2.8272,2.8326,2.8419,2.8684,2.8751,2.8738,2.8791,2.8751,2.8724,2.8711,2.8657,2.8631,2.8657,2.8684,2.8604,2.8353,2.8125,2.7844,2.7443,2.7443,2.7808,3.0025,2.9842,2.9873,2.9731,2.9579,2.9668,2.9337,2.8733,2.8647,2.8764,2.8988,2.8881,2.8801,2.8721,2.8537,2.843,2.8417,2.8177,2.8272,2.8511,2.8245,2.8259,2.8511,2.8524,2.8484,2.8457,2.8628,2.8721,2.8711,2.8764,2.8748,2.8735,2.8551,2.843,2.8417,0.0,0.0,0.0,2.6787,2.6653,2.664,2.6319,2.6091,2.5917,2.581,0.0,2.4852,2.454,2.4196,2.3731,2.3528,0.0,0.0,0.0,0.0,0.0,0.0,0.0,0.0,0.0,0.0,0.0,2.3947,2.4008,2.4253,2.5143,2.5638,2.5464,2.608,2.6386,2.5932,2.656,2.6841,2.6613,2.6787,2.6974,2.6974,2.7015,2.7081,2.7135,2.7188,2.7242,2.7322,2.751,2.7615,2.7642,2.7871,2.8232,2.8698,2.8297,2.8152,2.8364,2.8417,2.8631,2.9152,2.9018,2.9045,2.9442,2.9459,2.9406,2.9553,2.9446,2.9312,2.9299,2.9125,2.8921,2.8921,2.9152,2.9205,2.8925,2.9005,2.8831,2.7843,2.7482,2.7512,3.1049,0.0,3.0782,3.0528,0.0,3.014,2.9887,2.9472,2.9517,2.9472,2.9428,2.9428,2.9268,2.8988,2.8885,2.8831,2.8775,2.8657,2.8671,2.8818,2.8657,2.8671,2.8775,2.8775,2.8775,2.8788,2.8921,2.9001,2.9001,2.9135,2.9259,2.9259,2.9112,2.9045,2.9032,2.8738,2.823,2.7482,2.7188,2.7041,2.7028,2.6613,2.6386,2.6373,0.0,0.0,0.0,0.0,0.0,0.0,0.0,0.0,0.0,0.0,0.0,2.329,2.329,2.3428,2.3756,2.3794,2.424,2.5244,2.5609,2.5741,2.5647,2.6267,2.664,2.6613,2.7134,2.7389,2.7135,2.7362,2.7415,2.7268,2.7309,2.7309,2.7309,2.7309,2.7362,2.7455,2.7482,2.7576,2.7724,2.8005,2.8136,2.8163,2.8404,2.8738,2.9098,2.8751,2.8567,2.8951,2.8855,2.9032,2.9553,2.9593,2.9539,2.9833,2.9793,2.9766,2.9887,2.9806,2.97,2.9686,2.9566,2.9428,2.9486,2.9593,2.9646,2.9513,2.9472,2.9339,2.8671,2.8243,2.7966,3.2313,3.1872,3.1872,3.1383,3.0707,3.0707,3.0681,3.0627,0.0,0.0,0.0,3.0029,2.978,2.9228,2.9175,2.9121,2.9068,2.9015,2.9028,2.9068,2.9015,2.9028,2.9068,2.9112,2.9081,2.9081,2.9135,2.9148,2.9161,2.9446,2.9566,2.9566,2.9566,2.9553,2.9539,2.9272,2.8751,2.8043,2.7682,2.755,2.7536,2.7015,2.6787,2.6974,2.6279,2.5635,2.5059,2.4534,2.3896,2.3195,2.2826,2.2764,2.2972,2.3338,2.3678,2.3967,2.4313,2.4713,2.505,2.5348,2.5793,2.6494,2.708,2.7336,2.7001,2.7255,2.7563,2.7762,2.8138,2.8299,2.8192,2.8085,2.7909,2.7869,2.7696,2.763,2.763,2.7589,2.7722,2.7883,2.7909,2.7949,2.8232,2.8364,2.8524,2.8537,2.8644,2.8975,2.9272,2.9098,2.9045,2.9419,2.9352,2.9348,2.9766,2.9887,2.9913,2.99,2.9913,2.9913,2.9913,2.9913,2.9913,2.9887,2.9913,2.9887,2.99,2.9887,2.9913,2.9913,2.9726,2.9539,2.9446,2.9098,2.8671,3.2554,3.2474,3.2474,3.2246,3.1864,3.1864,3.1717,3.1497,3.0955,3.0715,3.0675,3.0675,3.0488,3.0212,2.9913,2.9659,2.9406,2.9108,2.9135,0.0,2.9108,2.9135,2.9419,2.9419,2.9419,2.9446,2.9673,2.9793,2.9793,2.9833,2.986,2.9847,2.9847,2.9847,2.9833,2.9566,2.9366,2.9219,2.8698,2.8417,2.8417,2.8112,2.7831,2.7589,2.7455,2.7036,2.6377,2.579,2.5334,2.4887,2.4327,2.4023,2.4073,2.4417,2.471,2.4977,2.5259,2.5541,2.5824,2.5888,2.6234,2.6944,2.7676,2.7938,2.7615,2.7884,2.8072,2.8152,2.8604,2.8698,2.8299,2.8564,2.8668,2.8537,2.8615,2.8735,2.8695,2.8681,2.8695,2.8748,2.8631,2.847,2.8511,2.8433,2.8366,2.8299,2.854,2.858,2.9055,2.9442,2.9726,2.9833,2.982,2.9788,2.9887,2.9913,2.9913,2.9913,2.9913,2.9913,2.9913,2.9913,2.9913,2.9913,2.9913,2.9927,2.9927,2.9913,2.9927,2.9927,2.9873,2.9766,2.9566,2.9392,2.9245,3.3013,3.3013,3.3013,3.2839,3.2559,3.2238,3.2024,3.1864,3.1463,3.1169,3.1022,3.1022,3.0782,3.0426,3.0381,3.0234,3.0012,2.998,3.006,3.0167,2.9887,2.982,2.9972,2.9793,2.9713,2.9726,2.9847,2.9913,2.9913,2.9913,2.9913,2.9913,2.9913,2.9913,2.99,2.978,2.9713,2.97,2.9138,2.8801,2.8801,2.8551,2.8337,2.819,2.803,2.7636,2.6902,2.6484,2.601,2.5426,2.5031,2.4838,2.4991,2.5357,2.567,2.5941,2.6299,2.6658,2.6918,2.7231,2.7617,2.8119,2.8422,2.8644,2.8671,2.8834,2.8915,2.8928,2.9272,2.9406,2.9125,2.9219,2.9232,2.9098,2.9028,2.9068,2.9232,2.9081,2.9055,2.9219,2.8975,2.8801,2.8801,2.8858,2.8915,2.8928,2.8978,2.9205,2.9459,2.9726,2.9913,2.99,2.978,2.9766,2.9873,2.9913,2.9913,2.9913,2.9913,2.9913,2.9913,2.9913,2.9913,2.9913,2.9913,2.9993,3.01,3.002,3.0007,3.0114,3.0007,2.986,2.974,2.9713,2.9695,3.3414,3.3414,3.3414,3.324,3.2933,3.2425,3.2198,3.2171,3.2005,3.1744,3.153,3.1383,3.1036,3.0654,3.0795,3.0728,3.056,3.0688,3.0782,3.0768,3.0614,3.0507,3.0421,3.0154,3.002,3.0007,2.9953,2.9913,2.9913,2.9913,2.9913,2.9913,2.9913,2.9913,2.9913,2.9913,2.9913,2.9887,2.9415,2.9228,2.9282,2.9179,2.9045,2.8885,2.8671,2.8249,2.7567,2.7265,2.6837,2.6328,2.6004,2.5952,2.6199,2.6535,2.683,2.7081,2.7463,2.7762,2.8003,2.843,2.8804,2.8975,2.9055,2.9232,2.9459,2.9606,2.9646,2.9619,2.9833,3.0007,2.9953,2.982,2.9731,2.9717,2.9419,2.9308,2.9513,2.9366,2.9268,2.9513,2.9325,2.9095,2.9165,2.9272,2.9325,2.9339,2.9633,2.9806,2.982,2.986,2.9913,2.9873,2.9713,2.9686,2.9873,2.9913,2.9913,2.9913,2.9913,2.9913,2.9913,2.9913,2.9913,2.9913,2.9913,2.998,3.0226,3.0087,3.002,3.014,3.0034,2.9913,2.99,2.9887,2.9936,3.3414,3.3414,3.34,3.324,3.2946,3.2674,3.2541,3.2541,3.2514,3.25,3.238,3.1912,3.1463,3.1169,3.1169,3.1022,3.0768,3.0782,3.0808,3.0808,3.0768,3.0755,3.0728,3.0448,3.0373,3.0333,3.006,2.9953,2.9967,2.994,2.9913,2.9913,2.9913,2.9913,2.9913,2.9927,2.9927,2.9913,2.986,2.9967,3.0279,3.052,3.0341,2.9806,2.9753,2.9442,2.8768,2.8588,2.8385,2.8332,2.7997,2.7906,2.7946,2.8228,2.8358,2.8385,2.8668,2.8855,2.8868,2.8921,2.8988,2.9015,2.9268,2.9428,2.9495,2.998,3.0154,2.9962,3.0154,3.036,3.036,3.0333,3.0279,3.0226,2.9967,2.9847,2.986,2.986,2.9847,2.9873,2.9619,2.9446,2.9432,2.9299,2.9108,2.9175,2.9459,2.9619,2.9633,2.9793,2.9913,2.9913,2.9873,2.9873,2.9913,2.9913,2.9913,2.9913,2.9913,2.9913,2.9913,2.9927,2.9913,2.9913,2.9953,2.9993,2.9993,2.9927,2.994,3.0047,3.0007,2.9913,2.9913,2.9913,2.9918,3.3414,3.34,3.3227,3.3036,3.2768,3.2648,3.2594,3.2594,3.2594,3.2594,3.2567,3.234,3.1979,3.149,3.149,3.133,3.1062,3.1269,3.1363,3.1336,3.1129,3.1049,3.1009,3.0614,3.048,3.0581,3.036,3.0274,3.0381,3.0261,3.0181,3.0154,3.0007,3.0007,3.0154,3.0181,3.0261,3.0434,3.0608,3.0755,3.0808,3.0474,3.0167,2.9953,2.9913,2.9726,2.9352,2.9179,2.9045,2.8871,2.8738,2.8671,2.8671,2.8791,2.8815,2.8841,2.9138,2.9035,2.8463,2.8827,2.9042,2.8943,2.9073,2.9203,2.9372,2.9605,2.9683,2.9651,3.0175,3.0608,3.0621,3.0667,3.06,3.044,3.0293,3.0181,3.0181,3.002,2.9967,3.0114,2.9927,2.974,2.9726,2.9633,2.9522,2.9522,2.9673,2.9713,2.974,2.9847,2.99,2.994,3.006,3.0087,2.9967,2.9913,2.9927,2.9913,2.9913,2.9913,2.9927,3.0087,3.014,2.9953,3.0047,3.0127,3.0253,3.0034,2.994,3.002,2.998,2.9913,2.9913,2.9913,2.9913,3.3467,3.3494,3.3227,3.2986,3.2835,3.2835,3.2737,3.2638,3.2737,3.2737,3.2625,3.2706,3.2487,3.2099,3.1992,3.1784,3.1637,3.181,3.1952,3.1938,3.169,3.1557,3.1423,3.0969,3.0782,3.0849,3.0667,3.0595,3.0755,3.0595,3.0533,3.0448,3.0261,3.0261,3.0493,3.0488,3.0581,3.0782,3.1009,3.1116,3.1022,3.0488,3.0154,3.0154,3.0074,2.99,2.9619,2.9606,2.9513,2.9255,2.9308,2.9362,2.9406,2.9296,2.9216,2.9114,2.9154,2.896,2.8373,2.8829,2.9112,2.9004,2.9009,2.9085,2.9263,2.9377,2.9416,2.9462,3.0145,3.0557,3.0498,3.0637,3.0624,3.0438,3.0396,3.0413,3.0386,3.01,2.9993,3.0181,3.002,2.9913,2.9913,2.9887,2.9873,2.9873,2.9887,2.9913,2.9913,2.9913,2.9913,2.9927,3.0167,3.0306,3.0087,3.0167,3.0127,3.0047,3.006,3.0034,2.9953,3.0127,3.0221,2.9953,3.014,3.0194,3.0127,3.0007,2.994,3.01,3.006,2.9913,2.9913,2.9913,2.9913,3.3587,3.3788,3.3507,3.3284,3.336,3.3284,3.3047,3.2531,3.3097,3.306,3.2644,3.2782,3.2933,3.2817,3.2514,3.2541,3.2514,3.25,3.25,3.25,3.2487,3.2367,3.2051,3.1757,3.1476,3.1276,3.0996,3.0849,3.0862,3.0795,3.0768,3.0768,3.0728,3.0742,3.0768,3.0782,3.0782,3.0816,3.0842,3.0816,3.0789,3.0749,3.0682,3.061,3.0488,3.0207,2.9909,2.9855,2.9855,2.9842,3.0069,3.0274,3.0255,3.0024,2.9669,2.9274,2.882,2.8782,2.9039,2.8996,2.8983,2.9191,2.9149,2.9255,2.925,2.944,2.9554,2.9648,2.9851,2.9984,2.984,3.0225,3.0481,3.0376,3.0399,3.033,3.0341,2.9952,2.9882,2.9864,2.9805,2.9779,2.9869,2.9913,2.9869,2.9869,2.9913,2.9913,2.9913,2.9913,2.9913,2.9967,3.0154,3.04,3.04,3.0461,3.0515,3.0467,3.0287,3.0234,3.006,2.9927,2.994,2.994,3.0034,3.0047,2.9967,2.9927,2.9927,2.998,2.998,2.9913,2.9913,2.9913,2.9913,3.2622,3.2307,3.2539,3.2283,3.1842,3.2011,3.2001,3.1865,3.2232,3.2259,3.2146,3.2206,3.2218,3.2205,3.2101,3.23,3.2559,3.2594,3.2594,3.2594,3.2594,3.2541,3.242,3.2078,3.2011,3.2024,3.177,3.1637,3.157,3.1263,3.1062,3.1036,3.0875,3.0875,3.1036,3.1062,3.1016,3.0873,3.0886,3.0684,3.0363,3.0173,3.0083,3.0117,3.0459,3.0457,2.9972,2.9972,2.9834,2.9513,2.965,2.9715,2.9669,2.9621,2.9314,2.887,2.8926,2.8821,2.8427,2.8517,2.8626,2.858,2.8583,2.8704,2.8816,2.8939,2.9001,2.9013,2.9062,2.9074,2.9168,2.975,3.0119,2.9785,2.9752,2.9605,2.9261,2.908,2.9015,2.9015,2.9015,2.9105,2.9375,2.9451,2.9599,2.9824,2.9913,2.9913,2.9913,2.9913,2.9913,2.9953,3.0167,3.0467,3.0681,3.0702,3.0728,3.0621,3.0515,3.0354,3.0194,3.0127,3.014,2.998,3.0007,3.0034,2.9993,2.9927,2.9913,2.9913,2.9913,2.9913,2.9913,2.9913,2.9913,3.2133,3.1652,3.1939,3.1723,3.1235,3.1463,3.1439,3.1365,3.163,3.1706,3.1617,3.1718,3.1819,3.1819,3.1819,3.1979,3.231,3.2333,3.2333,3.232,3.2241,3.2189,3.2149,3.1899,3.186,3.2004,3.1811,3.1719,3.168,3.1325,3.108,3.1067,3.0839,3.0799,3.0944,3.0891,3.0768,3.0639,3.0678,3.0462,3.0102,2.995,2.9848,2.987,3.0327,3.0318,2.9791,2.9778,2.9626,2.936,2.9377,2.9386,2.9368,2.9258,2.9012,2.8617,2.8703,2.8644,2.817,2.8274,2.8382,2.8354,2.8343,2.8379,2.856,2.8572,2.8572,2.8572,2.8572,2.8572,2.8716,2.9232,2.9547,2.9325,2.9322,2.9174,2.8792,2.8634,2.8545,2.8565,2.8565,2.87,2.8912,2.9092,2.9317,2.9631,2.9779,2.9913,2.9913,2.9913,2.9913,2.994,3.0167,3.044,3.0614,3.0662,3.0755,3.0688,3.056,3.044,3.0274,3.0261,3.0194,3.0034,2.9993,3.0034,3.002,2.994,2.9913,2.9913,2.9913,2.9913,2.9913,2.9913,2.9913,3.2061,3.1731,3.1819,3.1769,3.1668,3.1655,3.1428,3.1162,3.1504,3.1453,3.1174,3.1516,3.1706,3.1769,3.1719,3.1794,3.1781,3.1819,3.1831,3.1868,3.1651,3.1499,3.1536,3.1306,3.1191,3.1154,3.0992,3.0992,3.1065,3.0989,3.0963,3.0878,3.0659,3.0616,3.0547,3.0376,3.0175,3.0153,3.0153,3.0093,3.008,2.9972,2.9911,2.9984,3.0042,2.9801,2.9331,2.9352,2.9331,2.9297,2.95,2.9564,2.9287,2.9103,2.8853,2.8582,2.8173,2.8125,2.8475,2.839,2.8378,2.8524,2.8548,2.8536,2.856,2.8572,2.8572,2.8572,2.8572,2.8572,2.8572,2.8668,2.886,2.9253,2.9146,2.909,2.8972,2.8734,2.8474,2.8384,2.8339,2.8474,2.861,2.8835,2.9137,2.9317,2.9644,2.9913,2.9913,2.9913,2.9913,2.9953,3.01,3.0333,3.048,3.0568,3.0675,3.0715,3.056,3.0386,3.0181,3.0114,3.006,2.994,2.994,2.998,2.998,2.9913,2.9913,2.9913,2.9913,2.9913,2.9913,2.9913,2.9913,3.1553,3.1041,3.1399,3.1396,3.1248,3.126,3.1106,3.1003,3.1209,3.1157,3.1054,3.1157,3.126,3.126,3.126,3.126,3.126,3.1248,3.1473,3.1706,3.168,3.1642,3.1629,3.1603,3.1552,3.1464,3.1299,3.1223,3.1185,3.0983,3.0931,3.0905,3.0806,3.0804,3.0742,3.0489,3.024,2.9925,2.9702,2.9558,2.9321,2.9186,2.9174,2.9321,2.9186,2.8954,2.8855,2.9175,2.9175,2.8878,2.8868,2.8919,2.8824,2.8775,2.8692,2.8596,2.844,2.8367,2.8512,2.8548,2.8464,2.856,2.8572,2.8572,2.8572,2.8572,2.8572,2.8572,2.8572,2.8572,2.8572,2.8572,2.8523,2.8337,2.8283,2.8189,2.7965,2.7661,2.7459,2.748,2.748,2.7616,2.7978,2.8397,2.8841,2.9189,2.9594,2.9864,2.9882,2.9864,2.9913,2.994,3.006,3.0109,3.0197,3.0303,3.0383,3.0455,3.0368,3.0306,3.0114,3.0007,2.994,2.9913,2.9913,2.9913,2.9913,2.9913,2.9913,2.9913,2.9913,2.9913,2.9913,2.9913,2.9913,3.1117,3.0796,3.1106,3.1152,3.0998,3.0998,3.0998,3.0998,3.0998,3.0998,3.0998,3.0998,3.0998,3.0998,3.0998,3.0998,3.0998,3.0998,3.1179,3.1423,3.1388,3.1413,3.1476,3.1401,3.1301,3.1201,3.1039,3.0964,3.0952,3.0752,3.0652,3.0652,3.054,3.0491,3.0466,3.0229,2.9933,2.9652,2.9395,2.9176,2.8971,2.8705,2.8693,2.8946,2.885,2.8777,2.8765,2.9103,2.9054,2.8692,2.8572,2.8572,2.8572,2.862,2.8572,2.8572,2.8572,2.8572,2.8572,2.8572,2.8572,2.8572,2.8572,2.8572,2.8572,2.8572,2.8572,2.8572,2.8572,2.8572,2.8572,2.8572,2.8367,2.8017,2.8027,2.7763,2.7401,2.7186,2.7244,2.7338,2.7256,2.7369,2.7738,2.8186,2.8552,2.8962,2.9372,2.976,2.972,2.9636,2.9641,2.957,2.9545,2.9656,2.9851,2.9936,3.0034,3.0143,3.0167,3.0127,3.0047,2.998,2.9913,2.9913,2.9913,2.9913,2.9913,2.9913,2.9913,2.9913,2.9913,2.9913,2.9913,2.9913,2.9913,3.0781,3.101,3.1022,3.1099,3.1083,3.1095,3.1107,3.1071,3.1083,3.1095,3.1083,3.1119,3.1095,3.1071,3.1131,3.1131,3.1059,3.1107,3.1159,3.1102,3.1009,3.0972,3.1073,3.0915,3.0708,3.0451,3.0351,3.0327,3.0317,3.0293,3.0214,3.023,3.0075,2.9865,2.9917,2.9611,2.9528,2.9491,2.9212,2.9055,2.9091,2.885,2.8789,2.9079,2.9067,2.9031,2.9031,2.9043,2.8922,2.862,2.8572,2.8572,2.8572,2.8572,2.8572,2.8572,2.8572,2.8572,2.8572,2.8476,2.8524,2.8572,2.8572,2.8572,2.8572,2.8572,2.8572,2.8572,2.8572,2.8572,2.8572,2.8572,2.8487,2.8282,2.8137,2.798,2.7824,2.757,2.7534,2.7667,2.7606,2.7522,2.7796,2.8204,2.8449,2.8635,2.9027,2.942,2.9501,2.9384,2.9144,2.9144,2.9254,2.9313,2.9606,2.9671,2.9756,2.9828,2.9937,3.0058,3.0015,2.9953,2.9913,2.9913,2.9913,2.9913,2.9913,2.9913,2.9913,2.9913,2.9913,2.9927,2.9967,3.0007,3.002,3.1046,3.1288,3.1288,3.1409,3.1578,3.1602,3.159,3.159,3.159,3.1553,3.1578,3.159,3.1566,3.159,3.1578,3.159,3.1566,3.1566,3.1602,3.159,3.1541,3.1276,3.1046,3.0938,3.0757,3.0527,3.0479,3.0407,3.0226,3.0214,3.0226,3.0214,3.0153,3.0105,3.0069,2.9851,2.9707,2.9658,2.9429,2.9405,2.9501,2.9308,2.9332,2.9538,2.9405,2.9308,2.9284,2.9115,2.8898,2.8608,2.8572,2.8572,2.8572,2.8572,2.8572,2.8524,2.8236,2.8187,2.8428,2.8236,2.8224,2.8572,2.8572,2.8572,2.8572,2.8572,2.8572,2.8572,2.8572,2.8572,2.8572,2.8572,2.8572,2.8487,2.821,2.7956,2.786,2.7763,2.7739,2.7741,2.7763,2.7775,2.7917,2.8187,2.8526,2.8573,2.8887,2.9267,2.9284,2.9246,2.9018,2.9182,2.9254,2.9287,2.9346,2.941,2.9482,2.9523,2.9729,3.003,3.0,2.994,2.9927,2.9913,2.9913,2.9913,2.9913,2.9913,2.9913,2.9913,2.9913,2.9927,3.0154,3.0293,3.0247,3.1324,3.1566,3.1566,3.1662,3.1807,3.1807,3.1807,3.1807,3.1807,3.1807,3.1807,3.1807,3.1807,3.1807,3.1807,3.1807,3.1807,3.1807,3.1807,3.1807,3.1783,3.1553,3.124,3.1155,3.0974,3.0636,3.0612,3.0455,3.0262,3.0214,3.0274,3.0371,3.0383,3.0443,3.0539,3.0286,3.0129,3.0069,2.9779,2.9646,2.9767,2.9538,2.9562,2.9719,2.9634,2.9574,2.9538,2.932,2.9055,2.8825,2.8644,2.8572,2.8572,2.8572,2.8524,2.8332,2.7935,2.7887,2.7887,2.7839,2.7935,2.8224,2.8428,2.8572,2.8572,2.8572,2.8572,2.8572,2.8572,2.8572,2.8572,2.8572,2.8572,2.8524,2.8343,2.8149,2.8149,2.8053,2.8053,2.8089,2.8065,2.8029,2.8125,2.8386,2.848,2.8599,2.873,2.8961,2.9096,2.8977,2.8927,2.8996,2.9008,2.8902,2.9033,2.919,2.956,2.9602,2.9904,3.0162,3.0153,3.0074,2.9967,2.9967,2.994,2.9927,2.9953,2.994,2.9913,2.9913,2.9913,3.002,3.0279,3.036,3.0373,3.1614,3.1843,3.1819,3.1807,3.1807,3.1807,3.1807,3.1807,3.1807,3.1807,3.1807,3.1807,3.1807,3.1807,3.1807,3.1807,3.1807,3.1807,3.1807,3.1807,3.1795,3.165,3.1469,3.1433,3.1155,3.0757,3.0648,3.0479,3.0286,3.0214,3.0358,3.0503,3.0576,3.0733,3.0817,3.0721,3.0648,3.0527,3.0153,2.9948,2.9936,2.9743,2.9707,2.9839,2.9876,2.9839,2.9779,2.9586,2.9344,2.9115,2.8837,2.8705,2.8657,2.862,2.8296,2.7935,2.7742,2.755,2.732,2.7633,2.7814,2.7959,2.8356,2.8584,2.8632,2.8572,2.8572,2.8572,2.8572,2.8572,2.8572,2.8572,2.8572,2.8572,2.8596,2.856,2.8584,2.8403,2.8343,2.8512,2.8379,2.8403,2.8524,2.8572,2.8596,2.8546,2.8725,2.8747,2.8816,2.8732,2.8693,2.8689,2.8572,2.8445,2.8695,2.8958,2.9473,2.9807,3.0238,3.0498,3.0484,3.0368,3.014,3.006,3.014,3.0114,3.0047,3.002,2.9993,2.9913,2.9913,3.0087,3.0261,3.0247,3.0247,3.206,3.2097,3.1891,3.1807,3.1807,3.1807,3.1807,3.1807,3.1807,3.1807,3.1807,3.1807,3.1807,3.1807,3.1807,3.1807,3.1807,3.1807,3.1807,3.1807,3.1807,3.1783,3.171,3.1686,3.1409,3.101,3.0902,3.066,3.0346,3.0274,3.0358,3.06,3.0696,3.0745,3.0974,3.0986,3.0914,3.0853,3.0576,3.0407,3.0334,3.0153,3.0033,3.0105,3.0105,3.0117,3.0069,2.9864,2.9695,2.9586,2.9357,2.9091,2.8885,2.8498,2.8112,2.7778,2.7405,2.7212,2.7235,2.7592,2.8038,2.7874,2.8415,2.8837,2.8584,2.8572,2.8572,2.8572,2.8572,2.8572,2.8572,2.8572,2.8572,2.8572,2.8572,2.8572,2.856,2.856,2.8512,2.8536,2.8524,2.8512,2.862,2.8572,2.8572,2.8572,2.8608,2.8632,2.8596,2.8547,2.8546,2.8555,2.8509,2.8474,2.8581,2.8928,2.9437,2.993,3.0426,3.0849,3.0836,3.0675,3.0461,3.0394,3.0394,3.0341,3.0261,3.0247,3.0274,3.01,2.9993,3.0221,3.0381,3.0287,3.0354,3.2097,3.2169,3.1916,3.1879,3.1964,3.1867,3.1807,3.1807,3.1807,3.1807,3.1807,3.1807,3.1807,3.1807,3.1807,3.1807,3.1807,3.1807,3.1807,3.1807,3.1807,3.1735,3.1662,3.1698,3.1529,3.1071,3.0998,3.0757,3.0491,3.0431,3.0612,3.095,3.0962,3.1155,3.13,3.1252,3.1179,3.1131,3.0926,3.0745,3.06,3.0479,3.031,3.0238,3.0214,3.0214,3.0189,2.9936,2.9815,2.9731,2.955,2.9284,2.8933,2.8352,2.7871,2.7488,2.7019,2.6729,2.6871,2.7315,2.7726,2.7802,2.8415,2.8632,2.8656,2.8572,2.8572,2.8572,2.8572,2.8572,2.8572,2.8572,2.8572,2.8572,2.8572,2.8572,2.8572,2.8572,2.8572,2.8572,2.8572,2.856,2.8572,2.8572,2.8572,2.8572,2.8572,2.8608,2.8608,2.8572,2.8584,2.8572,2.8608,2.8584,2.8632,2.8968,2.9421,2.9944,3.0497,3.0965,3.1262,3.1029,3.0795,3.0742,3.0688,3.0621,3.0555,3.06,3.0587,3.0474,3.0448,3.0528,3.0581,3.0595,3.0715,3.2024,3.2229,3.1976,3.2012,3.2205,3.2036,3.1928,3.1879,3.1867,3.1867,3.1807,3.1807,3.1807,3.1807,3.1807,3.1807,3.1807,3.1807,3.1807,3.1807,3.1807,3.171,3.1614,3.1662,3.1578,3.1107,3.1083,3.0902,3.0672,3.0684,3.089,3.1288,3.136,3.1457,3.165,3.159,3.1421,3.1324,3.1155,3.0938,3.0745,3.0672,3.0539,3.0346,3.0226,3.0214,3.0177,3.002,2.9876,2.9839,2.9574,2.9308,2.8932,2.8293,2.7704,2.7318,2.7013,2.683,2.6913,2.7253,2.7749,2.7934,2.8392,2.862,2.8596,2.8572,2.8572,2.8572,2.8572,2.8572,2.8572,2.8572,2.8572,2.8572,2.8572,2.8572,2.8572,2.8572,2.8572,2.8572,2.8572,2.8572,2.8572,2.8572,2.8572,2.8572,2.8572,2.8572,2.8572,2.8572,2.8572,2.8572,2.8572,2.8572,2.862,2.8956,2.9423,2.9841,3.0401,3.0912,3.1434,3.1376,3.1109,3.1036,3.0969,3.0902,3.0862,3.0862,3.0849,3.0835,3.0768,3.0715,3.0782,3.0902,3.1022,3.229,3.2507,3.2242,3.2278,3.2495,3.2471,3.2302,3.2145,3.2109,3.2,3.1819,3.1807,3.1807,3.1807,3.1807,3.1807,3.1807,3.1807,3.1807,3.1807,3.1807,3.1735,3.1686,3.1735,3.1602,3.1409,3.1288,3.1059,3.0805,3.0829,3.1107,3.1336,3.1409,3.1566,3.171,3.1735,3.1578,3.1421,3.1336,3.1191,3.0998,3.0853,3.0745,3.0491,3.0322,3.0226,3.0202,3.0177,3.0141,3.0105,2.967,2.9429,2.9186,2.8578,2.8168,2.7926,2.7754,2.7473,2.7413,2.8271,2.8398,2.8221,2.8475,2.8741,2.8681,2.8572,2.8572,2.8572,2.8572,2.8572,2.8572,2.8572,2.8572,2.8572,2.8572,2.8572,2.8572,2.8572,2.8572,2.8572,2.8572,2.8572,2.8572,2.8572,2.8572,2.8572,2.8572,2.8572,2.8572,2.8572,2.8572,2.8572,2.8572,2.8572,2.862,2.9004,2.9423,2.9663,3.0175,3.07,3.1128,3.146,3.1469,3.1343,3.1236,3.1183,3.1156,3.1156,3.1089,3.1049,3.0942,3.0849,3.0969,3.1102,3.1062,3.2145,3.235,3.2109,3.2229,3.2531,3.2435,3.2314,3.2205,3.2193,3.206,3.1867,3.1807,3.1807,3.1807,3.1807,3.1807,3.1807,3.1807,3.1807,3.1807,3.1807,3.171,3.1662,3.1735,3.1529,3.1336,3.1288,3.1288,3.1046,3.1131,3.1324,3.1553,3.1602,3.1614,3.1626,3.1722,3.1614,3.1457,3.1481,3.1457,3.1167,3.0974,3.0721,3.0588,3.0371,3.0226,3.0189,3.0045,2.9996,2.9912,2.9622,2.9441,2.927,2.905,2.8613,2.8285,2.8159,2.8061,2.7919,2.8491,2.8495,2.8355,2.862,2.8705,2.8669,2.8572,2.8584,2.8584,2.8572,2.8572,2.8572,2.8584,2.8572,2.8572,2.8596,2.8596,2.8584,2.8584,2.8608,2.8608,2.8596,2.8596,2.8572,2.8572,2.8572,2.8572,2.8572,2.8572,2.8572,2.8572,2.8572,2.8572,2.8572,2.8572,2.8572,2.886,2.9292,2.9567,2.9949,3.0474,3.0998,3.1379,3.1569,3.1583,3.1517,3.141,3.145,3.1436,3.1343,3.1263,3.1276,3.1263,3.131,3.1276,3.1249,3.1964,3.2181,3.1976,3.2157,3.2507,3.2374,3.2254,3.2205,3.2193,3.206,3.1831,3.1807,3.1807,3.1807,3.1807,3.1807,3.1807,3.1807,3.1843,3.1891,3.1831,3.1674,3.1614,3.1614,3.1578,3.1264,3.1397,3.1409,3.1252,3.1312,3.1469,3.1529,3.1638,3.159,3.1409,3.1469,3.1445,3.1409,3.1493,3.1505,3.1252,3.0877,3.0612,3.0588,3.0358,3.0214,3.0189,3.0057,2.996,2.9876,2.9682,2.9489,2.9489,2.9477,2.9183,2.8646,2.8393,2.8395,2.8522,2.8611,2.8821,2.8752,2.8765,2.8789,2.8729,2.8753,2.8717,2.8705,2.8632,2.8729,2.8813,2.8741,2.8765,2.8813,2.8777,2.8729,2.8729,2.8741,2.8777,2.8753,2.8717,2.8681,2.862,2.8572,2.8572,2.8572,2.8572,2.8572,2.8572,2.8572,2.8572,2.8572,2.8572,2.8572,2.8572,2.8572,2.9052,2.9423,2.9854,3.0379,3.0856,3.1331,3.1534,3.1738,3.1698,3.1583,3.1698,3.1724,3.1604,3.1517,3.1671,3.1671,3.1564,3.1524,3.1476,3.1964,3.2193,3.2157,3.2326,3.2555,3.2531,3.2398,3.2205,3.2193,3.2048,3.1807,3.1807,3.1807,3.1807,3.1807,3.1807,3.1807,3.1819,3.1904,3.2,3.1891,3.1771,3.1735,3.1783,3.159,3.1312,3.1529,3.1445,3.1215,3.1264,3.1288,3.1252,3.136,3.13,3.1083,3.1155,3.095,3.0805,3.0986,3.1107,3.1022,3.0769,3.0636,3.0539,3.0371,3.0214,3.0214,3.0141,3.0129,3.0105,2.9888,2.9767,2.9743,2.9743,2.9743,2.9619,2.9581,2.9581,2.9509,2.9411,2.9341,2.9211,2.9236,2.9296,2.92,2.9055,2.8958,2.891,2.8801,2.885,2.9103,2.9067,2.9115,2.9163,2.9188,2.9103,2.9043,2.8982,2.9006,2.9019,2.897,2.8813,2.8669,2.862,2.8572,2.8572,2.8572,2.8572,2.8572,2.8572,2.8572,2.8572,2.8572,2.8572,2.8572,2.8572,2.8764,2.9232,2.9758,3.0236,3.0678,3.118,3.1635,3.173,3.1778,3.1791,3.1757,3.1757,3.1751,3.1724,3.1724,3.1724,3.1711,3.1698,3.1637,3.1867,3.1976,3.1976,3.2133,3.235,3.2374,3.2314,3.2217,3.2193,3.2048,3.1843,3.1807,3.1807,3.1807,3.1807,3.1807,3.1807,3.1807,3.1855,3.1952,3.1855,3.1722,3.1626,3.1698,3.1614,3.1276,3.124,3.1107,3.0986,3.1155,3.13,3.1203,3.1155,3.1034,3.0817,3.0926,3.0829,3.0769,3.0853,3.0998,3.0938,3.0757,3.0612,3.06,3.0346,3.0238,3.0226,3.0214,3.0214,3.0202,3.0069,3.0045,3.0033,3.0033,3.0033,3.0033,3.0033,2.996,2.9815,2.9803,2.967,2.9501,2.9417,2.9381,2.9381,2.932,2.9236,2.9236,2.909,2.9212,2.9344,2.9296,2.932,2.9381,2.9477,2.9393,2.9308,2.932,2.932,2.9272,2.9224,2.9079,2.8922,2.8741,2.8669,2.8572,2.8572,2.8572,2.8572,2.8572,2.8572,2.8572,2.8572,2.8572,2.8572,2.8572,2.862,2.904,2.971,3.014,3.0513,3.0968,3.1524,3.1971,3.2152,3.2064,3.1931,3.181,3.173,3.1738,3.1724,3.1724,3.1724,3.1724,3.1698,3.1807,3.1807,3.1807,3.1928,3.2097,3.2097,3.2097,3.2097,3.2097,3.1988,3.1855,3.1807,3.1807,3.1807,3.1807,3.1807,3.1807,3.1807,3.1807,3.1795,3.171,3.1529,3.1409,3.1457,3.1336,3.0902,3.1034,3.095,3.0914,3.0974,3.1095,3.1107,3.0926,3.0757,3.0624,3.0636,3.0624,3.0515,3.0648,3.0745,3.0721,3.0588,3.0515,3.0443,3.0346,3.0199,3.0298,3.0322,3.0322,3.0443,3.0455,3.0443,3.0443,3.0443,3.0383,3.0371,3.0371,3.0274,3.0069,2.9924,2.9791,2.9682,2.9586,2.9646,2.9526,2.9501,2.9501,2.9501,2.9381,2.9441,2.9562,2.9574,2.9586,2.9634,2.967,2.9586,2.9538,2.961,2.961,2.9526,2.9477,2.9429,2.9248,2.8946,2.8777,2.862,2.8572,2.8584,2.8572,2.8572,2.8572,2.8572,2.8572,2.8572,2.8572,2.862,2.862,2.886,2.9519,3.0093,3.0465,3.1038,3.1614,3.204,3.2296,3.2225,3.2011,3.1877,3.1757,3.1751,3.1724,3.1724,3.1724,3.1724,3.1724,3.1807,3.1807,3.1807,3.1831,3.1855,3.1831,3.1843,3.1867,3.1855,3.1843,3.1819,3.1807,3.1807,3.1807,3.1807,3.1807,3.1807,3.1807,3.1807,3.1722,3.1541,3.1324,3.1191,3.1083,3.0974,3.0721,3.0817,3.0926,3.0877,3.0672,3.0576,3.0346,3.0588,3.0467,3.0395,3.0431,3.0443,3.0358,3.0395,3.0358,3.0358,3.0298,3.0286,3.0274,3.0262,3.0322,3.0552,3.0503,3.0588,3.0769,3.0769,3.0817,3.0781,3.0805,3.0733,3.0648,3.0721,3.0576,3.031,3.0177,3.0165,3.0153,3.0093,2.996,2.9803,2.9779,2.9767,2.9755,2.9646,2.9719,2.9876,2.9972,2.9888,2.9924,2.9924,2.9876,2.9876,2.9972,2.9948,2.9815,2.9743,2.9695,2.9586,2.9344,2.9091,2.8934,2.8693,2.8681,2.8596,2.8572,2.8572,2.8572,2.8572,2.8572,2.8572,2.862,2.8668,2.886,2.9375,2.9949,3.0487,3.1112,3.1671,3.1917,3.2093,3.211,3.2104,3.1998,3.1877,3.1791,3.1724,3.1724,3.1724,3.1724,3.1724,3.1807,3.1807,3.1807,3.1807,3.1807,3.1807,3.1807,3.1807,3.1807,3.1807,3.1807,3.1807,3.1807,3.1807,3.1807,3.1807,3.1807,3.1807,3.1795,3.171,3.1517,3.1252,3.1083,3.0862,3.0805,3.0425,3.0573,3.0648,3.0479,3.0416,3.0491,3.0443,3.0455,3.0443,3.0407,3.0443,3.0431,3.0383,3.0286,3.0214,3.0214,3.0214,3.0214,3.0214,3.0214,3.0262,3.0346,3.0358,3.0527,3.0708,3.0793,3.0902,3.1034,3.1046,3.0974,3.0877,3.0986,3.0817,3.0552,3.0431,3.0395,3.0226,3.0202,3.0165,3.0033,3.0045,3.0057,3.0008,2.9948,3.0008,3.0081,3.0117,3.0093,3.0177,3.0189,3.0129,3.0129,3.0177,3.0177,2.9996,2.9972,2.996,2.9839,2.9682,2.9429,2.92,2.8994,2.8765,2.8681,2.8608,2.8608,2.8584,2.8572,2.8572,2.8572,2.862,2.8668,2.8908,2.9196,2.9675,3.0166,3.0972,3.1491,3.1711,3.1992,3.215,3.2171,3.2118,3.1998,3.181,3.1764,3.1724,3.1724,3.1751,3.1738,3.1807,3.1807,3.1807,3.1807,3.1807,3.1807,3.1807,3.1807,3.1807,3.1807,3.1807,3.1807,3.1807,3.1795,3.1698,3.1674,3.1626,3.1578,3.1553,3.1421,3.124,3.1059,3.0782,3.0259,2.9641,2.9652,2.9687,2.9632,2.9487,3.0041,3.0392,3.0515,3.0527,3.0612,3.066,3.0636,3.0576,3.0443,3.0334,3.0214,3.0214,3.0214,3.0214,3.0214,3.0214,3.0298,3.0358,3.0431,3.06,3.0805,3.0938,3.1022,3.1155,3.1228,3.1191,3.1167,3.1155,3.1071,3.0805,3.0539,3.0419,3.025,3.0214,3.0214,3.0214,3.0226,3.0177,3.0189,3.0189,3.0214,3.0214,3.0189,3.0177,3.0214,3.0214,3.0177,3.0177,3.0214,3.0214,3.0153,3.0153,3.0117,3.0069,2.9912,2.967,2.9429,2.9236,2.9031,2.8813,2.8741,2.8729,2.8681,2.8572,2.8572,2.8572,2.862,2.862,2.8668,2.8956,2.9184,2.9738,3.0565,3.1224,3.1504,3.1798,3.2155,3.2185,3.2038,3.1944,3.1851,3.1925,3.2019,3.1898,3.1925,3.1818,3.1807,3.1807,3.1807,3.1807,3.1807,3.1807,3.1807,3.1807,3.1807,3.1807,3.1807,3.1807,3.1807,3.1747,3.1578,3.1481,3.1409,3.1215,3.1131,3.1119,3.0986,3.0733,3.0141,2.9469,2.8743,2.8176,2.8361,2.8504,2.8316,2.9738,3.0374,3.0708,3.0817,3.0914,3.095,3.0721,3.0491,3.0274,3.025,3.0214,3.0214,3.0214,3.0214,3.0214,3.0214,3.0298,3.0395,3.0443,3.066,3.1046,3.1143,3.1312,3.1602,3.1662,3.159,3.1409,3.1614,3.1469,3.1034,3.0539,3.0358,3.0346,3.0395,3.0358,3.0286,3.0262,3.0286,3.0334,3.0274,3.025,3.0226,3.0214,3.0214,3.0214,3.0214,3.0214,3.0214,3.0214,3.0214,3.0214,3.0214,3.0202,3.0202,3.0129,2.9888,2.9658,2.9465,2.9272,2.9018,2.8801,2.8753,2.8765,2.8644,2.8572,2.8572,2.8572,2.862,2.8632,2.8728,2.8933,2.9318,3.0032,3.0616,3.1114,3.1487,3.1763,3.184,3.1904,3.2024,3.2246,3.2367,3.2407,3.2246,3.2078,3.2059,3.1807,3.1807,3.1807,3.1807,3.1807,3.1807,3.1807,3.1807,3.1807,3.1807,3.1807,3.1807,3.1807,3.1722,3.1541,3.1384,3.1336,3.1143,3.1046,3.1191,3.0938,3.1034,3.0477,2.9318,2.8283,2.8186,2.812,2.8032,2.8091,2.9718,3.0494,3.0829,3.1083,3.1131,3.0974,3.0757,3.0539,3.0455,3.0334,3.0214,3.0226,3.0238,3.0238,3.0238,3.0238,3.0286,3.0371,3.0383,3.0672,3.1095,3.1167,3.1384,3.171,3.1807,3.1759,3.1662,3.1795,3.1638,3.1288,3.0938,3.0757,3.0733,3.0684,3.0684,3.0733,3.0733,3.0648,3.0515,3.0479,3.0407,3.0262,3.0226,3.0214,3.0214,3.0214,3.0214,3.0214,3.0214,3.0214,3.0214,3.0214,3.0214,3.0214,3.0214,3.0033,2.9851,2.9658,2.9489,2.9296,2.8873,2.8669,2.8801,2.8789,2.8632,2.8584,2.8705,2.8753,2.8813,2.8777,2.8765,2.9199,2.9622,2.9838,3.0235,3.0785,3.1286,3.1604,3.1928,3.2385,3.2648,3.2714,3.2688,3.2527,3.2447,3.242,3.154,3.1207,3.1207,3.0998,3.0831,3.1082,3.1047,3.0779,3.0993,3.0993,3.0779,3.1314,3.154,3.1338,3.137,3.1384,3.1348,3.1022,3.0998,3.1167,3.0865,3.0914,3.0501,2.9472,2.8629,2.8438,2.8405,2.8316,2.8443,2.9894,3.081,3.124,3.1336,3.1203,3.1022,3.0829,3.0757,3.0708,3.0612,3.0539,3.0539,3.0515,3.0467,3.0407,3.0358,3.0334,3.0274,3.0358,3.0539,3.089,3.1143,3.1336,3.1674,3.1807,3.1807,3.1807,3.1795,3.1698,3.1517,3.1421,3.1288,3.1276,3.1131,3.101,3.0998,3.0938,3.0877,3.0793,3.0745,3.0588,3.0419,3.0371,3.0334,3.0334,3.0334,3.0346,3.0419,3.0431,3.0334,3.0322,3.0226,3.0226,3.0214,3.0214,3.0153,2.9996,2.9839,2.9682,2.9513,2.9151,2.8825,2.897,2.8994,2.891,2.891,2.8994,2.9019,2.9019,2.891,2.8741,2.8897,2.9282,2.9329,2.9519,3.0383,3.1116,3.1513,3.1978,3.247,3.2835,3.2982,3.2915,3.2768,3.2741,3.2741,3.1047,3.0071,3.0006,2.9549,2.8945,2.9612,2.9308,2.849,2.9565,2.9404,2.8544,3.0714,3.0981,3.0442,3.0964,3.1267,3.1252,3.0841,3.089,3.0877,3.0721,3.0829,3.0454,2.942,2.8815,2.8756,2.8726,2.8723,2.9002,3.0352,3.132,3.1541,3.1421,3.1276,3.1107,3.1034,3.095,3.0853,3.0853,3.0817,3.0829,3.089,3.0769,3.0672,3.0612,3.0527,3.0479,3.0539,3.0757,3.1022,3.1252,3.1517,3.171,3.1807,3.1807,3.1807,3.1807,3.1783,3.1759,3.1698,3.171,3.1602,3.1324,3.1119,3.1095,3.1167,3.1131,3.1059,3.0998,3.0829,3.0684,3.0612,3.0552,3.0552,3.0552,3.0624,3.0721,3.0684,3.0564,3.0455,3.0298,3.0238,3.0214,3.0214,3.0214,3.0141,2.9996,2.9924,2.9743,2.9465,2.926,2.9296,2.9284,2.9188,2.9188,2.9188,2.9163,2.9127,2.8946,2.8813,2.8922,2.8957,2.9017,2.9388,3.0236,3.0986,3.1754,3.2261,3.2625,3.2915,3.312,3.3133,3.3013,3.3036,3.3009,3.0393,3.0006,2.9189,2.8641,2.8371,2.7821,2.7789,2.8328,2.8705,2.8544,2.8382,2.8974,2.9619,3.0067,2.9995,3.0552,3.081,3.0829,3.0902,3.0877,3.0865,3.1022,3.0667,2.983,2.9102,2.8954,2.9052,2.9256,2.9281,3.0593,3.1288,3.1203,3.1409,3.1336,3.1276,3.1264,3.1059,3.0926,3.0986,3.1059,3.1059,3.1071,3.0974,3.0926,3.089,3.0805,3.0781,3.0805,3.1022,3.124,3.1336,3.1529,3.1771,3.1807,3.1807,3.1807,3.1807,3.1807,3.1807,3.1807,3.1807,3.1807,3.1614,3.1614,3.1578,3.1505,3.1433,3.1348,3.1228,3.1071,3.089,3.0793,3.0757,3.0745,3.0721,3.0708,3.0781,3.0708,3.0588,3.0395,3.0238,3.0238,3.0214,3.0214,3.0214,3.0189,3.0153,3.0081,2.9948,2.967,2.9598,2.9634,2.9526,2.9405,2.9308,2.9272,2.9272,2.9224,2.9091,2.9019,2.9055,2.9079,2.8933,2.9389,3.0354,3.1294,3.2213,3.2585,3.2808,3.308,3.332,3.332,3.3307,3.324,3.3213,2.9845,2.9254,2.8113,2.7357,2.688,2.623,2.6339,2.6989,2.7411,2.7411,2.7087,2.7951,2.8446,2.8499,2.8814,2.9554,3.0587,3.0316,3.0449,3.1167,3.0974,3.1095,3.0791,3.0411,3.0187,2.9914,3.0006,3.0354,3.0185,3.0723,3.1445,3.124,3.1421,3.1372,3.1336,3.1372,3.1324,3.1203,3.1179,3.1276,3.13,3.1223,3.1264,3.1115,3.1103,3.1119,3.1046,3.1031,3.1252,3.1409,3.1445,3.1626,3.1807,3.1807,3.1807,3.1807,3.1807,3.1807,3.1807,3.1807,3.1807,3.1807,3.1807,3.1783,3.1771,3.1722,3.1662,3.1578,3.1445,3.1312,3.1119,3.0962,3.095,3.0926,3.0841,3.0757,3.0708,3.066,3.0491,3.0286,3.0214,3.0214,3.0214,3.0214,3.0214,3.0202,3.0202,3.0177,3.0045,2.9827,2.9827,2.9924,2.9767,2.961,2.9526,2.9489,2.9513,2.9526,2.9441,2.937,2.9334,2.9542,2.9724,3.0063,3.057,3.1555,3.2528,3.2706,3.2929,3.32,3.3414,3.3387,3.3374,3.336,3.3347,2.893,2.7886,2.6816,2.5796,2.4936,2.4936,2.4991,2.4936,2.6013,2.5905,2.5471,2.6978,2.7156,2.6858,2.7578,2.8754,2.958,2.9651,2.9932,3.108,3.009,2.9915,3.0078,3.075,2.9857,3.067,3.1183,3.0861,3.1362,3.1439,3.1189,3.1286,3.1372,3.123,3.0939,3.1153,3.11,3.0981,3.1106,3.1302,3.1497,3.1575,3.1527,3.1258,3.1238,3.1231,3.1111,3.1211,3.1421,3.1517,3.1626,3.1783,3.1807,3.1807,3.1807,3.1807,3.1807,3.1807,3.1807,3.1807,3.1807,3.1807,3.1807,3.1807,3.1807,3.1807,3.1747,3.1722,3.159,3.1529,3.1384,3.1191,3.1119,3.1131,3.1095,3.0998,3.0926,3.0817,3.0624,3.0443,3.0346,3.0334,3.0214,3.0214,3.0214,3.0214,3.0214,3.0214,3.0141,2.996,3.0008,3.0129,2.9996,2.9864,2.9912,2.9876,2.9851,2.9827,2.9707,2.9785,2.9751,3.0168,3.0649,3.094,3.1192,3.1914,3.2692,3.2843,3.2986,3.3253,3.3414,3.3414,3.3414,3.3427,3.3414,2.5608,2.5454,2.4861,2.4437,2.4283,2.4719,2.461,2.4283,2.4991,2.4882,2.4446,2.4818,2.5205,2.5443,2.6538,2.776,2.8872,2.8556,2.9088,2.9178,2.8664,2.8395,2.7866,2.8976,2.8689,2.8477,2.9243,3.0677,3.0523,3.0473,3.0488,3.0407,3.05,3.0372,3.0404,3.0637,3.0614,3.0586,3.0549,3.0779,3.0993,3.0672,3.0453,3.0567,3.0704,3.0947,3.1035,3.1348,3.1592,3.1747,3.1759,3.1807,3.1807,3.1807,3.1807,3.1807,3.1807,3.1807,3.1807,3.1807,3.1807,3.1807,3.1807,3.1807,3.1807,3.1807,3.1807,3.1783,3.1735,3.1686,3.1626,3.1433,3.1312,3.1324,3.1324,3.1228,3.1131,3.095,3.0769,3.066,3.0539,3.0431,3.031,3.0238,3.0214,3.0214,3.0214,3.0214,3.0226,3.0129,3.0117,3.0202,3.0189,3.0129,3.0177,3.0129,3.0033,2.9888,2.9743,2.9921,3.0194,3.0961,3.1672,3.1664,3.1943,3.2524,3.2891,3.291,3.3106,3.3387,3.348,3.3521,3.3494,3.3494,3.344,2.4359,2.4384,2.3791,2.3547,2.3674,2.3956,2.3901,2.3683,2.3956,2.3792,2.3401,2.3719,2.3973,2.3963,2.4883,2.6228,2.7313,2.6942,2.8089,2.8379,2.7674,2.7525,2.7481,2.7565,2.7845,2.776,2.8501,2.9378,2.8956,2.8695,2.8576,2.9004,2.9176,2.9435,2.9712,2.9949,2.9975,3.0124,2.9814,2.9856,3.0178,3.0082,3.0082,3.0243,3.035,3.0565,3.0726,3.1047,3.1314,3.1528,3.1635,3.1807,3.1807,3.1807,3.1807,3.1807,3.1807,3.1807,3.1807,3.1807,3.1807,3.1807,3.1807,3.1807,3.1807,3.1807,3.1807,3.1771,3.159,3.1529,3.1626,3.1517,3.1517,3.1541,3.1409,3.1276,3.1143,3.0986,3.089,3.0853,3.0781,3.0757,3.0624,3.0491,3.0455,3.0383,3.0358,3.0226,3.0238,3.031,3.0298,3.0298,3.031,3.025,3.0202,3.0153,3.0081,2.9936,2.9853,3.0464,3.1077,3.1993,3.2659,3.2639,3.2673,3.2954,3.3207,3.3227,3.3334,3.3614,3.3668,3.3654,3.3614,3.3601,3.3561,2.3762,2.3773,2.3108,2.2861,2.301,2.3073,2.3073,2.3018,2.3018,2.2644,2.2206,2.3027,2.2971,2.2641,2.2884,2.4074,2.4842,2.4933,2.6584,2.7471,2.7189,2.6017,2.6071,2.6973,2.6825,2.6986,2.7542,2.7215,2.6684,2.6644,2.6961,2.7471,2.7984,2.8403,2.9023,2.9399,2.9319,2.9104,2.8888,2.8931,2.9211,2.9599,2.9706,2.9814,2.9921,2.9975,3.0136,3.0511,3.0821,3.1142,3.1474,3.17,3.1807,3.1807,3.1807,3.1807,3.1807,3.1807,3.1807,3.1807,3.1807,3.1807,3.1807,3.1807,3.1807,3.1807,3.1807,3.1735,3.1553,3.1517,3.1626,3.1674,3.1698,3.1698,3.1517,3.1397,3.1252,3.1119,3.1107,3.1083,3.1046,3.1034,3.0902,3.0757,3.066,3.0588,3.0479,3.0334,3.0262,3.0383,3.0443,3.0467,3.0491,3.0407,3.0262,3.0226,3.0177,3.037,3.0448,3.12,3.1997,3.2823,3.338,3.3529,3.3604,3.3697,3.3617,3.3587,3.3734,3.3895,3.3801,3.3788,3.3895,3.3855,3.3761,2.1448,2.1724,2.2028,2.2255,2.2463,2.2854,2.2863,2.248,2.2425,2.1878,2.1164,2.1,2.0991,2.1005,2.2541,2.3458,2.3481,2.3395,2.3647,2.45,2.4397,2.3421,2.3447,2.4851,2.4835,2.5215,2.5595,2.5407,2.4863,2.5026,2.5298,2.5575,2.6559,2.66,2.6048,2.6749,2.7711,2.77,2.7896,2.7939,2.8576,2.8792,2.8684,2.8899,2.9158,2.9265,2.9641,3.0393,3.0767,3.1088,3.1421,3.17,3.1807,3.1807,3.1807,3.1807,3.1807,3.1807,3.1807,3.1807,3.1807,3.1807,3.1807,3.1807,3.1807,3.1807,3.1807,3.1807,3.1698,3.1698,3.1759,3.1759,3.1771,3.1771,3.1674,3.1662,3.159,3.1541,3.1505,3.1421,3.1312,3.1228,3.1083,3.0962,3.0853,3.0769,3.0648,3.0515,3.0395,3.0491,3.0624,3.0648,3.0684,3.0491,3.0322,3.0334,3.0361,3.0617,3.1098,3.1857,3.2647,3.3493,3.394,3.4015,3.4148,3.4282,3.4162,3.3881,3.4068,3.4175,3.3961,3.3908,3.4068,3.4135,3.4055]},{"header":{"parameterUnit":"m.s-1","parameterCategory":1,"la1":31.0,"la2":29.5877,"lo1":-88.7671,"lo2":-86.6584,"dy":0.0162,"dx":0.0185,"nx":115,"ny":88,"refTime":"2023-09-29T12:00:00:Z","depth":0,"parameterNumber":3,"parameterNumberName":"V-component_of_WINDS"},"data":[0.0,0.0,0.0,0.0,0.0,0.0,0.0,0.0,0.0,0.0,0.0,0.0,0.0,0.0,0.0,0.0,0.0,0.0,0.0,0.0,0.0,0.0,0.0,0.0,0.0,0.0,0.0,0.0,0.0,0.0,0.0,0.0,0.0,0.0,0.0,0.0,0.0,0.0,0.0,0.0,0.0,0.0,0.0,0.0,0.0,0.0,0.0,0.0,0.0,0.0,0.0,0.0,0.0,0.0,0.0,0.0,0.0,0.0,0.0,0.0,0.0,0.0,0.0,0.0,0.0,0.0,0.0,0.0,0.0,0.0,0.0,0.0,0.0,0.0,0.0,0.0,0.0,0.0,0.0,0.0,0.0,0.0,0.0,0.0,0.0,0.0,0.0,0.0,0.0,0.0,0.0,0.0,0.0,0.0,0.0,0.0,0.0,0.0,0.0,0.0,0.0,0.0,0.0,0.0,0.0,0.0,0.0,0.0,0.0,0.0,0.0,0.0,0.0,0.0,0.0,0.0,0.0,0.0,0.0,0.0,0.0,0.0,0.0,0.0,0.0,0.0,0.0,0.0,0.0,0.0,0.0,0.0,0.0,0.0,0.0,0.0,0.0,0.0,0.0,0.0,0.0,0.0,0.0,0.0,0.0,0.0,0.0,0.0,0.0,0.0,0.0,0.0,0.0,0.0,0.0,0.0,0.0,0.0,0.0,0.0,0.0,0.0,0.0,0.0,0.0,0.0,0.0,0.0,0.0,0.0,0.0,0.0,0.0,0.0,0.0,0.0,0.0,0.0,0.0,0.0,0.0,0.0,0.0,0.0,0.0,0.0,0.0,0.0,0.0,0.0,0.0,0.0,0.0,0.0,0.0,0.0,0.0,0.0,0.0,0.0,0.0,0.0,0.0,0.0,0.0,0.0,0.0,0.0,0.0,0.0,0.0,0.0,0.0,0.0,0.0,0.0,0.0,0.0,0.0,0.0,0.0,0.0,0.0,0.0,0.0,0.0,0.0,0.0,0.0,0.0,0.0,0.0,0.0,0.0,0.0,0.0,0.0,0.0,0.0,0.0,0.0,0.0,0.0,0.0,0.0,0.0,0.0,0.0,0.0,0.0,0.0,0.0,0.0,0.0,0.0,0.0,0.0,0.0,0.0,0.0,0.0,0.0,0.0,0.0,0.0,0.0,0.0,0.0,0.0,0.0,0.0,0.0,0.0,0.0,0.0,0.0,0.0,0.0,0.0,0.0,0.0,0.0,0.0,0.0,0.0,0.0,0.0,0.0,0.0,0.0,0.0,0.0,0.0,0.0,0.0,0.0,0.0,0.0,0.0,0.0,0.0,0.0,0.0,0.0,0.0,0.0,0.0,0.0,0.0,0.0,0.0,0.0,0.0,0.0,0.0,0.0,0.0,0.0,0.0,0.0,0.0,0.0,0.0,0.0,0.0,0.0,0.0,0.0,0.0,0.0,0.0,0.0,0.0,0.0,0.0,0.0,0.0,0.0,0.0,0.0,0.0,0.0,0.0,0.0,0.0,0.0,0.0,0.0,0.0,0.0,0.0,0.0,0.0,0.0,0.0,0.0,0.0,0.0,0.0,0.0,0.0,0.0,0.0,0.0,0.0,0.0,0.0,0.0,0.0,0.0,0.0,0.0,0.0,0.0,0.0,0.0,0.0,0.0,0.0,0.0,0.0,0.0,0.0,0.0,0.0,0.0,0.0,0.0,0.0,0.0,0.0,0.0,0.0,0.0,0.0,0.0,0.0,0.0,0.0,0.0,0.0,0.0,0.0,0.0,0.0,0.0,0.0,0.0,0.0,0.0,0.0,0.0,0.0,0.0,0.0,0.0,0.0,0.0,0.0,0.0,0.0,0.0,0.0,0.0,0.0,0.0,0.0,0.0,0.0,0.0,0.0,0.0,0.0,0.0,0.0,0.0,0.0,0.0,0.0,0.0,0.0,0.0,0.0,0.0,0.0,0.0,0.0,0.0,0.0,0.0,0.0,0.0,0.0,0.0,0.0,0.0,0.0,0.0,0.0,0.0,0.0,0.0,0.0,0.0,0.0,0.0,0.0,0.0,0.0,0.0,0.0,0.0,0.0,0.0,0.0,0.0,0.0,0.0,0.0,0.0,0.0,0.0,0.0,0.0,0.0,0.0,0.0,0.0,0.0,0.0,0.0,0.0,0.0,0.0,0.0,0.0,0.0,0.0,0.0,0.0,0.0,0.0,0.0,0.0,0.0,0.0,0.0,0.0,0.0,0.0,0.0,0.0,0.0,0.0,0.0,0.0,0.0,0.0,0.0,0.0,0.0,0.0,0.0,0.0,0.0,0.0,0.0,0.0,0.0,0.0,0.0,0.0,0.0,0.0,0.0,0.0,0.0,0.0,0.0,0.0,0.0,0.0,0.0,0.0,0.0,0.0,0.0,0.0,0.0,0.0,0.0,0.0,0.0,0.0,0.0,0.0,0.0,0.0,0.0,0.0,0.0,0.0,0.0,0.0,0.0,0.0,0.0,0.0,0.0,0.0,0.0,0.0,0.0,0.0,0.0,0.0,0.0,0.0,0.0,0.0,0.0,0.0,0.0,0.0,0.0,0.0,0.0,0.0,0.0,0.0,0.0,0.0,0.0,0.0,0.0,0.0,0.0,0.0,0.0,0.0,0.0,0.0,0.0,0.0,0.0,0.0,0.0,0.0,0.0,0.0,0.0,0.0,0.0,0.0,0.0,0.0,0.0,0.0,0.0,0.0,0.0,0.0,0.0,0.0,0.0,0.0,0.0,0.0,0.0,0.0,0.0,0.0,0.0,0.0,0.0,0.0,0.0,0.0,0.0,0.0,0.0,0.0,0.0,0.0,0.0,0.0,0.0,0.0,0.0,0.0,0.0,0.0,0.0,0.0,0.0,0.0,0.0,0.0,0.0,0.0,0.0,0.0,0.0,0.0,0.0,0.0,0.0,0.0,0.0,0.0,0.0,0.0,0.0,0.0,0.0,0.0,0.0,0.0,0.0,0.0,0.0,0.0,0.0,0.0,0.0,0.0,0.0,0.0,0.0,0.0,0.0,0.0,0.0,0.0,0.0,0.0,0.0,0.0,0.0,0.0,0.0,0.0,0.0,0.0,0.0,0.0,0.0,0.0,0.0,0.0,0.0,0.0,0.0,0.0,0.0,0.0,0.0,0.0,0.0,0.0,0.0,0.0,0.0,0.0,0.0,0.0,0.0,0.0,0.0,0.0,0.0,0.0,0.0,0.0,0.0,0.0,0.0,0.0,0.0,0.0,0.0,0.0,0.0,0.0,0.0,0.0,0.0,0.0,0.0,0.0,0.0,0.0,0.0,0.0,0.0,0.0,0.0,0.0,0.0,0.0,0.0,0.0,0.0,0.0,0.0,0.0,0.0,0.0,0.0,0.0,0.0,0.0,0.0,0.0,0.0,0.0,0.0,0.0,0.0,0.0,0.0,0.0,0.0,0.0,0.0,0.0,0.0,0.0,0.0,0.0,0.0,0.0,0.0,0.0,0.0,0.0,0.0,0.0,0.0,0.0,0.0,0.0,0.0,0.0,0.0,0.0,0.0,0.0,0.0,0.0,0.0,0.0,0.0,0.0,0.0,0.0,0.0,0.0,0.0,0.0,0.0,0.0,0.0,0.0,0.0,0.0,0.0,0.0,0.0,0.0,0.0,0.0,0.0,0.0,0.0,0.0,0.0,0.0,0.0,0.0,0.0,0.0,0.0,0.0,0.0,0.0,0.0,0.0,0.0,0.0,0.0,0.0,0.0,0.0,0.0,0.0,0.0,0.0,0.0,0.0,0.0,0.0,0.0,0.0,0.0,0.0,0.0,0.0,0.0,0.0,0.0,0.0,0.0,0.0,0.0,0.0,0.0,0.0,0.0,0.0,0.0,0.0,0.0,0.0,0.0,0.0,0.0,0.0,0.0,0.0,0.0,0.0,0.0,0.0,0.0,0.0,0.0,0.0,0.0,0.0,0.0,0.0,0.0,0.0,0.0,0.0,0.0,0.0,0.0,0.0,0.0,0.0,0.0,0.0,0.0,0.0,0.0,0.0,0.0,0.0,0.0,0.0,0.0,0.0,0.0,0.0,0.0,0.0,0.0,0.0,0.0,0.0,0.0,0.0,0.0,0.0,0.0,0.0,0.0,0.0,0.0,0.0,0.0,0.0,0.0,0.0,0.0,0.0,0.0,0.0,0.0,0.0,0.0,0.0,0.0,0.0,0.0,0.0,0.0,0.0,0.0,0.0,0.0,0.0,0.0,0.0,3.3807,0.0,0.0,0.0,0.0,0.0,0.0,0.0,0.0,0.0,0.0,0.0,0.0,0.0,0.0,0.0,0.0,0.0,0.0,0.0,0.0,0.0,0.0,0.0,0.0,0.0,0.0,0.0,0.0,0.0,0.0,0.0,0.0,0.0,0.0,0.0,0.0,0.0,0.0,0.0,0.0,0.0,0.0,0.0,0.0,0.0,0.0,0.0,0.0,0.0,0.0,0.0,0.0,0.0,0.0,0.0,0.0,0.0,0.0,0.0,0.0,0.0,0.0,0.0,0.0,0.0,0.0,0.0,0.0,0.0,0.0,0.0,0.0,0.0,0.0,0.0,0.0,0.0,0.0,0.0,0.0,0.0,0.0,0.0,0.0,0.0,0.0,0.0,0.0,0.0,0.0,0.0,0.0,0.0,0.0,0.0,0.0,0.0,0.0,0.0,0.0,0.0,0.0,0.0,0.0,0.0,0.0,0.0,0.0,0.0,0.0,3.5172,3.5165,3.5165,3.5165,3.5172,0.0,0.0,0.0,0.0,0.0,0.0,0.0,0.0,0.0,0.0,0.0,0.0,0.0,0.0,0.0,0.0,0.0,0.0,0.0,0.0,0.0,0.0,0.0,0.0,0.0,0.0,0.0,0.0,0.0,0.0,0.0,0.0,0.0,0.0,0.0,0.0,0.0,0.0,0.0,0.0,0.0,0.0,0.0,0.0,0.0,0.0,0.0,0.0,0.0,0.0,0.0,0.0,0.0,0.0,0.0,0.0,0.0,0.0,0.0,0.0,0.0,0.0,0.0,0.0,0.0,0.0,0.0,0.0,0.0,0.0,0.0,0.0,0.0,0.0,0.0,0.0,0.0,0.0,0.0,0.0,0.0,0.0,0.0,0.0,0.0,0.0,0.0,0.0,0.0,0.0,0.0,0.0,0.0,0.0,0.0,0.0,0.0,0.0,0.0,0.0,0.0,0.0,0.0,0.0,0.0,0.0,0.0,0.0,0.0,0.0,0.0,0.0,3.6303,3.6303,3.6303,0.0,0.0,0.0,0.0,0.0,0.0,0.0,0.0,0.0,0.0,0.0,0.0,0.0,0.0,0.0,0.0,0.0,0.0,0.0,0.0,0.0,0.0,0.0,0.0,0.0,0.0,0.0,0.0,0.0,0.0,0.0,0.0,0.0,0.0,0.0,0.0,0.0,0.0,0.0,0.0,0.0,0.0,0.0,0.0,0.0,0.0,0.0,0.0,0.0,0.0,0.0,0.0,0.0,0.0,0.0,0.0,0.0,0.0,0.0,0.0,0.0,0.0,0.0,0.0,0.0,0.0,0.0,0.0,0.0,0.0,0.0,0.0,0.0,0.0,0.0,0.0,0.0,0.0,0.0,0.0,0.0,0.0,0.0,0.0,0.0,0.0,0.0,0.0,0.0,0.0,0.0,0.0,0.0,0.0,0.0,0.0,0.0,0.0,0.0,0.0,0.0,0.0,0.0,0.0,0.0,0.0,0.0,0.0,0.0,0.0,3.6303,3.6303,3.6303,0.0,3.634,0.0,0.0,0.0,0.0,0.0,0.0,0.0,0.0,0.0,0.0,0.0,0.0,0.0,0.0,0.0,0.0,0.0,0.0,0.0,0.0,0.0,0.0,0.0,0.0,0.0,0.0,0.0,0.0,0.0,0.0,0.0,0.0,0.0,0.0,0.0,0.0,0.0,0.0,0.0,0.0,0.0,0.0,0.0,0.0,0.0,0.0,0.0,0.0,0.0,0.0,0.0,0.0,0.0,0.0,0.0,0.0,0.0,0.0,0.0,0.0,0.0,0.0,0.0,0.0,0.0,0.0,0.0,0.0,0.0,0.0,0.0,0.0,0.0,0.0,0.0,0.0,0.0,0.0,0.0,0.0,0.0,0.0,0.0,0.0,0.0,0.0,0.0,0.0,0.0,0.0,0.0,0.0,0.0,0.0,0.0,0.0,0.0,0.0,0.0,0.0,0.0,0.0,0.0,0.0,0.0,0.0,0.0,0.0,0.0,0.0,3.7734,3.7734,3.7734,3.7734,0.0,0.0,0.0,0.0,0.0,0.0,0.0,0.0,0.0,0.0,0.0,0.0,0.0,0.0,0.0,0.0,0.0,0.0,0.0,0.0,0.0,0.0,0.0,0.0,0.0,0.0,0.0,0.0,0.0,0.0,0.0,0.0,0.0,0.0,0.0,0.0,0.0,0.0,0.0,0.0,0.0,0.0,0.0,0.0,0.0,0.0,0.0,0.0,0.0,0.0,0.0,0.0,0.0,0.0,0.0,0.0,0.0,0.0,0.0,0.0,0.0,0.0,0.0,0.0,0.0,0.0,0.0,0.0,0.0,0.0,0.0,0.0,0.0,0.0,0.0,0.0,0.0,0.0,0.0,0.0,0.0,0.0,0.0,0.0,0.0,0.0,0.0,0.0,0.0,0.0,0.0,0.0,0.0,0.0,0.0,0.0,0.0,0.0,0.0,0.0,0.0,0.0,0.0,0.0,0.0,0.0,0.0,0.0,0.0,0.0,3.8673,3.8681,3.8681,3.8681,3.8681,3.8681,0.0,0.0,0.0,0.0,0.0,0.0,0.0,0.0,0.0,0.0,0.0,0.0,0.0,0.0,0.0,0.0,0.0,0.0,0.0,0.0,0.0,0.0,0.0,0.0,0.0,0.0,0.0,0.0,0.0,0.0,0.0,0.0,0.0,0.0,0.0,0.0,0.0,0.0,0.0,0.0,0.0,0.0,0.0,0.0,0.0,0.0,0.0,0.0,0.0,0.0,0.0,0.0,0.0,0.0,0.0,0.0,0.0,0.0,0.0,0.0,0.0,0.0,0.0,0.0,0.0,0.0,0.0,0.0,0.0,0.0,0.0,0.0,0.0,0.0,0.0,0.0,0.0,0.0,0.0,0.0,0.0,0.0,0.0,0.0,0.0,0.0,0.0,0.0,0.0,0.0,0.0,0.0,0.0,0.0,0.0,0.0,0.0,0.0,0.0,0.0,0.0,0.0,0.0,0.0,0.0,0.0,0.0,0.0,3.8528,3.8643,3.8681,3.8681,3.8681,3.8681,0.0,0.0,0.0,0.0,0.0,0.0,0.0,0.0,0.0,0.0,0.0,0.0,0.0,0.0,0.0,0.0,0.0,0.0,0.0,0.0,0.0,0.0,0.0,0.0,0.0,0.0,0.0,0.0,0.0,0.0,0.0,0.0,0.0,0.0,0.0,0.0,0.0,0.0,0.0,0.0,0.0,0.0,0.0,0.0,0.0,0.0,0.0,0.0,0.0,0.0,0.0,0.0,0.0,0.0,0.0,0.0,0.0,0.0,0.0,0.0,0.0,0.0,0.0,0.0,0.0,0.0,0.0,0.0,0.0,0.0,0.0,0.0,0.0,0.0,0.0,0.0,0.0,0.0,0.0,0.0,0.0,0.0,0.0,0.0,0.0,0.0,0.0,0.0,0.0,0.0,0.0,0.0,0.0,0.0,0.0,0.0,0.0,0.0,0.0,0.0,0.0,0.0,0.0,0.0,0.0,0.0,0.0,0.0,0.0,3.8483,3.8643,3.8681,3.8681,3.8681,3.8681,0.0,0.0,0.0,0.0,0.0,0.0,0.0,0.0,0.0,0.0,0.0,0.0,0.0,0.0,0.0,0.0,0.0,0.0,0.0,0.0,0.0,0.0,0.0,0.0,0.0,0.0,0.0,0.0,0.0,0.0,0.0,0.0,0.0,0.0,0.0,0.0,0.0,0.0,0.0,0.0,0.0,0.0,0.0,0.0,0.0,0.0,0.0,0.0,0.0,0.0,0.0,0.0,0.0,0.0,0.0,0.0,0.0,0.0,0.0,0.0,0.0,0.0,0.0,0.0,0.0,0.0,0.0,0.0,0.0,0.0,0.0,0.0,0.0,0.0,0.0,0.0,0.0,0.0,0.0,0.0,0.0,0.0,0.0,0.0,0.0,0.0,0.0,0.0,0.0,0.0,0.0,0.0,0.0,0.0,0.0,0.0,0.0,0.0,0.0,0.0,0.0,0.0,0.0,0.0,0.0,0.0,0.0,0.0,0.0,3.852,0.0,3.8658,3.8681,3.8681,3.8681,0.0,0.0,0.0,0.0,0.0,0.0,0.0,0.0,0.0,0.0,0.0,0.0,0.0,0.0,0.0,0.0,0.0,0.0,0.0,0.0,0.0,0.0,0.0,0.0,0.0,0.0,0.0,0.0,0.0,0.0,0.0,0.0,0.0,0.0,0.0,0.0,0.0,0.0,0.0,0.0,0.0,0.0,0.0,0.0,0.0,0.0,0.0,0.0,0.0,0.0,0.0,0.0,0.0,0.0,0.0,0.0,0.0,0.0,0.0,0.0,0.0,0.0,0.0,0.0,0.0,0.0,0.0,0.0,0.0,0.0,0.0,0.0,0.0,0.0,0.0,0.0,0.0,0.0,0.0,0.0,0.0,0.0,0.0,0.0,0.0,0.0,0.0,0.0,0.0,0.0,0.0,0.0,0.0,0.0,0.0,0.0,0.0,0.0,0.0,0.0,0.0,0.0,0.0,0.0,0.0,0.0,0.0,0.0,3.8417,3.8512,3.8564,3.8669,3.8718,3.8747,3.8718,0.0,0.0,0.0,0.0,0.0,0.0,0.0,0.0,0.0,0.0,0.0,0.0,0.0,0.0,0.0,0.0,0.0,0.0,0.0,0.0,0.0,0.0,0.0,0.0,0.0,0.0,0.0,0.0,0.0,0.0,0.0,0.0,0.0,0.0,0.0,0.0,0.0,0.0,0.0,0.0,0.0,0.0,0.0,0.0,0.0,0.0,0.0,0.0,0.0,0.0,0.0,0.0,0.0,0.0,0.0,0.0,0.0,0.0,0.0,0.0,0.0,0.0,0.0,0.0,0.0,0.0,0.0,0.0,0.0,0.0,0.0,0.0,0.0,0.0,0.0,0.0,0.0,0.0,0.0,0.0,0.0,0.0,0.0,0.0,0.0,0.0,0.0,0.0,0.0,0.0,0.0,0.0,0.0,0.0,0.0,0.0,0.0,0.0,0.0,0.0,0.0,0.0,0.0,0.0,0.0,0.0,0.0,0.0,0.0,3.9246,3.9786,4.0117,4.0207,3.9694,3.9425,0.0,0.0,0.0,0.0,0.0,0.0,0.0,0.0,0.0,0.0,0.0,0.0,0.0,0.0,0.0,0.0,0.0,0.0,0.0,0.0,0.0,0.0,0.0,0.0,0.0,0.0,0.0,0.0,0.0,0.0,0.0,0.0,0.0,0.0,0.0,0.0,0.0,0.0,0.0,0.0,0.0,0.0,0.0,0.0,0.0,0.0,0.0,0.0,0.0,0.0,0.0,0.0,0.0,0.0,0.0,0.0,0.0,0.0,0.0,0.0,0.0,0.0,0.0,0.0,0.0,0.0,0.0,0.0,0.0,0.0,0.0,0.0,0.0,0.0,0.0,0.0,0.0,0.0,0.0,0.0,0.0,0.0,0.0,0.0,0.0,0.0,0.0,0.0,0.0,0.0,0.0,0.0,0.0,0.0,0.0,0.0,0.0,0.0,0.0,0.0,0.0,0.0,0.0,0.0,0.0,0.0,0.0,0.0,0.0,4.1687,4.1641,4.1702,4.1744,4.1019,4.0475,4.024,0.0,0.0,0.0,0.0,0.0,0.0,0.0,0.0,0.0,0.0,0.0,0.0,0.0,0.0,0.0,0.0,0.0,0.0,0.0,0.0,0.0,0.0,0.0,0.0,0.0,0.0,0.0,0.0,0.0,0.0,0.0,0.0,0.0,0.0,0.0,0.0,0.0,0.0,0.0,0.0,0.0,0.0,0.0,0.0,0.0,0.0,0.0,0.0,0.0,0.0,0.0,0.0,0.0,0.0,0.0,0.0,0.0,0.0,0.0,0.0,0.0,0.0,0.0,0.0,0.0,0.0,0.0,0.0,0.0,0.0,0.0,0.0,0.0,0.0,0.0,0.0,0.0,0.0,0.0,0.0,0.0,0.0,0.0,0.0,0.0,0.0,0.0,0.0,0.0,0.0,0.0,0.0,0.0,0.0,0.0,0.0,0.0,0.0,0.0,0.0,0.0,0.0,0.0,0.0,0.0,0.0,0.0,0.0,4.5417,4.4164,4.3486,4.3433,4.2648,4.186,0.0,0.0,0.0,0.0,0.0,0.0,0.0,0.0,0.0,0.0,0.0,0.0,0.0,0.0,0.0,0.0,0.0,0.0,0.0,0.0,0.0,0.0,0.0,0.0,0.0,0.0,0.0,0.0,0.0,0.0,0.0,0.0,0.0,0.0,0.0,0.0,0.0,0.0,0.0,0.0,0.0,0.0,0.0,0.0,0.0,0.0,0.0,0.0,0.0,0.0,0.0,0.0,0.0,0.0,0.0,0.0,0.0,0.0,0.0,0.0,0.0,0.0,0.0,0.0,0.0,0.0,0.0,0.0,0.0,0.0,0.0,0.0,0.0,0.0,0.0,0.0,0.0,0.0,0.0,0.0,0.0,0.0,0.0,0.0,0.0,0.0,0.0,0.0,0.0,0.0,0.0,0.0,0.0,0.0,0.0,0.0,0.0,0.0,0.0,0.0,0.0,0.0,0.0,0.0,0.0,0.0,0.0,0.0,0.0,4.7083,4.7876,4.7467,4.5823,4.449,4.3442,0.0,0.0,0.0,0.0,0.0,0.0,0.0,0.0,0.0,0.0,0.0,0.0,0.0,0.0,0.0,0.0,0.0,0.0,0.0,0.0,0.0,0.0,0.0,0.0,0.0,0.0,0.0,0.0,0.0,0.0,0.0,0.0,0.0,0.0,0.0,0.0,0.0,0.0,0.0,0.0,0.0,0.0,0.0,0.0,0.0,0.0,0.0,0.0,0.0,0.0,0.0,0.0,0.0,0.0,0.0,0.0,0.0,0.0,0.0,0.0,0.0,0.0,0.0,0.0,0.0,0.0,0.0,0.0,0.0,0.0,0.0,0.0,0.0,0.0,0.0,0.0,0.0,0.0,0.0,0.0,0.0,0.0,0.0,0.0,0.0,0.0,0.0,0.0,0.0,0.0,0.0,0.0,0.0,0.0,0.0,0.0,0.0,0.0,0.0,0.0,0.0,0.0,0.0,0.0,0.0,0.0,0.0,0.0,4.8051,4.9184,5.0463,5.0315,4.8664,4.6832,4.5355,0.0,0.0,0.0,0.0,0.0,0.0,0.0,0.0,0.0,0.0,0.0,0.0,0.0,0.0,0.0,0.0,0.0,0.0,0.0,0.0,0.0,0.0,0.0,0.0,0.0,0.0,0.0,0.0,0.0,0.0,0.0,0.0,0.0,0.0,0.0,0.0,0.0,0.0,0.0,0.0,0.0,0.0,0.0,0.0,0.0,0.0,0.0,0.0,0.0,0.0,0.0,0.0,0.0,0.0,0.0,0.0,0.0,0.0,0.0,0.0,0.0,0.0,0.0,0.0,0.0,0.0,0.0,0.0,0.0,0.0,0.0,0.0,0.0,0.0,0.0,0.0,0.0,0.0,0.0,0.0,0.0,0.0,0.0,0.0,0.0,0.0,0.0,0.0,0.0,0.0,0.0,0.0,0.0,0.0,0.0,0.0,0.0,0.0,0.0,0.0,0.0,0.0,0.0,0.0,0.0,0.0,0.0,0.0,4.9753,5.126,5.219,5.2263,5.1513,4.9281,4.7341,0.0,0.0,0.0,0.0,0.0,0.0,0.0,0.0,0.0,0.0,0.0,0.0,0.0,0.0,0.0,0.0,0.0,0.0,0.0,0.0,0.0,0.0,0.0,0.0,0.0,0.0,0.0,0.0,0.0,0.0,0.0,0.0,0.0,0.0,0.0,0.0,0.0,0.0,0.0,0.0,0.0,0.0,0.0,0.0,0.0,0.0,0.0,0.0,0.0,0.0,0.0,0.0,0.0,0.0,0.0,0.0,0.0,0.0,0.0,0.0,0.0,0.0,0.0,0.0,0.0,0.0,0.0,0.0,0.0,0.0,0.0,0.0,0.0,0.0,0.0,0.0,0.0,0.0,0.0,0.0,0.0,0.0,0.0,0.0,0.0,0.0,0.0,0.0,0.0,0.0,0.0,0.0,0.0,0.0,0.0,0.0,0.0,0.0,0.0,0.0,0.0,0.0,0.0,0.0,0.0,0.0,0.0,0.0,5.0318,5.1296,5.2697,5.3349,5.3168,5.0939,4.8686,0.0,0.0,0.0,0.0,0.0,0.0,0.0,0.0,0.0,0.0,0.0,0.0,0.0,0.0,0.0,0.0,0.0,0.0,0.0,0.0,0.0,0.0,0.0,0.0,0.0,0.0,0.0,0.0,0.0,0.0,0.0,0.0,0.0,0.0,0.0,0.0,0.0,0.0,0.0,0.0,0.0,0.0,0.0,0.0,0.0,0.0,0.0,0.0,4.3725,0.0,0.0,0.0,0.0,0.0,0.0,0.0,0.0,0.0,0.0,0.0,0.0,0.0,0.0,0.0,0.0,0.0,0.0,0.0,0.0,0.0,0.0,0.0,0.0,0.0,0.0,0.0,0.0,0.0,0.0,0.0,0.0,0.0,0.0,0.0,0.0,0.0,0.0,0.0,0.0,0.0,0.0,0.0,0.0,0.0,0.0,0.0,0.0,0.0,0.0,0.0,0.0,0.0,0.0,0.0,0.0,0.0,0.0,0.0,5.1622,5.2408,5.3639,5.4255,5.4218,5.3058,5.1154,0.0,0.0,0.0,0.0,0.0,0.0,0.0,0.0,0.0,0.0,0.0,0.0,0.0,0.0,0.0,0.0,0.0,0.0,0.0,0.0,0.0,0.0,0.0,0.0,0.0,0.0,0.0,0.0,0.0,0.0,0.0,0.0,0.0,0.0,0.0,0.0,0.0,0.0,0.0,0.0,0.0,0.0,0.0,0.0,0.0,0.0,0.0,0.0,0.0,0.0,0.0,0.0,0.0,0.0,0.0,0.0,0.0,0.0,0.0,0.0,0.0,0.0,0.0,0.0,0.0,0.0,0.0,0.0,0.0,0.0,0.0,0.0,0.0,0.0,0.0,0.0,0.0,0.0,0.0,0.0,0.0,0.0,0.0,0.0,0.0,0.0,0.0,0.0,0.0,0.0,0.0,0.0,0.0,0.0,0.0,0.0,0.0,0.0,0.0,0.0,0.0,0.0,0.0,0.0,0.0,0.0,0.0,5.1466,5.3096,5.3892,5.4653,5.5051,5.5088,5.4822,5.3421,5.0635,0.0,0.0,0.0,0.0,0.0,0.0,0.0,0.0,0.0,0.0,0.0,0.0,0.0,0.0,0.0,0.0,0.0,0.0,0.0,0.0,0.0,0.0,0.0,0.0,0.0,0.0,0.0,0.0,0.0,0.0,0.0,0.0,0.0,0.0,0.0,0.0,0.0,0.0,4.2049,4.3244,0.0,0.0,0.0,0.0,0.0,0.0,0.0,0.0,4.5562,0.0,0.0,0.0,0.0,0.0,0.0,0.0,0.0,0.0,0.0,0.0,0.0,0.0,0.0,0.0,0.0,0.0,0.0,0.0,0.0,0.0,0.0,0.0,0.0,0.0,0.0,0.0,0.0,0.0,0.0,0.0,0.0,0.0,0.0,0.0,0.0,0.0,0.0,0.0,0.0,0.0,0.0,0.0,0.0,0.0,0.0,0.0,0.0,0.0,0.0,0.0,0.0,0.0,0.0,0.0,0.0,4.9883,5.2263,5.3892,5.4689,5.5414,5.5812,5.5788,5.4581,5.3361,5.2116,0.0,0.0,0.0,0.0,0.0,0.0,0.0,0.0,0.0,0.0,0.0,0.0,0.0,0.0,0.0,0.0,0.0,0.0,0.0,0.0,0.0,0.0,0.0,0.0,0.0,0.0,0.0,0.0,0.0,0.0,0.0,0.0,0.0,0.0,0.0,0.0,0.0,0.0,0.0,4.3981,4.4693,0.0,0.0,0.0,0.0,0.0,0.0,0.0,0.0,4.6494,0.0,0.0,0.0,0.0,0.0,0.0,0.0,0.0,0.0,0.0,0.0,0.0,0.0,0.0,0.0,0.0,0.0,0.0,0.0,0.0,0.0,0.0,0.0,0.0,0.0,0.0,0.0,0.0,0.0,0.0,0.0,0.0,0.0,0.0,0.0,0.0,0.0,0.0,0.0,0.0,0.0,0.0,0.0,0.0,0.0,0.0,0.0,0.0,0.0,0.0,0.0,0.0,0.0,0.0,0.0,5.0789,5.347,5.5088,5.5486,5.6223,5.6609,5.6621,5.5498,5.4146,0.0,0.0,0.0,0.0,0.0,0.0,0.0,0.0,0.0,0.0,0.0,0.0,0.0,0.0,0.0,0.0,0.0,0.0,0.0,0.0,0.0,0.0,0.0,0.0,0.0,0.0,0.0,0.0,0.0,0.0,0.0,0.0,0.0,0.0,0.0,0.0,0.0,0.0,0.0,0.0,4.6053,4.7047,4.8206,0.0,0.0,0.0,0.0,0.0,0.0,4.8652,4.8206,0.0,0.0,0.0,0.0,0.0,0.0,0.0,0.0,0.0,0.0,0.0,0.0,0.0,0.0,0.0,0.0,0.0,0.0,0.0,0.0,0.0,0.0,0.0,0.0,0.0,0.0,0.0,0.0,0.0,0.0,0.0,0.0,0.0,0.0,0.0,0.0,0.0,0.0,0.0,0.0,0.0,0.0,0.0,0.0,0.0,0.0,0.0,0.0,0.0,0.0,0.0,0.0,0.0,0.0,0.0,5.2045,5.4653,5.6259,5.673,5.7188,5.7442,5.7406,5.6657,5.5064,0.0,0.0,0.0,0.0,0.0,0.0,0.0,0.0,0.0,0.0,0.0,0.0,0.0,0.0,0.0,0.0,0.0,0.0,0.0,0.0,0.0,0.0,0.0,0.0,0.0,0.0,0.0,0.0,0.0,0.0,0.0,0.0,0.0,0.0,0.0,0.0,0.0,0.0,0.0,0.0,0.0,4.9246,5.0209,5.1042,0.0,0.0,0.0,0.0,5.0825,5.0825,0.0,0.0,0.0,0.0,0.0,0.0,0.0,0.0,0.0,0.0,0.0,0.0,0.0,0.0,0.0,0.0,0.0,0.0,0.0,0.0,0.0,0.0,0.0,0.0,0.0,0.0,0.0,0.0,0.0,0.0,0.0,0.0,0.0,0.0,0.0,0.0,0.0,0.0,0.0,0.0,0.0,0.0,0.0,0.0,0.0,0.0,0.0,0.0,0.0,0.0,0.0,0.0,0.0,0.0,0.0,0.0,5.4399,5.5486,5.7007,5.9035,5.8565,5.8275,5.8239,5.7478,5.5631,0.0,0.0,0.0,0.0,0.0,0.0,0.0,0.0,0.0,0.0,0.0,0.0,0.0,0.0,0.0,0.0,0.0,0.0,0.0,0.0,0.0,0.0,0.0,0.0,0.0,0.0,0.0,0.0,0.0,0.0,0.0,0.0,0.0,0.0,0.0,0.0,0.0,0.0,0.0,0.0,0.0,4.9463,5.097,5.1839,5.2082,0.0,0.0,5.3277,5.3277,5.3277,0.0,0.0,0.0,0.0,0.0,0.0,0.0,0.0,0.0,0.0,0.0,0.0,0.0,0.0,0.0,0.0,0.0,0.0,0.0,0.0,0.0,0.0,0.0,0.0,0.0,0.0,0.0,0.0,0.0,0.0,0.0,0.0,0.0,0.0,0.0,0.0,0.0,0.0,0.0,0.0,0.0,0.0,0.0,0.0,0.0,0.0,0.0,0.0,0.0,0.0,0.0,0.0,0.0,0.0,0.0,5.2589,5.4834,5.6066,5.7226,5.8304,5.8462,5.8281,5.7845,5.7482,5.6224,0.0,0.0,0.0,0.0,0.0,0.0,0.0,0.0,0.0,0.0,0.0,0.0,0.0,0.0,0.0,0.0,0.0,0.0,0.0,0.0,0.0,0.0,0.0,0.0,0.0,0.0,0.0,0.0,0.0,0.0,0.0,0.0,0.0,0.0,0.0,0.0,0.0,0.0,0.0,0.0,0.0,0.0,5.19,5.3422,0.0,0.0,0.0,5.487,5.4436,0.0,0.0,0.0,0.0,0.0,0.0,0.0,0.0,0.0,0.0,0.0,0.0,0.0,0.0,0.0,0.0,0.0,0.0,0.0,0.0,0.0,0.0,0.0,0.0,0.0,0.0,0.0,0.0,0.0,0.0,0.0,0.0,0.0,0.0,0.0,0.0,0.0,0.0,0.0,0.0,0.0,0.0,0.0,0.0,0.0,0.0,0.0,0.0,0.0,0.0,0.0,0.0,0.0,0.0,0.0,0.0,0.0,5.5209,5.655,5.7531,5.8043,5.8637,5.8649,5.8042,5.8187,0.0,0.0,0.0,0.0,0.0,0.0,0.0,0.0,0.0,0.0,0.0,0.0,0.0,0.0,0.0,0.0,0.0,0.0,0.0,0.0,0.0,0.0,0.0,0.0,0.0,0.0,0.0,4.2873,0.0,0.0,0.0,0.0,0.0,0.0,0.0,0.0,0.0,0.0,0.0,0.0,0.0,0.0,5.3096,5.3096,5.5088,5.6319,0.0,0.0,5.6391,5.5848,5.621,5.5848,0.0,0.0,0.0,0.0,0.0,0.0,0.0,0.0,0.0,0.0,0.0,0.0,0.0,0.0,0.0,0.0,0.0,0.0,0.0,0.0,0.0,0.0,0.0,0.0,0.0,0.0,0.0,0.0,0.0,0.0,0.0,0.0,0.0,0.0,0.0,0.0,0.0,0.0,0.0,0.0,0.0,0.0,0.0,0.0,0.0,0.0,0.0,0.0,0.0,0.0,0.0,0.0,0.0,0.0,0.0,5.6031,5.6939,5.8164,5.9733,5.9868,5.9805,5.9677,6.0332,5.89,0.0,0.0,0.0,0.0,0.0,0.0,0.0,0.0,0.0,0.0,0.0,0.0,0.0,0.0,0.0,0.0,0.0,0.0,0.0,0.0,0.0,0.0,0.0,0.0,0.0,0.0,0.0,0.0,0.0,0.0,0.0,0.0,0.0,0.0,0.0,0.0,0.0,0.0,0.0,0.0,0.0,5.475,5.4762,5.6754,5.7949,0.0,0.0,5.8202,5.8166,5.8202,5.7695,5.6042,0.0,0.0,0.0,0.0,0.0,0.0,0.0,0.0,0.0,0.0,0.0,0.0,0.0,0.0,0.0,0.0,0.0,0.0,0.0,0.0,0.0,0.0,0.0,0.0,0.0,0.0,0.0,0.0,0.0,0.0,0.0,0.0,0.0,0.0,0.0,0.0,0.0,0.0,0.0,0.0,0.0,0.0,0.0,0.0,0.0,0.0,0.0,0.0,0.0,0.0,0.0,0.0,0.0,5.4471,5.6891,5.7715,5.8796,6.0053,6.0602,6.0576,5.995,6.0205,5.9558,0.0,0.0,0.0,0.0,0.0,0.0,0.0,0.0,0.0,0.0,0.0,0.0,0.0,0.0,0.0,0.0,0.0,0.0,0.0,0.0,0.0,0.0,0.0,0.0,0.0,0.0,0.0,0.0,4.8978,4.9764,5.056,0.0,0.0,0.0,0.0,0.0,0.0,0.0,0.0,0.0,0.0,5.5921,5.6899,5.784,0.0,0.0,5.8202,5.842,5.842,5.8818,5.8782,5.7659,5.6971,0.0,0.0,0.0,0.0,0.0,0.0,0.0,0.0,0.0,0.0,0.0,0.0,0.0,0.0,0.0,0.0,0.0,0.0,0.0,0.0,0.0,0.0,0.0,0.0,0.0,0.0,0.0,0.0,0.0,0.0,0.0,0.0,0.0,0.0,0.0,0.0,0.0,0.0,0.0,0.0,0.0,0.0,0.0,0.0,0.0,0.0,0.0,0.0,0.0,0.0,0.0,0.0,5.5208,5.7449,5.8454,5.9355,6.0114,6.0943,6.099,6.034,6.051,6.0347,0.0,0.0,0.0,0.0,0.0,0.0,0.0,0.0,0.0,0.0,0.0,0.0,0.0,0.0,0.0,0.0,0.0,0.0,0.0,0.0,0.0,0.0,0.0,0.0,0.0,0.0,0.0,0.0,5.1042,5.1815,5.2175,0.0,0.0,0.0,0.0,0.0,0.0,0.0,0.0,0.0,0.0,5.7478,5.8601,5.9002,5.9173,5.9173,5.9173,5.9173,5.9173,5.9605,5.9687,5.8878,0.0,0.0,0.0,0.0,0.0,0.0,0.0,0.0,0.0,0.0,0.0,0.0,0.0,0.0,0.0,0.0,0.0,0.0,0.0,0.0,0.0,0.0,0.0,0.0,0.0,0.0,0.0,0.0,0.0,0.0,0.0,0.0,0.0,0.0,0.0,0.0,0.0,0.0,0.0,0.0,0.0,0.0,0.0,0.0,0.0,0.0,0.0,0.0,0.0,0.0,0.0,0.0,0.0,5.5873,5.7619,5.9074,5.9874,6.005,6.0828,6.1165,6.1022,6.1749,6.1399,5.9836,0.0,0.0,0.0,0.0,0.0,0.0,0.0,0.0,0.0,0.0,0.0,0.0,0.0,0.0,0.0,0.0,0.0,0.0,0.0,0.0,0.0,0.0,0.0,0.0,0.0,0.0,5.0293,5.155,5.2272,0.0,0.0,0.0,0.0,0.0,0.0,0.0,0.0,0.0,0.0,5.811,5.9542,5.9615,6.0349,6.0877,6.0877,6.0913,6.0913,6.0913,6.0867,6.0507,0.0,0.0,0.0,0.0,0.0,0.0,0.0,0.0,0.0,0.0,0.0,0.0,0.0,0.0,0.0,0.0,0.0,0.0,0.0,0.0,0.0,0.0,0.0,0.0,0.0,0.0,0.0,5.0597,5.2154,0.0,0.0,0.0,0.0,0.0,0.0,0.0,0.0,0.0,0.0,0.0,5.9298,5.9383,0.0,0.0,0.0,0.0,0.0,0.0,0.0,0.0,0.0,0.0,0.0,0.0,5.7995,5.9187,6.0118,6.0942,6.1568,6.1873,6.1993,6.1954,6.1662,6.0981,5.9848,0.0,0.0,0.0,0.0,0.0,0.0,0.0,0.0,0.0,0.0,0.0,0.0,0.0,0.0,0.0,0.0,0.0,0.0,0.0,0.0,0.0,0.0,0.0,0.0,0.0,5.3179,0.0,0.0,0.0,0.0,0.0,0.0,0.0,0.0,0.0,0.0,0.0,5.7534,5.8579,5.9852,6.0869,6.1379,6.1272,6.1129,0.0,0.0,0.0,0.0,0.0,0.0,0.0,0.0,0.0,0.0,0.0,0.0,0.0,0.0,5.7931,5.5969,5.5414,5.5317,5.5558,0.0,0.0,0.0,0.0,0.0,0.0,0.0,0.0,0.0,0.0,0.0,0.0,0.0,0.0,0.0,0.0,5.6939,0.0,0.0,0.0,0.0,0.0,0.0,0.0,0.0,6.0139,6.1237,6.2326,6.2657,6.2437,0.0,6.1887,6.1068,0.0,0.0,0.0,0.0,0.0,0.0,0.0,0.0,5.9613,6.0454,6.1129,6.1941,6.2748,6.2785,6.2834,6.2785,6.2071,6.1363,6.0672,6.0837,6.0072,0.0,0.0,0.0,0.0,0.0,0.0,0.0,0.0,0.0,0.0,0.0,0.0,0.0,0.0,0.0,0.0,0.0,0.0,0.0,0.0,0.0,0.0,0.0,5.5523,0.0,0.0,0.0,0.0,0.0,0.0,0.0,0.0,0.0,5.6799,5.8421,6.0101,6.1197,6.1742,6.2324,6.3126,0.0,0.0,0.0,0.0,0.0,0.0,0.0,6.4598,6.4758,6.5049,6.5045,6.4453,6.4135,6.3962,6.3852,0.0,0.0,5.9885,5.9289,5.9374,5.9651,5.9687,5.9809,6.0063,6.0183,6.0286,0.0,0.0,0.0,0.0,0.0,0.0,0.0,0.0,5.8166,5.8963,0.0,5.988,0.0,0.0,0.0,0.0,0.0,0.0,0.0,0.0,6.3174,6.3954,6.4297,6.4914,6.4891,6.4237,6.3376,6.3352,6.4016,6.1814,0.0,0.0,0.0,0.0,0.0,0.0,6.0737,6.1603,6.2266,6.2894,6.3673,6.3723,6.3686,6.365,6.3038,6.2621,6.2334,6.1772,6.0919,5.9872,5.9219,0.0,0.0,0.0,0.0,0.0,0.0,0.0,0.0,0.0,0.0,0.0,0.0,0.0,0.0,0.0,0.0,0.0,0.0,0.0,0.0,5.7037,0.0,0.0,0.0,0.0,0.0,0.0,0.0,0.0,0.0,0.0,5.9625,6.0652,6.2128,6.3628,0.0,0.0,0.0,0.0,6.4177,6.4995,6.5178,6.5214,6.5228,6.5815,6.5975,6.5172,0.0,0.0,6.6217,6.6851,6.7325,6.7362,6.7325,6.6585,6.395,6.3351,6.3496,6.4184,6.4293,6.4678,6.5308,6.4641,6.4526,5.9216,0.0,0.0,0.0,0.0,5.4919,5.73,6.0801,6.1516,6.2327,6.3148,6.3212,0.0,0.0,0.0,0.0,0.0,0.0,6.4147,6.4297,6.5846,6.6923,6.754,6.772,6.772,6.754,6.7793,6.7513,6.6673,6.6512,6.5472,6.3563,0.0,0.0,0.0,0.0,6.408,6.4848,6.5008,6.5145,6.5364,6.5401,6.5163,6.4709,6.4992,6.5111,6.5031,6.4771,6.4485,6.4162,6.2381,0.0,0.0,0.0,0.0,0.0,0.0,0.0,0.0,0.0,0.0,0.0,0.0,0.0,0.0,0.0,0.0,0.0,0.0,0.0,5.9412,5.9925,6.0537,0.0,0.0,0.0,0.0,0.0,0.0,0.0,0.0,0.0,6.3563,6.3905,6.4343,0.0,0.0,6.4891,6.511,6.5467,6.5823,6.6056,0.0,0.0,0.0,6.8436,6.8862,6.8605,6.8742,6.8818,6.8818,6.9,6.9104,6.8968,6.9536,6.9697,6.8779,6.7221,6.6324,6.6383,6.6357,6.6126,6.5836,6.6308,6.6852,6.596,6.1556,5.888,5.8696,6.0316,6.089,6.2967,6.603,6.651,6.688,6.7111,6.7154,6.6313,6.4898,6.5031,0.0,0.0,0.0,6.7086,6.771,6.8678,6.9706,7.077,7.1123,7.094,7.0367,7.0421,6.9884,6.8655,6.8733,6.8293,6.7197,0.0,0.0,6.5325,6.5516,6.5893,6.637,6.6312,6.6418,6.671,6.6418,6.6056,6.5697,6.5793,6.584,6.5786,6.5961,6.593,6.556,6.4493,6.3035,0.0,0.0,0.0,0.0,0.0,0.0,0.0,0.0,0.0,0.0,0.0,5.6088,5.6485,0.0,0.0,0.0,5.9274,6.021,6.2407,6.2704,0.0,0.0,0.0,0.0,0.0,0.0,0.0,6.3062,6.4787,6.6182,6.6683,6.7026,6.71,6.6769,6.6719,6.6843,6.7136,0.0,6.754,6.7871,6.8752,6.9376,6.9376,7.0036,7.066,7.0991,7.0993,7.0936,7.0936,7.1193,7.1347,7.1348,7.1721,7.2116,7.1977,7.077,6.9644,6.9237,6.8794,6.8444,6.8371,6.9114,6.955,7.162,7.0617,6.5401,6.4714,6.7099,6.7332,6.9113,7.193,7.2176,7.1835,7.1099,7.1231,7.0411,6.8998,6.9123,0.0,6.9178,6.9265,7.0059,7.149,7.1527,7.2386,7.378,7.4536,7.4133,7.2665,7.1816,7.1046,7.0403,6.9521,6.9507,7.022,6.8788,6.7283,6.5802,6.6439,6.6806,6.688,6.6916,6.7247,6.7958,6.721,6.6769,6.6696,6.5949,6.5529,6.5351,6.5946,6.5929,6.5127,6.5829,6.5207,6.2801,0.0,0.0,0.0,0.0,0.0,0.0,0.0,0.0,0.0,0.0,0.0,0.0,0.0,0.0,0.0,6.3559,0.0,6.5214,6.5374,0.0,0.0,0.0,6.4249,6.338,6.4701,6.5655,6.5582,0.0,0.0,6.9009,0.0,7.0036,6.9288,6.9068,6.9302,7.0073,6.9596,6.9449,7.0146,7.0403,7.0477,7.0587,7.1211,7.2041,7.2863,7.2826,7.2848,7.2958,7.3377,7.3854,7.3802,7.3817,7.3744,7.378,7.3692,7.3545,7.2363,7.1434,7.1135,7.167,7.1955,7.1933,7.5466,7.5207,7.3864,7.2006,7.0018,7.0594,7.1741,7.3124,7.3654,7.3502,7.2855,7.2817,7.2283,7.1436,7.158,7.1651,7.1688,7.2275,7.2753,7.3156,7.3766,7.4243,7.4625,7.4793,7.472,7.4353,7.4103,7.3604,7.2863,7.2614,7.232,7.1945,7.1541,7.055,6.9009,6.9155,6.9559,7.0169,7.0169,7.0243,7.0389,6.9669,6.8972,6.8348,6.8151,6.7747,6.7133,6.7243,6.723,6.7019,6.7122,6.6412,6.4707,6.4481,0.0,0.0,0.0,0.0,0.0,0.0,0.0,0.0,0.0,6.0423,6.1327,0.0,6.3368,0.0,6.5055,6.6163,6.6875,6.7579,0.0,0.0,6.8628,6.8348,6.7527,6.8348,6.8715,6.8114,6.9082,6.9816,6.9816,7.1027,7.1872,7.1651,7.0587,7.011,7.0866,7.138,7.1725,7.1982,7.2936,7.3523,7.301,7.3523,7.45,7.5931,7.5652,7.5469,7.6041,7.5799,7.5542,7.5469,7.5028,7.4661,7.4661,7.5102,7.5197,7.4337,7.2988,7.1816,7.1509,7.1875,7.2072,7.8601,7.8009,7.8009,7.634,7.3784,7.4162,7.4836,7.5665,7.6104,7.6297,7.628,7.544,7.4671,7.4029,7.4067,7.4111,7.4147,7.4551,7.4955,7.5322,7.5395,7.5601,7.5968,7.5968,7.5784,7.5432,7.5417,7.5028,7.4294,7.4588,7.4551,7.4111,7.4111,7.367,7.2753,7.1358,7.0866,7.127,7.1307,7.1307,7.127,7.0169,6.9522,6.9412,6.8715,6.8338,6.8332,6.7978,6.782,6.7886,6.782,6.7376,6.6507,6.6206,6.5102,0.0,0.0,0.0,0.0,0.0,0.0,0.0,0.0,0.0,0.0,0.0,6.5865,6.6182,6.7357,6.8247,6.8619,6.9151,6.9633,7.0073,7.011,6.9926,6.9486,7.0146,7.0587,7.0513,7.1211,7.1835,7.2202,7.301,7.3546,7.3546,7.2789,7.2532,7.3252,7.3546,7.3707,7.4074,7.4882,7.5454,7.5285,7.5674,7.6408,7.7509,7.7524,7.7378,7.7781,7.7524,7.7194,7.7194,7.6827,7.6533,7.657,7.6864,7.6937,7.6063,7.4917,7.3772,7.2966,7.3443,7.3786,8.1017,7.9869,7.9832,7.9107,7.7934,7.7809,7.7981,7.8368,7.8526,7.9066,7.9706,7.8259,7.7215,7.657,7.646,7.6423,7.6423,7.6313,7.6665,7.7399,7.6644,7.6665,7.7472,7.7472,7.7105,7.6423,7.6533,7.624,7.5564,7.624,7.657,7.657,7.646,7.6423,7.6276,7.3523,7.1967,7.1784,7.1674,7.16,7.16,7.0132,6.9669,7.0183,6.8898,6.8489,6.9212,6.8489,6.8125,6.823,6.8169,6.8031,6.7915,6.7505,6.6877,0.0,6.5504,0.0,0.0,0.0,0.0,0.0,0.0,0.0,0.0,6.729,6.8398,6.8995,6.9963,7.0477,7.0293,7.0513,7.066,7.0587,7.066,7.0734,7.077,7.1344,7.2041,7.2753,7.3413,7.4147,7.4698,7.4977,7.505,7.5014,7.505,7.5417,7.6276,7.5799,7.5491,7.6276,7.6423,7.679,7.7546,7.7693,7.7949,7.8809,7.8993,7.8956,7.9103,7.8993,7.8919,7.8883,7.8736,7.8662,7.8736,7.8809,7.8589,7.7766,7.7142,7.6371,7.527,7.527,7.5886,8.1937,8.1713,8.166,8.1546,8.1269,8.1236,8.0193,7.8542,7.8573,7.9029,7.9779,7.9486,7.9265,7.9045,7.8405,7.8112,7.8075,7.7414,7.7546,7.8332,7.7472,7.7509,7.8332,7.8369,7.8259,7.8185,7.8788,7.9045,7.8883,7.9029,7.9119,7.9082,7.8442,7.8112,7.8075,0.0,0.0,0.0,7.3597,7.323,7.3193,7.2312,7.1564,7.1087,7.0793,0.0,7.0058,6.9299,6.8923,6.9043,6.8452,0.0,0.0,0.0,0.0,0.0,0.0,0.0,0.0,0.0,0.0,0.0,6.9423,6.9113,6.8489,6.9789,7.044,6.9963,7.1776,7.2496,7.1248,7.2848,7.3744,7.312,7.3597,7.3986,7.3986,7.4096,7.428,7.4426,7.4573,7.472,7.494,7.5454,7.5873,7.5946,7.6445,7.7436,7.8846,7.7745,7.7215,7.7928,7.8075,7.8662,8.0094,7.9727,7.98,8.1028,8.0938,8.0791,8.1195,8.0901,8.0534,8.0498,8.0021,7.9596,7.9596,8.0094,8.0241,7.947,7.969,7.9213,7.6497,7.5506,7.5079,8.5306,0.0,8.4572,8.3875,0.0,8.281,8.2113,8.0975,8.0959,8.0975,8.0991,8.0991,8.055,7.9779,7.936,7.9213,7.9192,7.8736,7.8772,7.9176,7.8736,7.8772,7.9192,7.9192,7.9192,7.9229,7.9596,7.9816,7.9816,8.0183,8.0388,8.0388,7.9984,7.98,7.9764,7.8956,7.7561,7.5506,7.4698,7.4294,7.4258,7.312,7.2496,7.2459,0.0,0.0,0.0,0.0,0.0,0.0,0.0,0.0,0.0,0.0,0.0,6.9481,6.9481,6.9641,6.9984,6.9971,7.0397,7.1411,7.2194,7.2313,7.1434,7.2414,7.3068,7.312,7.4551,7.5124,7.4426,7.505,7.5322,7.4918,7.4903,7.4903,7.4903,7.4903,7.505,7.5432,7.5506,7.5637,7.6041,7.6812,7.7304,7.7378,7.8038,7.8956,7.9947,7.8993,7.8353,7.9543,7.9412,7.9764,8.1195,8.1305,8.1158,8.1966,8.1856,8.1782,8.2113,8.1893,8.1599,8.1562,8.1232,8.0991,8.1012,8.1305,8.1452,8.1085,8.0975,8.0608,7.8772,7.7598,7.6576,8.8629,8.7418,8.7418,8.6224,8.4225,8.4225,8.4152,8.4005,0.0,0.0,0.0,8.2643,8.1819,8.044,8.0293,8.0147,8.0,7.9853,7.989,8.0,7.9853,7.989,8.0,7.9984,8.0036,8.0036,8.0183,8.022,8.0257,8.0901,8.1232,8.1232,8.1232,8.1195,8.1158,8.0424,7.8993,7.7047,7.6056,7.5564,7.5527,7.4096,7.3597,7.4111,7.2202,7.1521,7.2263,7.075,7.0019,7.0213,6.9348,6.9162,6.9793,6.9877,7.0258,7.0985,7.1115,7.1142,7.1231,7.183,7.246,7.3163,7.4529,7.4977,7.4184,7.4882,7.5601,7.6276,7.7179,7.7619,7.7326,7.7032,7.668,7.657,7.6093,7.5784,7.5784,7.5799,7.6166,7.6607,7.668,7.679,7.7436,7.7928,7.8369,7.8405,7.8699,7.9743,8.0424,7.9947,7.98,8.0828,8.0645,8.0771,8.1782,8.2113,8.2186,8.215,8.2186,8.2186,8.2186,8.2186,8.2186,8.2113,8.2186,8.2113,8.215,8.2113,8.2186,8.2186,8.1672,8.1158,8.0901,7.9947,7.8772,8.929,8.9069,8.9069,8.8445,8.7545,8.7545,8.7142,8.639,8.5049,8.4389,8.4278,8.4278,8.3765,8.2867,8.2186,8.1489,8.0791,8.011,8.0183,0.0,8.011,8.0183,8.0828,8.0828,8.0828,8.0901,8.1525,8.1856,8.1856,8.1966,8.2039,8.2003,8.2003,8.2003,8.1966,8.1232,8.0681,8.0277,7.8846,7.8075,7.8075,7.7105,7.6335,7.5799,7.5432,7.5044,7.4615,7.3083,7.2291,7.2405,7.1027,7.0265,7.0412,7.1038,7.1763,7.2539,7.3227,7.3915,7.4602,7.4786,7.5121,7.5824,7.6557,7.6628,7.5873,7.6481,7.6995,7.7215,7.8589,7.8846,7.7619,7.8479,7.8898,7.8405,7.8751,7.9082,7.8972,7.8935,7.8972,7.9119,7.8662,7.8222,7.8332,7.7986,7.7803,7.7619,7.828,7.839,7.9963,8.1028,8.1672,8.1966,8.1929,8.1982,8.2113,8.2186,8.2186,8.2186,8.2186,8.2186,8.2186,8.2186,8.2186,8.2186,8.2186,8.2223,8.2223,8.2186,8.2223,8.2223,8.2076,8.1782,8.1232,8.0755,8.0351,9.0702,9.0702,9.0702,9.0225,8.9454,8.8573,8.7986,8.7545,8.6444,8.5637,8.5233,8.5233,8.4572,8.3454,8.3471,8.3067,8.2317,8.237,8.259,8.2884,8.2113,8.1929,8.2207,8.1856,8.1636,8.1672,8.2003,8.2186,8.2186,8.2186,8.2186,8.2186,8.2186,8.2186,8.215,8.1819,8.1636,8.1599,8.0057,7.9265,7.9265,7.8442,7.7855,7.7451,7.7011,7.6447,7.5838,7.466,7.3834,7.3582,7.2438,7.2008,7.2451,7.2738,7.3249,7.4024,7.4394,7.4889,7.575,7.6633,7.745,7.8183,7.8489,7.8699,7.8772,7.9087,7.9307,7.9344,8.0424,8.0791,8.0021,8.0277,8.0314,7.9947,7.989,8.0,8.0314,8.0036,7.9963,8.0277,7.9743,7.9265,7.9265,7.9286,7.9307,7.9344,7.9617,8.0241,8.0938,8.1672,8.2186,8.215,8.1819,8.1782,8.2076,8.2186,8.2186,8.2186,8.2186,8.2186,8.2186,8.2186,8.2186,8.2186,8.2186,8.2406,8.27,8.248,8.2443,8.2737,8.2443,8.2039,8.1709,8.1636,8.131,9.1803,9.1803,9.1803,9.1326,9.0482,8.9087,8.8463,8.839,8.7785,8.7215,8.6628,8.6224,8.527,8.4078,8.4609,8.4425,8.3821,8.4315,8.4572,8.4535,8.3968,8.3675,8.3581,8.2847,8.248,8.2443,8.2296,8.2186,8.2186,8.2186,8.2186,8.2186,8.2186,8.2186,8.2186,8.2186,8.2186,8.2113,8.0954,8.044,8.0587,8.0167,7.98,7.936,7.8772,7.8011,7.7177,7.6331,7.5654,7.5129,7.4333,7.4185,7.4761,7.4932,7.5242,7.5816,7.5969,7.6276,7.6937,7.8112,7.914,7.9743,7.9963,8.0314,8.0938,8.1342,8.1452,8.1379,8.1966,8.2443,8.2296,8.1929,8.1546,8.1509,8.0828,8.0661,8.1085,8.0681,8.055,8.1085,8.0571,8.0073,8.0131,8.0424,8.0571,8.0608,8.1415,8.1893,8.1929,8.2039,8.2186,8.2076,8.1636,8.1562,8.2076,8.2186,8.2186,8.2186,8.2186,8.2186,8.2186,8.2186,8.2186,8.2186,8.2186,8.237,8.2904,8.2663,8.248,8.281,8.2517,8.2186,8.215,8.2113,8.197,9.1803,9.1803,9.1767,9.1326,9.0519,8.962,8.9253,8.9253,8.9179,8.9143,8.8812,8.7528,8.6444,8.5637,8.5637,8.5233,8.4535,8.4572,8.4646,8.4646,8.4535,8.4499,8.4425,8.3654,8.3308,8.3197,8.259,8.2296,8.2333,8.226,8.2186,8.2186,8.2186,8.2186,8.2186,8.2223,8.2223,8.2186,8.2039,8.2333,8.3051,8.3711,8.3361,8.1893,8.1746,8.1028,7.9444,7.8678,7.8253,7.8106,7.7313,7.6931,7.7041,7.7687,7.8179,7.8253,7.8898,7.9412,7.9449,7.9596,7.9779,7.9853,8.055,8.0991,8.1175,8.237,8.2847,8.246,8.2847,8.3271,8.3271,8.3197,8.3051,8.2904,8.2333,8.2003,8.2039,8.2039,8.2003,8.2076,8.1379,8.0901,8.0865,8.0498,8.011,8.0293,8.0938,8.1379,8.1415,8.1856,8.2186,8.2186,8.2076,8.2076,8.2186,8.2186,8.2186,8.2186,8.2186,8.2186,8.2186,8.2223,8.2186,8.2186,8.2296,8.2406,8.2406,8.2223,8.226,8.2553,8.2443,8.2186,8.2186,8.2186,8.206,9.1803,9.1767,9.1289,9.0611,8.9877,8.9546,8.94,8.94,8.94,8.94,8.9326,8.8702,8.7711,8.6518,8.6518,8.6077,8.5343,8.5766,8.6023,8.595,8.5527,8.5306,8.5196,8.3968,8.3601,8.4022,8.3271,8.3177,8.3471,8.3141,8.292,8.2847,8.2443,8.2443,8.2847,8.292,8.3141,8.3618,8.4095,8.4499,8.4646,8.3728,8.2884,8.2296,8.2186,8.1672,8.0645,8.0167,7.98,7.9323,7.8956,7.8772,7.8772,7.9103,7.9302,7.9376,8.0057,8.0593,8.0797,8.1124,8.1587,8.216,8.2529,8.2897,8.3376,8.4039,8.426,8.4023,8.4044,8.4095,8.4132,8.4115,8.3931,8.3491,8.3087,8.292,8.292,8.248,8.2333,8.2737,8.2223,8.1709,8.1672,8.1415,8.1248,8.1248,8.1525,8.1636,8.1709,8.2003,8.215,8.226,8.259,8.2663,8.2333,8.2186,8.2223,8.2186,8.2186,8.2186,8.2223,8.2663,8.281,8.2296,8.2553,8.2774,8.2977,8.2517,8.226,8.248,8.237,8.2186,8.2186,8.2186,8.2186,9.195,9.2024,9.1289,9.0629,9.006,9.006,9.0096,9.0132,9.0096,9.0096,9.0095,8.9858,8.9106,8.8042,8.7748,8.7325,8.6921,8.7399,8.7638,8.7601,8.7068,8.6701,8.6334,8.5086,8.4572,8.4756,8.4115,8.4058,8.4499,8.4058,8.3748,8.3654,8.3141,8.3141,8.3638,8.3765,8.4022,8.4572,8.5196,8.549,8.5233,8.3765,8.2847,8.2847,8.2627,8.215,8.1379,8.1342,8.1085,8.0514,8.0661,8.0807,8.0791,8.1039,8.1234,8.1229,8.1339,8.1781,8.24,8.2697,8.3219,8.4083,8.4247,8.4469,8.4986,8.5318,8.5429,8.5413,8.5423,8.5401,8.509,8.504,8.4713,8.4198,8.3798,8.3418,8.3344,8.27,8.2406,8.292,8.248,8.2186,8.2186,8.2113,8.2076,8.2076,8.2113,8.2186,8.2186,8.2186,8.2186,8.2223,8.2884,8.3124,8.2663,8.2884,8.2774,8.2553,8.259,8.2517,8.2296,8.2774,8.303,8.2296,8.281,8.2957,8.2774,8.2443,8.226,8.27,8.259,8.2186,8.2186,8.2186,8.2186,9.2281,9.2831,9.206,9.1601,9.1657,9.1601,9.1728,9.1705,9.171,9.1765,9.1707,9.0993,9.0482,9.0316,8.9636,8.9253,8.9179,8.9143,8.9143,8.9143,8.9106,8.8776,8.8059,8.7252,8.6481,8.593,8.5159,8.4756,8.4792,8.4609,8.4535,8.4535,8.4425,8.4462,8.4535,8.4572,8.4572,8.4809,8.4883,8.4809,8.4736,8.4626,8.4442,8.4385,8.3765,8.2994,8.2313,8.2166,8.2166,8.2129,8.2753,8.3177,8.3267,8.4056,8.4514,8.4569,8.3403,8.3292,8.4484,8.421,8.4173,8.4928,8.5107,8.5112,8.5403,8.5957,8.629,8.6258,8.6849,8.6927,8.6357,8.6099,8.5926,8.5631,8.4378,8.3614,8.3361,8.2713,8.2239,8.2329,8.2309,8.2235,8.2203,8.2186,8.2203,8.2203,8.2186,8.2186,8.2186,8.2186,8.2186,8.2333,8.2847,8.3381,8.3381,8.3691,8.3838,8.3564,8.3214,8.3067,8.259,8.2223,8.226,8.226,8.2517,8.2553,8.2333,8.2223,8.2223,8.237,8.237,8.2186,8.2186,8.2186,8.2186,9.1963,9.1868,9.1412,9.1006,9.0706,9.1185,9.1478,9.1567,9.1976,9.2215,9.2214,9.1903,9.1775,9.1738,9.1443,9.0585,8.9454,8.94,8.94,8.94,8.94,8.9253,8.8923,8.8133,8.7949,8.7986,8.7288,8.6921,8.6738,8.5894,8.5343,8.527,8.4829,8.4829,8.527,8.5343,8.5651,8.6283,8.632,8.6351,8.634,8.5951,8.5693,8.564,8.4689,8.4108,8.3909,8.3909,8.3958,8.4071,8.4313,8.4498,8.4514,8.482,8.5133,8.5202,8.4606,8.46,8.5269,8.5074,8.5244,8.6041,8.6205,8.6412,8.691,8.728,8.7466,8.7503,8.7651,8.7688,8.7492,8.7172,8.655,8.559,8.4899,8.4039,8.3208,8.2692,8.2508,8.2508,8.2508,8.2476,8.238,8.2311,8.23,8.2219,8.2186,8.2186,8.2186,8.2186,8.2186,8.2296,8.2884,8.3564,8.4152,8.4352,8.4425,8.4132,8.3838,8.3398,8.2957,8.2774,8.281,8.237,8.2443,8.2517,8.2406,8.2223,8.2186,8.2186,8.2186,8.2186,8.2186,8.2186,8.2186,9.2177,9.1599,9.1458,9.1161,9.0875,9.1375,9.1631,9.1739,9.2185,9.2407,9.2479,9.2444,9.2409,9.2409,9.2409,9.1734,9.0457,9.0366,9.0366,9.0329,9.0109,8.9961,8.9851,8.9152,8.9042,8.9446,8.9059,8.8802,8.8691,8.7698,8.7163,8.7127,8.6337,8.6227,8.6631,8.6484,8.6736,8.7278,8.7389,8.7382,8.7423,8.698,8.6685,8.6595,8.5939,8.532,8.5009,8.4972,8.4984,8.5117,8.5318,8.5646,8.5899,8.5731,8.5773,8.6152,8.563,8.5608,8.6218,8.606,8.623,8.7103,8.723,8.7505,8.8062,8.81,8.81,8.81,8.81,8.81,8.8053,8.7842,8.72,8.6079,8.5461,8.4727,8.3619,8.3013,8.2754,8.2665,8.2665,8.2618,8.2502,8.2439,8.2359,8.2247,8.2235,8.2186,8.2186,8.2186,8.2186,8.226,8.2884,8.3491,8.3968,8.4242,8.4499,8.4315,8.3821,8.3491,8.3177,8.3141,8.2957,8.2517,8.2406,8.2517,8.248,8.226,8.2186,8.2186,8.2186,8.2186,8.2186,8.2186,8.2186,9.3111,9.2481,9.2409,9.2427,9.2461,9.259,9.2584,9.2798,9.2641,9.2824,9.3,9.2678,9.2737,9.2592,9.2774,9.2501,9.2464,9.2409,9.2281,9.2062,9.1434,9.1156,9.1102,9.0438,9.0106,9.0159,9.0009,9.0009,8.9901,8.968,8.9606,8.9676,8.8884,8.8444,8.8716,8.7907,8.7481,8.7571,8.7571,8.7551,8.7514,8.7509,8.7489,8.7546,8.7403,8.6701,8.5334,8.5244,8.5334,8.5387,8.5978,8.6782,8.737,8.6979,8.7021,8.748,8.6545,8.6561,8.7638,8.7214,8.7177,8.7787,8.8025,8.7988,8.8062,8.81,8.81,8.81,8.81,8.81,8.81,8.8068,8.7841,8.7588,8.6016,8.5086,8.459,8.3598,8.2696,8.2727,8.2742,8.2696,8.2649,8.2571,8.2423,8.2359,8.2284,8.2186,8.2186,8.2186,8.2186,8.2296,8.27,8.3197,8.3601,8.3985,8.4278,8.4389,8.3821,8.3344,8.292,8.2737,8.259,8.226,8.226,8.237,8.237,8.2186,8.2186,8.2186,8.2186,8.2186,8.2186,8.2186,8.2186,9.3119,9.3621,9.3501,9.3832,9.4416,9.4453,9.4504,9.4538,9.447,9.4487,9.4521,9.4487,9.4453,9.4453,9.4453,9.4453,9.4453,9.4416,9.3724,9.2572,9.2168,9.2057,9.202,9.1782,9.1634,9.154,9.106,9.0838,9.0727,9.0301,8.9989,8.9915,8.9784,8.9619,8.9599,8.886,8.845,8.8474,8.7972,8.8021,8.8594,8.8186,8.8149,8.8594,8.8186,8.7646,8.7185,8.7037,8.7037,8.7095,8.7386,8.7699,8.7894,8.7746,8.7814,8.801,8.7691,8.7468,8.7914,8.7861,8.7765,8.8062,8.81,8.81,8.81,8.81,8.81,8.81,8.81,8.81,8.81,8.81,8.7623,8.641,8.577,8.5019,8.4188,8.3424,8.3121,8.3031,8.3031,8.2986,8.2865,8.2764,8.2734,8.2571,8.2426,8.2329,8.2239,8.2329,8.2186,8.226,8.259,8.2863,8.3247,8.3541,8.3761,8.3818,8.3434,8.3124,8.2737,8.2443,8.226,8.2186,8.2186,8.2186,8.2186,8.2186,8.2186,8.2186,8.2186,8.2186,8.2186,8.2186,8.2186,9.3678,9.4606,9.4504,9.4818,9.5403,9.5403,9.5403,9.5403,9.5403,9.5403,9.5403,9.5403,9.5403,9.5403,9.5403,9.5403,9.5403,9.5403,9.4727,9.3575,9.3134,9.3208,9.3393,9.3171,9.2875,9.2579,9.2097,9.1875,9.1838,9.1411,9.1115,9.1115,9.0782,9.0633,9.0559,8.9856,8.9461,8.9431,8.8817,8.8642,8.8997,8.8508,8.8471,8.9087,8.879,8.8567,8.853,8.8419,8.8271,8.8143,8.81,8.81,8.81,8.8084,8.81,8.81,8.81,8.81,8.81,8.81,8.81,8.81,8.81,8.81,8.81,8.81,8.81,8.81,8.81,8.81,8.81,8.81,8.7468,8.6226,8.61,8.5446,8.4332,8.3827,8.3849,8.3983,8.3886,8.3767,8.381,8.3784,8.366,8.3519,8.3376,8.3031,8.292,8.2826,8.27,8.2642,8.2859,8.3026,8.2998,8.3092,8.3223,8.31,8.2884,8.2774,8.2553,8.237,8.2186,8.2186,8.2186,8.2186,8.2186,8.2186,8.2186,8.2186,8.2186,8.2186,8.2186,8.2186,8.2186,9.4734,9.544,9.5477,9.5534,9.5663,9.57,9.5737,9.5626,9.5663,9.57,9.5663,9.5774,9.57,9.5626,9.5811,9.5811,9.5588,9.5737,9.572,9.5369,9.4906,9.4795,9.4926,9.4444,9.3813,9.3198,9.3066,9.2992,9.279,9.2715,9.2988,9.2695,9.2047,9.1746,9.1564,9.0966,9.0541,9.043,8.974,8.9421,8.9533,8.879,8.8768,8.9496,8.9459,8.9347,8.9347,8.922,8.8848,8.8248,8.81,8.81,8.81,8.81,8.81,8.81,8.81,8.81,8.81,8.8131,8.8115,8.81,8.81,8.81,8.81,8.81,8.81,8.81,8.81,8.81,8.81,8.81,8.7675,8.7044,8.6598,8.6115,8.5632,8.4852,8.474,8.5149,8.4963,8.4703,8.523,8.5219,8.5179,8.5117,8.4901,8.4394,8.4035,8.3703,8.3456,8.3456,8.3624,8.3645,8.3749,8.3933,8.4027,8.3795,8.3382,8.3006,8.2606,8.2296,8.2186,8.2186,8.2186,8.2186,8.2186,8.2186,8.2186,8.2186,8.2186,8.2223,8.2333,8.2443,8.248,9.5551,9.6294,9.6294,9.6666,9.7186,9.726,9.7223,9.7223,9.7223,9.7112,9.7186,9.7223,9.7149,9.7223,9.7186,9.7223,9.7149,9.7149,9.726,9.7223,9.7074,9.6257,9.5551,9.5217,9.466,9.3954,9.3805,9.3582,9.3025,9.2988,9.3025,9.2988,9.2802,9.2653,9.2542,9.1873,9.1428,9.1279,9.0573,9.0499,9.0796,9.0202,9.0276,9.0907,9.0499,9.0202,9.0127,8.9607,8.8938,8.8211,8.81,8.81,8.81,8.81,8.81,8.8115,8.8208,8.8223,8.8146,8.8208,8.8171,8.81,8.81,8.81,8.81,8.81,8.81,8.81,8.81,8.81,8.81,8.81,8.7935,8.7675,8.6821,8.6041,8.5743,8.5446,8.5372,8.5536,8.5446,8.5483,8.5602,8.5637,8.5565,8.555,8.5403,8.5149,8.4896,8.4785,8.4574,8.46,8.4658,8.4605,8.4626,8.4811,8.4869,8.4689,8.4244,8.3639,8.2986,8.226,8.2223,8.2186,8.2186,8.2186,8.2186,8.2186,8.2186,8.2186,8.2186,8.2223,8.2847,8.3087,8.3104,9.6406,9.7149,9.7149,9.7446,9.7892,9.7892,9.7892,9.7892,9.7892,9.7892,9.7892,9.7892,9.7892,9.7892,9.7892,9.7892,9.7892,9.7892,9.7892,9.7892,9.7817,9.7112,9.6146,9.5886,9.5328,9.4288,9.4214,9.3731,9.3136,9.2988,9.3174,9.3471,9.3508,9.3694,9.3991,9.3211,9.2728,9.2542,9.165,9.1242,9.1613,9.0907,9.0982,9.1465,9.1205,9.1019,9.0907,9.0239,8.9421,8.8716,8.8323,8.81,8.81,8.81,8.8115,8.8177,8.8263,8.8278,8.8278,8.8293,8.8263,8.8171,8.8146,8.81,8.81,8.81,8.81,8.81,8.81,8.81,8.81,8.81,8.81,8.7951,8.723,8.6635,8.6635,8.6338,8.6338,8.6449,8.6375,8.6264,8.6561,8.6558,8.6527,8.657,8.665,8.6243,8.5868,8.5826,8.5678,8.5572,8.5609,8.5604,8.5683,8.5836,8.5544,8.5365,8.4887,8.4297,8.3553,8.2627,8.2333,8.2333,8.226,8.2223,8.2296,8.226,8.2186,8.2186,8.2186,8.248,8.3051,8.3271,8.3308,9.7297,9.8003,9.7929,9.7892,9.7892,9.7892,9.7892,9.7892,9.7892,9.7892,9.7892,9.7892,9.7892,9.7892,9.7892,9.7892,9.7892,9.7892,9.7892,9.7892,9.7855,9.7409,9.6852,9.674,9.5886,9.466,9.4325,9.3805,9.3211,9.2988,9.3434,9.3879,9.4102,9.4585,9.4845,9.4548,9.4325,9.3954,9.2802,9.2171,9.2133,9.1539,9.1428,9.1836,9.1948,9.1836,9.165,9.1056,9.0313,8.9607,8.8753,8.8508,8.836,8.8248,8.823,8.8263,8.8323,8.8384,8.8496,8.8481,8.8383,8.8337,8.8252,8.8137,8.8121,8.81,8.81,8.81,8.81,8.81,8.81,8.81,8.81,8.81,8.801,8.8062,8.7973,8.7415,8.723,8.7914,8.7341,8.7415,8.7787,8.81,8.801,8.7369,8.7433,8.7179,8.691,8.6814,8.6539,8.6211,8.6332,8.658,8.6703,8.6862,8.6359,8.5955,8.539,8.4799,8.4182,8.3434,8.281,8.259,8.281,8.2737,8.2553,8.248,8.2406,8.2186,8.2186,8.2663,8.3141,8.3104,8.3104,9.8672,9.8783,9.8152,9.7892,9.7892,9.7892,9.7892,9.7892,9.7892,9.7892,9.7892,9.7892,9.7892,9.7892,9.7892,9.7892,9.7892,9.7892,9.7892,9.7892,9.7892,9.7817,9.7595,9.752,9.6666,9.544,9.5105,9.4362,9.3397,9.3174,9.3434,9.4177,9.4474,9.4622,9.5328,9.5365,9.5143,9.4957,9.4102,9.3582,9.3359,9.2802,9.2431,9.2653,9.2653,9.2691,9.2542,9.191,9.139,9.1056,9.035,8.9533,8.9066,8.9026,8.8821,8.8435,8.8429,8.8488,8.8563,8.8861,8.8926,8.8405,8.8602,8.8753,8.8137,8.81,8.81,8.81,8.81,8.81,8.81,8.81,8.81,8.81,8.81,8.81,8.8062,8.7898,8.7914,8.7988,8.7951,8.7914,8.8084,8.81,8.81,8.81,8.8047,8.7957,8.7845,8.7697,8.7369,8.6914,8.7093,8.731,8.7316,8.7407,8.7031,8.6615,8.6069,8.5628,8.501,8.4278,8.3691,8.3508,8.3508,8.3361,8.3141,8.3104,8.3177,8.27,8.2406,8.303,8.3471,8.3214,8.3398,9.8783,9.9006,9.8226,9.8115,9.8375,9.8077,9.7892,9.7892,9.7892,9.7892,9.7892,9.7892,9.7892,9.7892,9.7892,9.7892,9.7892,9.7892,9.7892,9.7892,9.7892,9.7669,9.7446,9.7557,9.7037,9.5626,9.5403,9.466,9.3842,9.3657,9.4214,9.5254,9.5291,9.5886,9.6331,9.6183,9.596,9.5811,9.518,9.4622,9.4177,9.3805,9.3285,9.3062,9.2988,9.2988,9.2914,9.2133,9.1762,9.1502,9.0945,9.0127,8.9379,8.9073,8.8733,8.8526,8.8547,8.8635,8.8756,8.8824,8.8779,8.8346,8.8602,8.845,8.8195,8.81,8.81,8.81,8.81,8.81,8.81,8.81,8.81,8.81,8.81,8.81,8.81,8.81,8.81,8.81,8.81,8.8062,8.81,8.81,8.81,8.81,8.81,8.8047,8.8047,8.7935,8.7973,8.7771,8.7883,8.7973,8.7957,8.7847,8.7614,8.7271,8.6873,8.6541,8.6185,8.5397,8.4609,8.4462,8.4315,8.4132,8.3948,8.3931,8.3895,8.3728,8.3654,8.3875,8.4022,8.4058,8.4389,9.856,9.9192,9.8412,9.8523,9.9118,9.8598,9.8263,9.8115,9.8077,9.8077,9.7892,9.7892,9.7892,9.7892,9.7892,9.7892,9.7892,9.7892,9.7892,9.7892,9.7892,9.7595,9.7297,9.7446,9.7186,9.5737,9.5663,9.5105,9.44,9.4437,9.5068,9.6294,9.6517,9.6814,9.7409,9.7223,9.6703,9.6406,9.5886,9.5217,9.4622,9.44,9.3991,9.3397,9.3025,9.2988,9.2876,9.2393,9.1948,9.1836,9.1019,9.0202,8.9543,8.8887,8.854,8.866,8.8876,8.8972,8.907,8.8966,8.8853,8.8427,8.8363,8.8248,8.8174,8.81,8.81,8.81,8.81,8.81,8.81,8.81,8.81,8.81,8.81,8.81,8.81,8.81,8.81,8.81,8.81,8.81,8.81,8.81,8.81,8.81,8.81,8.81,8.81,8.81,8.81,8.81,8.81,8.81,8.8084,8.7974,8.7778,8.7595,8.7361,8.714,8.6953,8.6351,8.5617,8.527,8.5086,8.4903,8.4792,8.4792,8.4756,8.4719,8.4535,8.4389,8.4572,8.4903,8.5233,9.9378,10.0046,9.9229,9.9341,10.0009,9.9935,9.9415,9.8932,9.882,9.8486,9.7929,9.7892,9.7892,9.7892,9.7892,9.7892,9.7892,9.7892,9.7892,9.7892,9.7892,9.7669,9.752,9.7669,9.726,9.6666,9.6294,9.5588,9.4808,9.4883,9.5737,9.6443,9.6666,9.7149,9.7595,9.7669,9.7186,9.6703,9.6443,9.5997,9.5403,9.4957,9.4622,9.3842,9.3322,9.3025,9.2951,9.2876,9.2765,9.2653,9.1316,9.0573,9.0159,8.9616,8.9336,8.9248,8.9384,8.9511,8.9489,8.9836,8.9386,8.8828,8.8623,8.862,8.827,8.81,8.81,8.81,8.81,8.81,8.81,8.81,8.81,8.81,8.81,8.81,8.81,8.81,8.81,8.81,8.81,8.81,8.81,8.81,8.81,8.81,8.81,8.81,8.81,8.81,8.81,8.81,8.81,8.81,8.8084,8.7958,8.7778,8.7697,8.7481,8.7298,8.7146,8.7027,8.6608,8.6114,8.582,8.5673,8.56,8.56,8.5416,8.5306,8.5013,8.4756,8.5086,8.5453,8.5343,9.8932,9.9563,9.882,9.9192,10.0121,9.9824,9.9452,9.9118,9.9081,9.8672,9.8077,9.7892,9.7892,9.7892,9.7892,9.7892,9.7892,9.7892,9.7892,9.7892,9.7892,9.7595,9.7446,9.7669,9.7037,9.6443,9.6294,9.6294,9.5551,9.5811,9.6406,9.7112,9.726,9.7297,9.7334,9.7632,9.7297,9.6814,9.6889,9.6814,9.5923,9.5328,9.4548,9.414,9.3471,9.3025,9.2914,9.2468,9.2319,9.2059,9.1167,9.061,9.0419,9.0244,8.9892,8.9709,8.9994,9.0025,8.9742,8.9849,8.9355,8.8416,8.8577,8.8508,8.8233,8.81,8.8137,8.8137,8.81,8.81,8.81,8.8137,8.81,8.81,8.8174,8.8174,8.8137,8.8137,8.8211,8.8211,8.8174,8.8174,8.81,8.81,8.81,8.81,8.81,8.81,8.81,8.81,8.81,8.81,8.81,8.81,8.81,8.8006,8.7863,8.773,8.76,8.7418,8.7234,8.7098,8.7029,8.6775,8.6591,8.6297,8.6407,8.6371,8.6114,8.5894,8.593,8.5894,8.5877,8.593,8.5857,9.8375,9.9043,9.8412,9.8969,10.0046,9.9638,9.9266,9.9118,9.9081,9.8672,9.7966,9.7892,9.7892,9.7892,9.7892,9.7892,9.7892,9.7892,9.8003,9.8152,9.7966,9.7483,9.7297,9.7297,9.7186,9.622,9.6629,9.6666,9.6183,9.6369,9.6852,9.7037,9.7372,9.7223,9.6666,9.6852,9.6777,9.6666,9.6926,9.6963,9.6183,9.5031,9.4214,9.414,9.3434,9.2988,9.2914,9.2505,9.2208,9.1948,9.1353,9.0759,9.0759,9.0722,9.0488,9.0168,9.074,9.0575,9.0289,9.0056,8.9866,8.8986,8.8694,8.8604,8.8583,8.8657,8.8381,8.8344,8.8121,8.8418,8.8678,8.8455,8.853,8.8678,8.8731,8.8583,8.8583,8.862,8.8731,8.8657,8.8381,8.827,8.8248,8.81,8.81,8.81,8.81,8.81,8.81,8.81,8.81,8.81,8.81,8.81,8.81,8.81,8.7942,8.7778,8.7632,8.7452,8.7285,8.7115,8.7083,8.7051,8.6941,8.6775,8.6941,8.7014,8.6684,8.6591,8.6867,8.6867,8.6574,8.6464,8.6481,9.8375,9.9081,9.8969,9.9489,10.0195,10.0121,9.9712,9.9118,9.9081,9.8635,9.7892,9.7892,9.7892,9.7892,9.7892,9.7892,9.7892,9.7929,9.8189,9.8486,9.8152,9.778,9.7669,9.7817,9.7223,9.6369,9.7037,9.6777,9.6071,9.622,9.6294,9.6183,9.6517,9.6331,9.5663,9.5886,9.5254,9.4808,9.5365,9.5737,9.5477,9.4697,9.4288,9.3991,9.3471,9.2988,9.2988,9.2765,9.2728,9.2653,9.1985,9.1613,9.1539,9.1539,9.1539,9.1497,9.155,9.155,9.1327,9.1195,9.0807,9.0069,8.9979,9.0164,8.9867,8.9421,8.9124,8.914,8.8641,8.879,8.957,8.9459,8.9607,8.9756,8.983,8.957,8.9384,8.9363,8.9437,8.931,8.9161,8.8678,8.8397,8.8248,8.81,8.81,8.81,8.81,8.81,8.81,8.81,8.81,8.81,8.81,8.81,8.81,8.8037,8.7842,8.7665,8.7501,8.7389,8.7294,8.7213,8.7178,8.7161,8.7198,8.7252,8.7252,8.7088,8.7014,8.7014,8.7014,8.6978,8.6941,8.6921,9.8077,9.8412,9.8412,9.8895,9.9563,9.9638,9.9452,9.9155,9.9081,9.8635,9.8003,9.7892,9.7892,9.7892,9.7892,9.7892,9.7892,9.7892,9.804,9.8338,9.804,9.7632,9.7334,9.7557,9.7297,9.6257,9.6146,9.5737,9.5365,9.5886,9.6331,9.6034,9.5886,9.5514,9.4845,9.518,9.4883,9.4697,9.4957,9.5403,9.5217,9.466,9.4214,9.4177,9.3397,9.3062,9.3025,9.2988,9.2988,9.2951,9.2542,9.2468,9.2431,9.2431,9.2431,9.2431,9.2431,9.2208,9.1762,9.1725,9.1316,9.0796,9.0536,9.0424,9.0424,9.0239,8.9979,8.9979,8.9697,8.9904,9.0313,9.0164,9.0239,9.0424,9.0722,9.0462,9.0202,9.0239,9.0239,9.009,8.9942,8.9496,8.9013,8.862,8.8397,8.81,8.81,8.81,8.81,8.81,8.81,8.81,8.81,8.81,8.81,8.81,8.8084,8.7905,8.7681,8.7534,8.7529,8.7452,8.7502,8.7839,8.8189,8.8096,8.7729,8.7399,8.7178,8.7051,8.7014,8.7014,8.7014,8.7014,8.6941,9.7892,9.7892,9.7892,9.8263,9.8783,9.8783,9.8783,9.8783,9.8783,9.8449,9.804,9.7892,9.7892,9.7892,9.7892,9.7892,9.7892,9.7892,9.7892,9.7855,9.7595,9.7037,9.6666,9.6814,9.6443,9.5105,9.5514,9.5254,9.5143,9.5328,9.57,9.5737,9.518,9.466,9.4251,9.4288,9.4251,9.3917,9.4325,9.4622,9.4548,9.414,9.3917,9.3694,9.3397,9.3116,9.3248,9.3322,9.3322,9.3694,9.3731,9.3694,9.3694,9.3694,9.3508,9.3471,9.3471,9.3174,9.2542,9.2096,9.1688,9.1353,9.1056,9.1242,9.087,9.0796,9.0796,9.0796,9.0424,9.061,9.0982,9.1019,9.1056,9.1205,9.1316,9.1056,9.0907,9.113,9.113,9.087,9.0722,9.0573,9.0016,8.9251,8.8731,8.8248,8.81,8.8137,8.81,8.81,8.81,8.81,8.81,8.81,8.81,8.8084,8.8084,8.8006,8.7746,8.7551,8.7546,8.78,8.8051,8.8479,8.8884,8.8536,8.7949,8.7582,8.7252,8.7088,8.7014,8.7014,8.7014,8.7014,8.7014,9.7892,9.7892,9.7892,9.7966,9.804,9.7966,9.8003,9.8077,9.804,9.8003,9.7929,9.7892,9.7892,9.7892,9.7892,9.7892,9.7892,9.7892,9.7892,9.7632,9.7074,9.6406,9.5997,9.5663,9.5328,9.4548,9.4845,9.518,9.5031,9.44,9.4102,9.3397,9.414,9.3768,9.3545,9.3657,9.3694,9.3434,9.3545,9.3434,9.3434,9.3248,9.3211,9.3174,9.3136,9.3322,9.4028,9.3879,9.414,9.4697,9.4697,9.4845,9.4734,9.4808,9.4585,9.4325,9.4548,9.4102,9.3285,9.2876,9.2839,9.2802,9.2616,9.2208,9.1725,9.165,9.1613,9.1576,9.1242,9.1465,9.1948,9.2245,9.1985,9.2096,9.2096,9.1948,9.1948,9.2245,9.2171,9.1762,9.1539,9.139,9.1056,9.0313,8.9533,8.905,8.8471,8.8434,8.8174,8.81,8.81,8.81,8.81,8.81,8.81,8.8084,8.8068,8.8006,8.7794,8.76,8.7455,8.7857,8.8363,8.844,8.8626,8.837,8.8206,8.7912,8.7582,8.7198,8.7014,8.7014,8.7014,8.7014,8.7014,9.7892,9.7892,9.7892,9.7892,9.7892,9.7892,9.7892,9.7892,9.7892,9.7892,9.7892,9.7892,9.7892,9.7892,9.7892,9.7892,9.7892,9.7892,9.7855,9.7595,9.7,9.6183,9.5663,9.5159,9.4808,9.3987,9.4268,9.4325,9.3805,9.3785,9.3842,9.3694,9.3731,9.3694,9.3582,9.3694,9.3657,9.3508,9.3211,9.2988,9.2988,9.2988,9.2988,9.2988,9.2988,9.3136,9.3397,9.3434,9.3954,9.4511,9.4771,9.5105,9.5514,9.5551,9.5328,9.5031,9.5365,9.4845,9.4028,9.3657,9.3545,9.3025,9.2951,9.2839,9.2431,9.2468,9.2505,9.2356,9.2171,9.2356,9.2579,9.2691,9.2616,9.2876,9.2914,9.2728,9.2728,9.2876,9.2876,9.2319,9.2245,9.2208,9.1836,9.1353,9.0573,8.9867,8.9236,8.8694,8.8434,8.8211,8.8211,8.8137,8.81,8.81,8.81,8.8084,8.8068,8.799,8.7895,8.7734,8.7608,8.8072,8.8468,8.8473,8.8496,8.8481,8.839,8.8243,8.7912,8.7399,8.7124,8.7014,8.7014,8.7088,8.7051,9.7892,9.7892,9.7892,9.7892,9.7892,9.7892,9.7892,9.7892,9.7892,9.7892,9.7892,9.7892,9.7892,9.7855,9.7557,9.7483,9.7334,9.7186,9.7112,9.6703,9.6146,9.5588,9.5267,9.5066,9.4729,9.3865,9.3977,9.4158,9.3876,9.3495,9.371,9.3917,9.3954,9.4214,9.4362,9.4288,9.4102,9.3694,9.3359,9.2988,9.2988,9.2988,9.2988,9.2988,9.2988,9.3248,9.3434,9.3657,9.4177,9.4808,9.5217,9.5477,9.5886,9.6108,9.5997,9.5923,9.5886,9.5626,9.4808,9.3991,9.3619,9.3099,9.2988,9.2988,9.2988,9.3025,9.2876,9.2914,9.2914,9.2988,9.2988,9.2914,9.2876,9.2988,9.2988,9.2876,9.2876,9.2988,9.2988,9.2802,9.2802,9.2691,9.2542,9.2059,9.1316,9.0573,8.9979,8.9347,8.8843,8.862,8.8418,8.827,8.81,8.81,8.81,8.8084,8.8084,8.8068,8.7974,8.7858,8.7919,8.8297,8.848,8.8505,8.8566,8.8645,8.8426,8.8023,8.7766,8.7509,8.7565,8.7822,8.7491,8.7565,8.7271,9.7892,9.7892,9.7892,9.7892,9.7892,9.7892,9.7892,9.7892,9.7892,9.7892,9.7892,9.7892,9.7892,9.7706,9.7186,9.6889,9.6666,9.6071,9.5811,9.5774,9.5365,9.4585,9.4694,9.4905,9.5127,9.493,9.4794,9.471,9.4644,9.3961,9.4004,9.4511,9.4845,9.5143,9.5254,9.4548,9.3842,9.3174,9.3099,9.2988,9.2988,9.2988,9.2988,9.2988,9.2988,9.3248,9.3545,9.3694,9.4362,9.5551,9.5848,9.6369,9.726,9.7446,9.7223,9.6666,9.7297,9.6852,9.5514,9.3991,9.3434,9.3397,9.3545,9.3434,9.3211,9.3136,9.3211,9.3359,9.3174,9.3099,9.3025,9.2988,9.2988,9.2988,9.2988,9.2988,9.2988,9.2988,9.2988,9.2988,9.2988,9.2951,9.2951,9.2728,9.1985,9.1279,9.0685,9.009,8.9474,8.8806,8.8493,8.853,8.8323,8.81,8.81,8.81,8.8084,8.8121,8.809,8.8064,8.8101,8.8314,8.8444,8.8477,8.8304,8.8164,8.7928,8.7655,8.7986,8.8445,8.8776,8.8886,8.8445,8.8133,8.7932,9.7892,9.7892,9.7892,9.7892,9.7892,9.7892,9.7892,9.7892,9.7892,9.7892,9.7892,9.7892,9.7892,9.7632,9.7074,9.6591,9.6443,9.5848,9.5551,9.5997,9.5217,9.5514,9.557,9.5524,9.5672,9.5538,9.5313,9.5013,9.4833,9.4254,9.4375,9.4883,9.5663,9.5811,9.5328,9.466,9.3991,9.3731,9.3359,9.2988,9.3025,9.3062,9.3062,9.3062,9.3062,9.3211,9.3471,9.3508,9.44,9.57,9.5923,9.6591,9.7595,9.7892,9.7743,9.7446,9.7855,9.7372,9.6294,9.5217,9.466,9.4585,9.4437,9.4437,9.4585,9.4585,9.4325,9.3917,9.3805,9.3582,9.3136,9.3025,9.2988,9.2988,9.2988,9.2988,9.2988,9.2988,9.2988,9.2988,9.2988,9.2988,9.2988,9.2988,9.2431,9.1873,9.1279,9.0759,9.0164,8.9028,8.8397,8.8641,8.8604,8.8285,8.8137,8.8508,8.8657,8.8678,8.8567,8.8366,8.8388,8.837,8.8215,8.8121,8.7848,8.7588,8.7723,8.8021,8.8977,8.9546,8.973,8.9657,8.9216,8.8996,8.8923,9.7978,9.8044,9.8044,9.8315,9.8531,9.8206,9.8095,9.8179,9.8111,9.8111,9.8179,9.8009,9.7978,9.7715,9.7089,9.6591,9.648,9.5477,9.5403,9.5923,9.4994,9.5143,9.5645,9.6212,9.6263,9.6197,9.6085,9.5785,9.5829,9.4813,9.5176,9.6146,9.6443,9.6034,9.5477,9.4883,9.466,9.4511,9.4214,9.3991,9.3991,9.3917,9.3768,9.3582,9.3434,9.3359,9.3174,9.3434,9.3991,9.5068,9.5848,9.6443,9.7483,9.7892,9.7892,9.7892,9.7855,9.7557,9.7,9.6703,9.6294,9.6257,9.5811,9.544,9.5403,9.5217,9.5031,9.4771,9.4622,9.414,9.3619,9.3471,9.3359,9.3359,9.3359,9.3397,9.3619,9.3657,9.3359,9.3322,9.3025,9.3025,9.2988,9.2988,9.2802,9.2319,9.1836,9.1353,9.0833,8.9719,8.888,8.9161,8.9236,8.8976,8.8976,8.9236,8.931,8.931,8.8976,8.862,8.8281,8.8154,8.7974,8.7746,8.7616,8.7565,8.7921,8.846,8.9362,9.006,9.0464,9.028,8.9877,8.9803,8.9803,9.8095,9.8357,9.8336,9.8964,9.9712,9.8782,9.8547,9.8745,9.8429,9.8477,9.873,9.8158,9.8074,9.8039,9.7096,9.6588,9.6183,9.492,9.5068,9.5031,9.4548,9.4883,9.5496,9.6228,9.6696,9.708,9.7171,9.6968,9.713,9.6266,9.6571,9.7074,9.6703,9.6257,9.5737,9.5514,9.5254,9.4957,9.4957,9.4845,9.4883,9.5068,9.4697,9.44,9.4214,9.3954,9.3805,9.3991,9.466,9.5477,9.6183,9.7,9.7595,9.7892,9.7892,9.7892,9.7892,9.7817,9.7743,9.7557,9.7595,9.726,9.6406,9.5774,9.57,9.5923,9.5811,9.5588,9.5403,9.4883,9.4437,9.4214,9.4028,9.4028,9.4028,9.4251,9.4548,9.4437,9.4065,9.3731,9.3248,9.3062,9.2988,9.2988,9.2988,9.2765,9.2319,9.2096,9.1539,9.0685,9.0053,9.0164,9.0127,8.983,8.983,8.983,8.9756,8.9644,8.9087,8.8678,8.8355,8.8138,8.7995,8.7831,8.7501,8.7653,8.8291,8.8939,8.9638,9.028,9.0996,9.1033,9.0702,9.0611,9.0537,9.8258,9.8336,9.8541,9.8864,9.9145,9.9058,9.8945,9.8792,9.8683,9.873,9.8776,9.8604,9.8413,9.8154,9.6787,9.653,9.571,9.4883,9.5105,9.5031,9.4994,9.5477,9.6166,9.7001,9.7466,9.7551,9.7685,9.7787,9.7291,9.6845,9.6294,9.6034,9.6666,9.6443,9.6257,9.622,9.5588,9.518,9.5365,9.5588,9.5588,9.5626,9.5328,9.518,9.5068,9.4808,9.4734,9.4808,9.5477,9.6146,9.6443,9.7037,9.778,9.7892,9.7892,9.7892,9.7892,9.7892,9.7892,9.7892,9.7892,9.7892,9.7297,9.7297,9.7186,9.6963,9.674,9.648,9.6108,9.5626,9.5068,9.4771,9.466,9.4622,9.4548,9.4511,9.4734,9.4511,9.414,9.3545,9.3062,9.3062,9.2988,9.2988,9.2988,9.2914,9.2802,9.2579,9.2171,9.1316,9.1093,9.1205,9.087,9.0499,9.0202,9.009,9.009,8.9942,8.9533,8.9146,8.8928,8.8674,8.8228,8.7995,8.7998,8.8372,8.8956,8.9528,8.9987,9.0886,9.1546,9.1546,9.151,9.1326,9.1253,9.8385,9.8562,9.8854,9.9065,9.9236,9.941,9.9381,9.9207,9.905,9.905,9.914,9.8899,9.8595,9.8174,9.7471,9.7045,9.6642,9.5786,9.5661,9.5923,9.5862,9.57,9.6372,9.7189,9.7218,9.7465,9.7764,9.7943,9.7587,9.7255,9.6777,9.6146,9.6703,9.6554,9.6443,9.6554,9.6406,9.6034,9.596,9.6257,9.6331,9.6274,9.622,9.594,9.5903,9.5774,9.5551,9.568,9.6183,9.6666,9.6777,9.7334,9.7892,9.7892,9.7892,9.7892,9.7892,9.7892,9.7892,9.7892,9.7892,9.7892,9.7892,9.7817,9.778,9.7632,9.7446,9.7186,9.6777,9.6369,9.5774,9.5291,9.5254,9.518,9.492,9.466,9.4511,9.4362,9.3842,9.3211,9.2988,9.2988,9.2988,9.2988,9.2988,9.2951,9.2951,9.2876,9.2468,9.1799,9.1799,9.2096,9.1613,9.113,9.087,9.0759,9.0833,9.087,9.061,9.0223,8.9782,8.9426,8.916,8.8881,8.8625,8.9109,8.9673,8.9858,9.0317,9.1216,9.1803,9.173,9.1693,9.1657,9.162,9.8455,9.8877,9.9213,9.9523,9.9783,9.9783,9.9769,9.9783,9.9467,9.9495,9.9607,9.9169,9.8756,9.8514,9.8193,9.7855,9.7322,9.6607,9.6397,9.6731,9.6348,9.6157,9.6311,9.6426,9.7279,9.7271,9.76,9.844,9.8158,9.7847,9.7434,9.6829,9.7458,9.738,9.6653,9.7323,9.734,9.6968,9.7174,9.7603,9.7663,9.7721,9.7572,9.692,9.668,9.6477,9.6105,9.6237,9.6703,9.7,9.7334,9.7817,9.7892,9.7892,9.7892,9.7892,9.7892,9.7892,9.7892,9.7892,9.7892,9.7892,9.7892,9.7892,9.7892,9.7892,9.7706,9.7632,9.7223,9.7037,9.6591,9.5997,9.5774,9.5811,9.57,9.5403,9.518,9.4845,9.4251,9.3694,9.3397,9.3359,9.2988,9.2988,9.2988,9.2988,9.2988,9.2988,9.2765,9.2208,9.2356,9.2728,9.2319,9.191,9.2059,9.1948,9.1873,9.1799,9.1428,9.0827,9.0057,9.0,9.0126,8.9696,8.9319,8.9811,9.0279,9.039,9.0629,9.1363,9.1803,9.1803,9.1803,9.184,9.1803,9.7917,9.8644,9.9479,9.9866,9.9944,9.9837,9.9864,9.9944,9.9769,9.9796,9.9904,9.9772,9.9473,9.905,9.8398,9.802,9.7861,9.718,9.7226,9.7525,9.7352,9.7024,9.738,9.7626,9.7833,9.8098,9.8525,9.8988,9.8872,9.852,9.8188,9.7927,9.8225,9.7815,9.7355,9.81,9.8026,9.7748,9.8005,9.8179,9.8111,9.8212,9.8076,9.7877,9.7752,9.7593,9.7319,9.7383,9.7592,9.7706,9.7743,9.7892,9.7892,9.7892,9.7892,9.7892,9.7892,9.7892,9.7892,9.7892,9.7892,9.7892,9.7892,9.7892,9.7892,9.7892,9.7892,9.7817,9.7669,9.752,9.7334,9.674,9.6369,9.6406,9.6406,9.6108,9.5811,9.5254,9.4697,9.4362,9.3991,9.3657,9.3285,9.3062,9.2988,9.2988,9.2988,9.2988,9.3025,9.2728,9.2691,9.2951,9.2914,9.2728,9.2876,9.2728,9.2431,9.1985,9.1539,9.0905,9.0403,9.0721,9.1014,9.0354,9.0049,9.0588,9.083,9.0573,9.0959,9.173,9.1987,9.2097,9.2024,9.2024,9.1877,9.7471,9.8028,9.9098,9.9758,10.005,10.0023,10.0036,10.0088,10.0023,10.0062,10.0114,9.9999,9.9617,9.9097,9.8427,9.7672,9.7659,9.7356,9.7357,9.7761,9.8328,9.8005,9.826,9.8561,9.8117,9.8223,9.8783,9.9178,9.9342,9.9052,9.8639,9.831,9.83,9.8386,9.814,9.8149,9.8427,9.8341,9.8476,9.8423,9.8324,9.8395,9.8395,9.8345,9.8312,9.8246,9.8196,9.8095,9.8009,9.7941,9.7906,9.7892,9.7892,9.7892,9.7892,9.7892,9.7892,9.7892,9.7892,9.7892,9.7892,9.7892,9.7892,9.7892,9.7892,9.7892,9.7892,9.778,9.7223,9.7037,9.7334,9.7,9.7,9.7074,9.6666,9.6257,9.5848,9.5365,9.5068,9.4957,9.4734,9.466,9.4251,9.3842,9.3731,9.3508,9.3434,9.3025,9.3062,9.3285,9.3248,9.3248,9.3285,9.3099,9.2951,9.2802,9.2579,9.2133,9.1708,9.1878,9.1879,9.1936,9.1909,9.1377,9.1157,9.1471,9.1546,9.1289,9.1583,9.2354,9.2501,9.2464,9.2354,9.2317,9.2207,9.7337,9.7615,9.8618,9.9517,10.0164,10.019,10.019,10.0202,10.0202,10.0328,10.0425,10.024,9.9251,9.8806,9.863,9.7461,9.7147,9.8172,9.8143,9.802,9.8666,9.882,9.8806,9.8725,9.8604,9.856,9.8892,9.9185,9.937,9.9219,9.889,9.8223,9.82,9.8445,9.7979,9.8071,9.8584,9.8648,9.8711,9.8658,9.8616,9.8541,9.8509,9.8476,9.8444,9.8427,9.8378,9.8262,9.8125,9.8023,9.7958,9.7926,9.7892,9.7892,9.7892,9.7892,9.7892,9.7892,9.7892,9.7892,9.7892,9.7892,9.7892,9.7892,9.7892,9.7892,9.7892,9.7669,9.7112,9.7,9.7334,9.7483,9.7557,9.7557,9.7,9.6629,9.6183,9.5774,9.5737,9.5663,9.5551,9.5514,9.5105,9.466,9.4362,9.414,9.3805,9.3359,9.3136,9.3508,9.3694,9.3768,9.3842,9.3582,9.3136,9.3025,9.2876,9.2608,9.2336,9.2909,9.3257,9.3011,9.2812,9.2592,9.2482,9.2739,9.2519,9.2281,9.2684,9.3125,9.2868,9.2831,9.3125,9.3015,9.2758,9.7753,9.9012,9.9105,9.9614,10.0288,10.024,10.0278,10.0365,10.0377,10.0498,10.065,10.0685,10.0367,10.0165,9.987,9.8896,9.7807,9.8871,9.8972,9.8724,9.9232,9.9708,9.9822,9.9442,9.9607,9.9511,9.9414,9.9583,9.972,9.968,9.9611,9.9339,9.912,9.9271,9.9377,9.9393,9.9291,9.9254,9.9118,9.9065,9.8842,9.878,9.8811,9.8748,9.8632,9.86,9.8487,9.8258,9.8142,9.804,9.7975,9.7926,9.7892,9.7892,9.7892,9.7892,9.7892,9.7892,9.7892,9.7892,9.7892,9.7892,9.7892,9.7892,9.7892,9.7892,9.7892,9.7892,9.7557,9.7557,9.7743,9.7743,9.778,9.778,9.7483,9.7446,9.7223,9.7074,9.6963,9.6703,9.6369,9.6108,9.5663,9.5291,9.4957,9.4697,9.4325,9.3917,9.3545,9.3842,9.4251,9.4325,9.4437,9.3842,9.3322,9.3359,9.3269,9.302,9.2943,9.3346,9.3652,9.3768,9.3566,9.3455,9.3822,9.4189,9.3859,9.3088,9.3602,9.3896,9.3308,9.3161,9.3602,9.3786,9.3565]}]]